[[{"header":{"parameterUnit":"m.s-1","parameterCategory":1,"la1":31.0,"la2":29.5877,"lo1":-88.7671,"lo2":-86.6584,"dy":0.0162,"dx":0.0185,"nx":115,"ny":88,"refTime":"2025-05-14T12:00:00:Z","depth":0,"parameterNumber":2,"parameterNumberName":"U-component_of_WINDS"},"data":[0.0,0.0,0.0,0.0,0.0,0.0,0.0,0.0,0.0,0.0,0.0,0.0,0.0,0.0,0.0,0.0,0.0,0.0,0.0,0.0,0.0,0.0,0.0,0.0,0.0,0.0,0.0,0.0,0.0,0.0,0.0,0.0,0.0,0.0,0.0,0.0,0.0,0.0,0.0,0.0,0.0,0.0,0.0,0.0,0.0,0.0,0.0,0.0,0.0,0.0,0.0,0.0,0.0,0.0,0.0,0.0,0.0,0.0,0.0,0.0,0.0,0.0,0.0,0.0,0.0,0.0,0.0,0.0,0.0,0.0,0.0,0.0,0.0,0.0,0.0,0.0,0.0,0.0,0.0,0.0,0.0,0.0,0.0,0.0,0.0,0.0,0.0,0.0,0.0,0.0,0.0,0.0,0.0,0.0,0.0,0.0,0.0,0.0,0.0,0.0,0.0,0.0,0.0,0.0,0.0,0.0,0.0,0.0,0.0,0.0,0.0,0.0,0.0,0.0,0.0,0.0,0.0,0.0,0.0,0.0,0.0,0.0,0.0,0.0,0.0,0.0,0.0,0.0,0.0,0.0,0.0,0.0,0.0,0.0,0.0,0.0,0.0,0.0,0.0,0.0,0.0,0.0,0.0,0.0,0.0,0.0,0.0,0.0,0.0,0.0,0.0,0.0,0.0,0.0,0.0,0.0,0.0,0.0,0.0,0.0,0.0,0.0,0.0,0.0,0.0,0.0,0.0,0.0,0.0,0.0,0.0,0.0,0.0,0.0,0.0,0.0,0.0,0.0,0.0,0.0,0.0,0.0,0.0,0.0,0.0,0.0,0.0,0.0,0.0,0.0,0.0,0.0,0.0,0.0,0.0,0.0,0.0,0.0,0.0,0.0,0.0,0.0,0.0,0.0,0.0,0.0,0.0,0.0,0.0,0.0,0.0,0.0,0.0,0.0,0.0,0.0,0.0,0.0,0.0,0.0,0.0,0.0,0.0,0.0,0.0,0.0,0.0,0.0,0.0,0.0,0.0,0.0,0.0,0.0,0.0,0.0,0.0,0.0,0.0,0.0,0.0,0.0,0.0,0.0,0.0,0.0,0.0,0.0,0.0,0.0,0.0,0.0,0.0,0.0,0.0,0.0,0.0,0.0,0.0,0.0,0.0,0.0,0.0,0.0,0.0,0.0,0.0,0.0,0.0,0.0,0.0,0.0,0.0,0.0,0.0,0.0,0.0,0.0,0.0,0.0,0.0,0.0,0.0,0.0,0.0,0.0,0.0,0.0,0.0,0.0,0.0,0.0,0.0,0.0,0.0,0.0,0.0,0.0,0.0,0.0,0.0,0.0,0.0,0.0,0.0,0.0,0.0,0.0,0.0,0.0,0.0,0.0,0.0,0.0,0.0,0.0,0.0,0.0,0.0,0.0,0.0,0.0,0.0,0.0,0.0,0.0,0.0,0.0,0.0,0.0,0.0,0.0,0.0,0.0,0.0,0.0,0.0,0.0,0.0,0.0,0.0,0.0,0.0,0.0,0.0,0.0,0.0,0.0,0.0,0.0,0.0,0.0,0.0,0.0,0.0,0.0,0.0,0.0,0.0,0.0,0.0,0.0,0.0,0.0,0.0,0.0,0.0,0.0,0.0,0.0,0.0,0.0,0.0,0.0,0.0,0.0,0.0,0.0,0.0,0.0,0.0,0.0,0.0,0.0,0.0,0.0,0.0,0.0,0.0,0.0,0.0,0.0,0.0,0.0,0.0,0.0,0.0,0.0,0.0,0.0,0.0,0.0,0.0,0.0,0.0,0.0,0.0,0.0,0.0,0.0,0.0,0.0,0.0,0.0,0.0,0.0,0.0,0.0,0.0,0.0,0.0,0.0,0.0,0.0,0.0,0.0,0.0,0.0,0.0,0.0,0.0,0.0,0.0,0.0,0.0,0.0,0.0,0.0,0.0,0.0,0.0,0.0,0.0,0.0,0.0,0.0,0.0,0.0,0.0,0.0,0.0,0.0,0.0,0.0,0.0,0.0,0.0,0.0,0.0,0.0,0.0,0.0,0.0,0.0,0.0,0.0,0.0,0.0,0.0,0.0,0.0,0.0,0.0,0.0,0.0,0.0,0.0,0.0,0.0,0.0,0.0,0.0,0.0,0.0,0.0,0.0,0.0,0.0,0.0,0.0,0.0,0.0,0.0,0.0,0.0,0.0,0.0,0.0,0.0,0.0,0.0,0.0,0.0,0.0,0.0,0.0,0.0,0.0,0.0,0.0,0.0,0.0,0.0,0.0,0.0,0.0,0.0,0.0,0.0,0.0,0.0,0.0,0.0,0.0,0.0,0.0,0.0,0.0,0.0,0.0,0.0,0.0,0.0,0.0,0.0,0.0,0.0,0.0,0.0,0.0,0.0,0.0,0.0,0.0,0.0,0.0,0.0,0.0,0.0,0.0,0.0,0.0,0.0,0.0,0.0,0.0,0.0,0.0,0.0,0.0,0.0,0.0,0.0,0.0,0.0,0.0,0.0,0.0,0.0,0.0,0.0,0.0,0.0,0.0,0.0,0.0,0.0,0.0,0.0,0.0,0.0,0.0,0.0,0.0,0.0,0.0,0.0,0.0,0.0,0.0,0.0,0.0,0.0,0.0,0.0,0.0,0.0,0.0,0.0,0.0,0.0,0.0,0.0,0.0,0.0,0.0,0.0,0.0,0.0,0.0,0.0,0.0,0.0,0.0,0.0,0.0,0.0,0.0,0.0,0.0,0.0,0.0,0.0,0.0,0.0,0.0,0.0,0.0,0.0,0.0,0.0,0.0,0.0,0.0,0.0,0.0,0.0,0.0,0.0,0.0,0.0,0.0,0.0,0.0,0.0,0.0,0.0,0.0,0.0,0.0,0.0,0.0,0.0,0.0,0.0,0.0,0.0,0.0,0.0,0.0,0.0,0.0,0.0,0.0,0.0,0.0,0.0,0.0,0.0,0.0,0.0,0.0,0.0,0.0,0.0,0.0,0.0,0.0,0.0,0.0,0.0,0.0,0.0,0.0,0.0,0.0,0.0,0.0,0.0,0.0,0.0,0.0,0.0,0.0,0.0,0.0,0.0,0.0,0.0,0.0,0.0,0.0,0.0,0.0,0.0,0.0,0.0,0.0,0.0,0.0,0.0,0.0,0.0,0.0,0.0,0.0,0.0,0.0,0.0,0.0,0.0,0.0,0.0,0.0,0.0,0.0,0.0,0.0,0.0,0.0,0.0,0.0,0.0,0.0,0.0,0.0,0.0,0.0,0.0,0.0,0.0,0.0,0.0,0.0,0.0,0.0,0.0,0.0,0.0,0.0,0.0,0.0,0.0,0.0,0.0,0.0,0.0,0.0,0.0,0.0,0.0,0.0,0.0,0.0,0.0,0.0,0.0,0.0,0.0,0.0,0.0,0.0,0.0,0.0,0.0,0.0,0.0,0.0,0.0,0.0,0.0,0.0,0.0,0.0,0.0,0.0,0.0,0.0,0.0,0.0,0.0,0.0,0.0,0.0,0.0,0.0,0.0,0.0,0.0,0.0,0.0,0.0,0.0,0.0,0.0,0.0,0.0,0.0,0.0,0.0,0.0,0.0,0.0,0.0,0.0,0.0,0.0,0.0,0.0,0.0,0.0,0.0,0.0,0.0,0.0,0.0,0.0,0.0,0.0,0.0,0.0,0.0,0.0,0.0,0.0,0.0,0.0,0.0,0.0,0.0,0.0,0.0,0.0,0.0,0.0,0.0,0.0,0.0,0.0,0.0,0.0,0.0,0.0,0.0,0.0,0.0,0.0,0.0,0.0,0.0,0.0,0.0,0.0,0.0,0.0,0.0,0.0,0.0,0.0,0.0,0.0,0.0,0.0,0.0,0.0,0.0,0.0,0.0,0.0,0.0,0.0,0.0,0.0,0.0,0.0,0.0,0.0,0.0,0.0,0.0,0.0,0.0,0.0,0.0,0.0,0.0,0.0,0.0,0.0,0.0,0.0,0.0,0.0,0.0,0.0,0.0,0.0,0.0,0.0,0.0,0.0,0.0,0.0,0.0,0.0,0.0,0.0,0.0,0.0,0.0,0.0,0.0,0.0,0.0,0.0,0.0,0.0,0.0,0.0,0.0,0.0,0.0,0.0,0.0,0.0,0.0,0.0,0.0,0.0,0.0,0.0,0.0,0.0,0.0,0.0,0.0,0.0,0.0,0.0,0.0,0.0,0.0,0.0,0.0,0.0,0.0,0.0,0.0,0.0,0.0,0.0,0.0,0.0,0.0,0.0,0.0,-2.7784,0.0,0.0,0.0,0.0,0.0,0.0,0.0,0.0,0.0,0.0,0.0,0.0,0.0,0.0,0.0,0.0,0.0,0.0,0.0,0.0,0.0,0.0,0.0,0.0,0.0,0.0,0.0,0.0,0.0,0.0,0.0,0.0,0.0,0.0,0.0,0.0,0.0,0.0,0.0,0.0,0.0,0.0,0.0,0.0,0.0,0.0,0.0,0.0,0.0,0.0,0.0,0.0,0.0,0.0,0.0,0.0,0.0,0.0,0.0,0.0,0.0,0.0,0.0,0.0,0.0,0.0,0.0,0.0,0.0,0.0,0.0,0.0,0.0,0.0,0.0,0.0,0.0,0.0,0.0,0.0,0.0,0.0,0.0,0.0,0.0,0.0,0.0,0.0,0.0,0.0,0.0,0.0,0.0,0.0,0.0,0.0,0.0,0.0,0.0,0.0,0.0,0.0,0.0,0.0,0.0,0.0,0.0,0.0,0.0,0.0,-3.0225,-3.0204,-3.0204,-2.9421,-2.7778,0.0,0.0,0.0,0.0,0.0,0.0,0.0,0.0,0.0,0.0,0.0,0.0,0.0,0.0,0.0,0.0,0.0,0.0,0.0,0.0,0.0,0.0,0.0,0.0,0.0,0.0,0.0,0.0,0.0,0.0,0.0,0.0,0.0,0.0,0.0,0.0,0.0,0.0,0.0,0.0,0.0,0.0,0.0,0.0,0.0,0.0,0.0,0.0,0.0,0.0,0.0,0.0,0.0,0.0,0.0,0.0,0.0,0.0,0.0,0.0,0.0,0.0,0.0,0.0,0.0,0.0,0.0,0.0,0.0,0.0,0.0,0.0,0.0,0.0,0.0,0.0,0.0,0.0,0.0,0.0,0.0,0.0,0.0,0.0,0.0,0.0,0.0,0.0,0.0,0.0,0.0,0.0,0.0,0.0,0.0,0.0,0.0,0.0,0.0,0.0,0.0,0.0,0.0,0.0,0.0,0.0,0.0,0.0,0.0,0.0,0.0,0.0,-3.0777,-2.9975,-2.8332,0.0,0.0,0.0,0.0,0.0,0.0,0.0,0.0,0.0,0.0,0.0,0.0,0.0,0.0,0.0,0.0,0.0,0.0,0.0,0.0,0.0,0.0,0.0,0.0,0.0,0.0,0.0,0.0,0.0,0.0,0.0,0.0,0.0,0.0,0.0,0.0,0.0,0.0,0.0,0.0,0.0,0.0,0.0,0.0,0.0,0.0,0.0,0.0,0.0,0.0,0.0,0.0,0.0,0.0,0.0,0.0,0.0,0.0,0.0,0.0,0.0,0.0,0.0,0.0,0.0,0.0,0.0,0.0,0.0,0.0,0.0,0.0,0.0,0.0,0.0,0.0,0.0,0.0,0.0,0.0,0.0,0.0,0.0,0.0,0.0,0.0,0.0,0.0,0.0,0.0,0.0,0.0,0.0,0.0,0.0,0.0,0.0,0.0,0.0,0.0,0.0,0.0,0.0,0.0,0.0,0.0,0.0,0.0,0.0,0.0,-3.093,-3.2413,-3.2451,0.0,-3.0051,0.0,0.0,0.0,0.0,0.0,0.0,0.0,0.0,0.0,0.0,0.0,0.0,0.0,0.0,0.0,0.0,0.0,0.0,0.0,0.0,0.0,0.0,0.0,0.0,0.0,0.0,0.0,0.0,0.0,0.0,0.0,0.0,0.0,0.0,0.0,0.0,0.0,0.0,0.0,0.0,0.0,0.0,0.0,0.0,0.0,0.0,0.0,0.0,0.0,0.0,0.0,0.0,0.0,0.0,0.0,0.0,0.0,0.0,0.0,0.0,0.0,0.0,0.0,0.0,0.0,0.0,0.0,0.0,0.0,0.0,0.0,0.0,0.0,0.0,0.0,0.0,0.0,0.0,0.0,0.0,0.0,0.0,0.0,0.0,0.0,0.0,0.0,0.0,0.0,0.0,0.0,0.0,0.0,0.0,0.0,0.0,0.0,0.0,0.0,0.0,0.0,0.0,0.0,0.0,0.0,0.0,0.0,0.0,0.0,0.0,-3.2012,-3.268,-3.1725,-3.0643,0.0,0.0,0.0,0.0,0.0,0.0,0.0,0.0,0.0,0.0,0.0,0.0,0.0,0.0,0.0,0.0,0.0,0.0,0.0,0.0,0.0,0.0,0.0,0.0,0.0,0.0,0.0,0.0,0.0,0.0,0.0,0.0,0.0,0.0,0.0,0.0,0.0,0.0,0.0,0.0,0.0,0.0,0.0,0.0,0.0,0.0,0.0,0.0,0.0,0.0,0.0,0.0,0.0,0.0,0.0,0.0,0.0,0.0,0.0,0.0,0.0,0.0,0.0,0.0,0.0,0.0,0.0,0.0,0.0,0.0,0.0,0.0,0.0,0.0,0.0,0.0,0.0,0.0,0.0,0.0,0.0,0.0,0.0,0.0,0.0,0.0,0.0,0.0,0.0,0.0,0.0,0.0,0.0,0.0,0.0,0.0,0.0,0.0,0.0,0.0,0.0,0.0,0.0,0.0,0.0,0.0,0.0,0.0,0.0,0.0,-3.1981,-3.2565,-3.2986,-3.1866,-3.0395,-2.8624,0.0,0.0,0.0,0.0,0.0,0.0,0.0,0.0,0.0,0.0,0.0,0.0,0.0,0.0,0.0,0.0,0.0,0.0,0.0,0.0,0.0,0.0,0.0,0.0,0.0,0.0,0.0,0.0,0.0,0.0,0.0,0.0,0.0,0.0,0.0,0.0,0.0,0.0,0.0,0.0,0.0,0.0,0.0,0.0,0.0,0.0,0.0,0.0,0.0,0.0,0.0,0.0,0.0,0.0,0.0,0.0,0.0,0.0,0.0,0.0,0.0,0.0,0.0,0.0,0.0,0.0,0.0,0.0,0.0,0.0,0.0,0.0,0.0,0.0,0.0,0.0,0.0,0.0,0.0,0.0,0.0,0.0,0.0,0.0,0.0,0.0,0.0,0.0,0.0,0.0,0.0,0.0,0.0,0.0,0.0,0.0,0.0,0.0,0.0,0.0,0.0,0.0,0.0,0.0,0.0,0.0,0.0,0.0,0.0,-3.2248,-3.2267,-3.3918,-3.3861,-3.1923,0.0,0.0,0.0,0.0,0.0,0.0,0.0,0.0,0.0,0.0,0.0,0.0,0.0,0.0,0.0,0.0,0.0,0.0,0.0,0.0,0.0,0.0,0.0,0.0,0.0,0.0,0.0,0.0,0.0,0.0,0.0,0.0,0.0,0.0,0.0,0.0,0.0,0.0,0.0,0.0,0.0,0.0,0.0,0.0,0.0,0.0,0.0,0.0,0.0,0.0,0.0,0.0,0.0,0.0,0.0,0.0,0.0,0.0,0.0,0.0,0.0,0.0,0.0,0.0,0.0,0.0,0.0,0.0,0.0,0.0,0.0,0.0,0.0,0.0,0.0,0.0,0.0,0.0,0.0,0.0,0.0,0.0,0.0,0.0,0.0,0.0,0.0,0.0,0.0,0.0,0.0,0.0,0.0,0.0,0.0,0.0,0.0,0.0,0.0,0.0,0.0,0.0,0.0,0.0,0.0,0.0,0.0,0.0,0.0,-2.9879,-3.0376,-3.2458,-3.6058,-3.2248,-2.9746,0.0,0.0,0.0,0.0,0.0,0.0,0.0,0.0,0.0,0.0,0.0,0.0,0.0,0.0,0.0,0.0,0.0,0.0,0.0,0.0,0.0,0.0,0.0,0.0,0.0,0.0,0.0,0.0,0.0,0.0,0.0,0.0,0.0,0.0,0.0,0.0,0.0,0.0,0.0,0.0,0.0,0.0,0.0,0.0,0.0,0.0,0.0,0.0,0.0,0.0,0.0,0.0,0.0,0.0,0.0,0.0,0.0,0.0,0.0,0.0,0.0,0.0,0.0,0.0,0.0,0.0,0.0,0.0,0.0,0.0,0.0,0.0,0.0,0.0,0.0,0.0,0.0,0.0,0.0,0.0,0.0,0.0,0.0,0.0,0.0,0.0,0.0,0.0,0.0,0.0,0.0,0.0,0.0,0.0,0.0,0.0,0.0,0.0,0.0,0.0,0.0,0.0,0.0,0.0,0.0,0.0,0.0,0.0,0.0,-2.928,0.0,-3.349,-3.5744,-3.1439,-2.8561,0.0,0.0,0.0,0.0,0.0,0.0,0.0,0.0,0.0,0.0,0.0,0.0,0.0,0.0,0.0,0.0,0.0,0.0,0.0,0.0,0.0,0.0,0.0,0.0,0.0,0.0,0.0,0.0,0.0,0.0,0.0,0.0,0.0,0.0,0.0,0.0,0.0,0.0,0.0,0.0,0.0,0.0,0.0,0.0,0.0,0.0,0.0,0.0,0.0,0.0,0.0,0.0,0.0,0.0,0.0,0.0,0.0,0.0,0.0,0.0,0.0,0.0,0.0,0.0,0.0,0.0,0.0,0.0,0.0,0.0,0.0,0.0,0.0,0.0,0.0,0.0,0.0,0.0,0.0,0.0,0.0,0.0,0.0,0.0,0.0,0.0,0.0,0.0,0.0,0.0,0.0,0.0,0.0,0.0,0.0,0.0,0.0,0.0,0.0,0.0,0.0,0.0,0.0,0.0,0.0,0.0,0.0,0.0,-2.7727,-3.2451,-3.4972,-3.5125,-3.2882,-3.1859,-2.8676,0.0,0.0,0.0,0.0,0.0,0.0,0.0,0.0,0.0,0.0,0.0,0.0,0.0,0.0,0.0,0.0,0.0,0.0,0.0,0.0,0.0,0.0,0.0,0.0,0.0,0.0,0.0,0.0,0.0,0.0,0.0,0.0,0.0,0.0,0.0,0.0,0.0,0.0,0.0,0.0,0.0,0.0,0.0,0.0,0.0,0.0,0.0,0.0,0.0,0.0,0.0,0.0,0.0,0.0,0.0,0.0,0.0,0.0,0.0,0.0,0.0,0.0,0.0,0.0,0.0,0.0,0.0,0.0,0.0,0.0,0.0,0.0,0.0,0.0,0.0,0.0,0.0,0.0,0.0,0.0,0.0,0.0,0.0,0.0,0.0,0.0,0.0,0.0,0.0,0.0,0.0,0.0,0.0,0.0,0.0,0.0,0.0,0.0,0.0,0.0,0.0,0.0,0.0,0.0,0.0,0.0,0.0,0.0,0.0,-3.0968,-3.289,-3.4628,-3.5916,-3.14,-2.8848,0.0,0.0,0.0,0.0,0.0,0.0,0.0,0.0,0.0,0.0,0.0,0.0,0.0,0.0,0.0,0.0,0.0,0.0,0.0,0.0,0.0,0.0,0.0,0.0,0.0,0.0,0.0,0.0,0.0,0.0,0.0,0.0,0.0,0.0,0.0,0.0,0.0,0.0,0.0,0.0,0.0,0.0,0.0,0.0,0.0,0.0,0.0,0.0,0.0,0.0,0.0,0.0,0.0,0.0,0.0,0.0,0.0,0.0,0.0,0.0,0.0,0.0,0.0,0.0,0.0,0.0,0.0,0.0,0.0,0.0,0.0,0.0,0.0,0.0,0.0,0.0,0.0,0.0,0.0,0.0,0.0,0.0,0.0,0.0,0.0,0.0,0.0,0.0,0.0,0.0,0.0,0.0,0.0,0.0,0.0,0.0,0.0,0.0,0.0,0.0,0.0,0.0,0.0,0.0,0.0,0.0,0.0,0.0,0.0,-3.307,-3.4961,-3.6528,-3.7655,-3.2374,-2.9618,-2.982,0.0,0.0,0.0,0.0,0.0,0.0,0.0,0.0,0.0,0.0,0.0,0.0,0.0,0.0,0.0,0.0,0.0,0.0,0.0,0.0,0.0,0.0,0.0,0.0,0.0,0.0,0.0,0.0,0.0,0.0,0.0,0.0,0.0,0.0,0.0,0.0,0.0,0.0,0.0,0.0,0.0,0.0,0.0,0.0,0.0,0.0,0.0,0.0,0.0,0.0,0.0,0.0,0.0,0.0,0.0,0.0,0.0,0.0,0.0,0.0,0.0,0.0,0.0,0.0,0.0,0.0,0.0,0.0,0.0,0.0,0.0,0.0,0.0,0.0,0.0,0.0,0.0,0.0,0.0,0.0,0.0,0.0,0.0,0.0,0.0,0.0,0.0,0.0,0.0,0.0,0.0,0.0,0.0,0.0,0.0,0.0,0.0,0.0,0.0,0.0,0.0,0.0,0.0,0.0,0.0,0.0,0.0,0.0,-3.7865,-4.0425,-4.0578,-3.8151,-3.4615,-3.1157,0.0,0.0,0.0,0.0,0.0,0.0,0.0,0.0,0.0,0.0,0.0,0.0,0.0,0.0,0.0,0.0,0.0,0.0,0.0,0.0,0.0,0.0,0.0,0.0,0.0,0.0,0.0,0.0,0.0,0.0,0.0,0.0,0.0,0.0,0.0,0.0,0.0,0.0,0.0,0.0,0.0,0.0,0.0,0.0,0.0,0.0,0.0,0.0,0.0,0.0,0.0,0.0,0.0,0.0,0.0,0.0,0.0,0.0,0.0,0.0,0.0,0.0,0.0,0.0,0.0,0.0,0.0,0.0,0.0,0.0,0.0,0.0,0.0,0.0,0.0,0.0,0.0,0.0,0.0,0.0,0.0,0.0,0.0,0.0,0.0,0.0,0.0,0.0,0.0,0.0,0.0,0.0,0.0,0.0,0.0,0.0,0.0,0.0,0.0,0.0,0.0,0.0,0.0,0.0,0.0,0.0,0.0,0.0,0.0,-4.0444,-4.3577,-4.4284,-4.2345,-3.7738,-3.4224,0.0,0.0,0.0,0.0,0.0,0.0,0.0,0.0,0.0,0.0,0.0,0.0,0.0,0.0,0.0,0.0,0.0,0.0,0.0,0.0,0.0,0.0,0.0,0.0,0.0,0.0,0.0,0.0,0.0,0.0,0.0,0.0,0.0,0.0,0.0,0.0,0.0,0.0,0.0,0.0,0.0,0.0,0.0,0.0,0.0,0.0,0.0,0.0,0.0,0.0,0.0,0.0,0.0,0.0,0.0,0.0,0.0,0.0,0.0,0.0,0.0,0.0,0.0,0.0,0.0,0.0,0.0,0.0,0.0,0.0,0.0,0.0,0.0,0.0,0.0,0.0,0.0,0.0,0.0,0.0,0.0,0.0,0.0,0.0,0.0,0.0,0.0,0.0,0.0,0.0,0.0,0.0,0.0,0.0,0.0,0.0,0.0,0.0,0.0,0.0,0.0,0.0,0.0,0.0,0.0,0.0,0.0,0.0,-3.902,-4.3033,-4.6042,-4.7131,-4.6156,-4.0746,-3.6483,0.0,0.0,0.0,0.0,0.0,0.0,0.0,0.0,0.0,0.0,0.0,0.0,0.0,0.0,0.0,0.0,0.0,0.0,0.0,0.0,0.0,0.0,0.0,0.0,0.0,0.0,0.0,0.0,0.0,0.0,0.0,0.0,0.0,0.0,0.0,0.0,0.0,0.0,0.0,0.0,0.0,0.0,0.0,0.0,0.0,0.0,0.0,0.0,0.0,0.0,0.0,0.0,0.0,0.0,0.0,0.0,0.0,0.0,0.0,0.0,0.0,0.0,0.0,0.0,0.0,0.0,0.0,0.0,0.0,0.0,0.0,0.0,0.0,0.0,0.0,0.0,0.0,0.0,0.0,0.0,0.0,0.0,0.0,0.0,0.0,0.0,0.0,0.0,0.0,0.0,0.0,0.0,0.0,0.0,0.0,0.0,0.0,0.0,0.0,0.0,0.0,0.0,0.0,0.0,0.0,0.0,0.0,0.0,-4.0548,-4.5316,-4.7818,-4.911,-4.8926,-4.3357,-3.8219,0.0,0.0,0.0,0.0,0.0,0.0,0.0,0.0,0.0,0.0,0.0,0.0,0.0,0.0,0.0,0.0,0.0,0.0,0.0,0.0,0.0,0.0,0.0,0.0,0.0,0.0,0.0,0.0,0.0,0.0,0.0,0.0,0.0,0.0,0.0,0.0,0.0,0.0,0.0,0.0,0.0,0.0,0.0,0.0,0.0,0.0,0.0,0.0,0.0,0.0,0.0,0.0,0.0,0.0,0.0,0.0,0.0,0.0,0.0,0.0,0.0,0.0,0.0,0.0,0.0,0.0,0.0,0.0,0.0,0.0,0.0,0.0,0.0,0.0,0.0,0.0,0.0,0.0,0.0,0.0,0.0,0.0,0.0,0.0,0.0,0.0,0.0,0.0,0.0,0.0,0.0,0.0,0.0,0.0,0.0,0.0,0.0,0.0,0.0,0.0,0.0,0.0,0.0,0.0,0.0,0.0,0.0,0.0,-4.2498,-4.6156,-4.8105,-4.911,-4.9079,-4.447,-3.9905,0.0,0.0,0.0,0.0,0.0,0.0,0.0,0.0,0.0,0.0,0.0,0.0,0.0,0.0,0.0,0.0,0.0,0.0,0.0,0.0,0.0,0.0,0.0,0.0,0.0,0.0,0.0,0.0,0.0,0.0,0.0,0.0,0.0,0.0,0.0,0.0,0.0,0.0,0.0,0.0,0.0,0.0,0.0,0.0,0.0,0.0,0.0,0.0,-2.6373,0.0,0.0,0.0,0.0,0.0,0.0,0.0,0.0,0.0,0.0,0.0,0.0,0.0,0.0,0.0,0.0,0.0,0.0,0.0,0.0,0.0,0.0,0.0,0.0,0.0,0.0,0.0,0.0,0.0,0.0,0.0,0.0,0.0,0.0,0.0,0.0,0.0,0.0,0.0,0.0,0.0,0.0,0.0,0.0,0.0,0.0,0.0,0.0,0.0,0.0,0.0,0.0,0.0,0.0,0.0,0.0,0.0,0.0,0.0,-4.354,-4.6424,-4.82,-4.8907,-4.8411,-4.53,-4.115,0.0,0.0,0.0,0.0,0.0,0.0,0.0,0.0,0.0,0.0,0.0,0.0,0.0,0.0,0.0,0.0,0.0,0.0,0.0,0.0,0.0,0.0,0.0,0.0,0.0,0.0,0.0,0.0,0.0,0.0,0.0,0.0,0.0,0.0,0.0,0.0,0.0,0.0,0.0,0.0,0.0,0.0,0.0,0.0,0.0,0.0,0.0,0.0,0.0,0.0,0.0,0.0,0.0,0.0,0.0,0.0,0.0,0.0,0.0,0.0,0.0,0.0,0.0,0.0,0.0,0.0,0.0,0.0,0.0,0.0,0.0,0.0,0.0,0.0,0.0,0.0,0.0,0.0,0.0,0.0,0.0,0.0,0.0,0.0,0.0,0.0,0.0,0.0,0.0,0.0,0.0,0.0,0.0,0.0,0.0,0.0,0.0,0.0,0.0,0.0,0.0,0.0,0.0,0.0,0.0,0.0,0.0,-3.9457,-4.3741,-4.6405,-4.7933,-4.8334,-4.7597,-4.5665,-4.1938,-3.6306,0.0,0.0,0.0,0.0,0.0,0.0,0.0,0.0,0.0,0.0,0.0,0.0,0.0,0.0,0.0,0.0,0.0,0.0,0.0,0.0,0.0,0.0,0.0,0.0,0.0,0.0,0.0,0.0,0.0,0.0,0.0,0.0,0.0,0.0,0.0,0.0,0.0,0.0,-2.364,-2.5973,0.0,0.0,0.0,0.0,0.0,0.0,0.0,0.0,-2.7498,0.0,0.0,0.0,0.0,0.0,0.0,0.0,0.0,0.0,0.0,0.0,0.0,0.0,0.0,0.0,0.0,0.0,0.0,0.0,0.0,0.0,0.0,0.0,0.0,0.0,0.0,0.0,0.0,0.0,0.0,0.0,0.0,0.0,0.0,0.0,0.0,0.0,0.0,0.0,0.0,0.0,0.0,0.0,0.0,0.0,0.0,0.0,0.0,0.0,0.0,0.0,0.0,0.0,0.0,0.0,0.0,-3.787,-3.9775,-4.2584,-4.6385,-4.6787,-4.6863,-4.6661,-4.4802,-4.1628,-3.7057,0.0,0.0,0.0,0.0,0.0,0.0,0.0,0.0,0.0,0.0,0.0,0.0,0.0,0.0,0.0,0.0,0.0,0.0,0.0,0.0,0.0,0.0,0.0,0.0,0.0,0.0,0.0,0.0,0.0,0.0,0.0,0.0,0.0,0.0,0.0,0.0,0.0,0.0,0.0,-2.8981,-2.9951,0.0,0.0,0.0,0.0,0.0,0.0,0.0,0.0,-2.7213,0.0,0.0,0.0,0.0,0.0,0.0,0.0,0.0,0.0,0.0,0.0,0.0,0.0,0.0,0.0,0.0,0.0,0.0,0.0,0.0,0.0,0.0,0.0,0.0,0.0,0.0,0.0,0.0,0.0,0.0,0.0,0.0,0.0,0.0,0.0,0.0,0.0,0.0,0.0,0.0,0.0,0.0,0.0,0.0,0.0,0.0,0.0,0.0,0.0,0.0,0.0,0.0,0.0,0.0,0.0,-3.6958,-4.0949,-4.3894,-4.5812,-4.629,-4.6309,-4.5821,-4.3058,-3.9917,0.0,0.0,0.0,0.0,0.0,0.0,0.0,0.0,0.0,0.0,0.0,0.0,0.0,0.0,0.0,0.0,0.0,0.0,0.0,0.0,0.0,0.0,0.0,0.0,0.0,0.0,0.0,0.0,0.0,0.0,0.0,0.0,0.0,0.0,0.0,0.0,0.0,0.0,0.0,0.0,-2.9926,-3.0874,-3.1571,0.0,0.0,0.0,0.0,0.0,0.0,-2.8262,-2.7437,0.0,0.0,0.0,0.0,0.0,0.0,0.0,0.0,0.0,0.0,0.0,0.0,0.0,0.0,0.0,0.0,0.0,0.0,0.0,0.0,0.0,0.0,0.0,0.0,0.0,0.0,0.0,0.0,0.0,0.0,0.0,0.0,0.0,0.0,0.0,0.0,0.0,0.0,0.0,0.0,0.0,0.0,0.0,0.0,0.0,0.0,0.0,0.0,0.0,0.0,0.0,0.0,0.0,0.0,0.0,-3.5381,-4.1282,-4.4689,-4.5288,-4.608,-4.6118,-4.5277,-4.1958,-3.8765,0.0,0.0,0.0,0.0,0.0,0.0,0.0,0.0,0.0,0.0,0.0,0.0,0.0,0.0,0.0,0.0,0.0,0.0,0.0,0.0,0.0,0.0,0.0,0.0,0.0,0.0,0.0,0.0,0.0,0.0,0.0,0.0,0.0,0.0,0.0,0.0,0.0,0.0,0.0,0.0,0.0,-3.1893,-3.2809,-3.1774,0.0,0.0,0.0,0.0,-3.0021,-2.9367,0.0,0.0,0.0,0.0,0.0,0.0,0.0,0.0,0.0,0.0,0.0,0.0,0.0,0.0,0.0,0.0,0.0,0.0,0.0,0.0,0.0,0.0,0.0,0.0,0.0,0.0,0.0,0.0,0.0,0.0,0.0,0.0,0.0,0.0,0.0,0.0,0.0,0.0,0.0,0.0,0.0,0.0,0.0,0.0,0.0,0.0,0.0,0.0,0.0,0.0,0.0,0.0,0.0,0.0,0.0,0.0,-3.5216,-3.8976,-4.2326,-4.5154,-4.608,-4.6118,-4.5316,-4.3201,-3.978,0.0,0.0,0.0,0.0,0.0,0.0,0.0,0.0,0.0,0.0,0.0,0.0,0.0,0.0,0.0,0.0,0.0,0.0,0.0,0.0,0.0,0.0,0.0,0.0,0.0,0.0,0.0,0.0,0.0,0.0,0.0,0.0,0.0,0.0,0.0,0.0,0.0,0.0,0.0,0.0,0.0,-3.3696,-3.1738,-3.1533,-3.1027,0.0,0.0,-3.0825,-3.0922,-3.224,0.0,0.0,0.0,0.0,0.0,0.0,0.0,0.0,0.0,0.0,0.0,0.0,0.0,0.0,0.0,0.0,0.0,0.0,0.0,0.0,0.0,0.0,0.0,0.0,0.0,0.0,0.0,0.0,0.0,0.0,0.0,0.0,0.0,0.0,0.0,0.0,0.0,0.0,0.0,0.0,0.0,0.0,0.0,0.0,0.0,0.0,0.0,0.0,0.0,0.0,0.0,0.0,0.0,0.0,0.0,-3.1482,-3.4634,-4.0258,-4.4086,-4.5908,-4.6328,-4.6347,-4.5984,-4.1392,-3.759,0.0,0.0,0.0,0.0,0.0,0.0,0.0,0.0,0.0,0.0,0.0,0.0,0.0,0.0,0.0,0.0,0.0,0.0,0.0,0.0,0.0,0.0,0.0,0.0,0.0,0.0,0.0,0.0,0.0,0.0,0.0,0.0,0.0,0.0,0.0,0.0,0.0,0.0,0.0,0.0,0.0,0.0,-3.299,-3.302,0.0,0.0,0.0,-3.235,-3.2148,0.0,0.0,0.0,0.0,0.0,0.0,0.0,0.0,0.0,0.0,0.0,0.0,0.0,0.0,0.0,0.0,0.0,0.0,0.0,0.0,0.0,0.0,0.0,0.0,0.0,0.0,0.0,0.0,0.0,0.0,0.0,0.0,0.0,0.0,0.0,0.0,0.0,0.0,0.0,0.0,0.0,0.0,0.0,0.0,0.0,0.0,0.0,0.0,0.0,0.0,0.0,0.0,0.0,0.0,0.0,0.0,0.0,-3.4112,-4.1347,-4.5495,-4.6199,-4.6658,-4.657,-4.5833,-4.0473,0.0,0.0,0.0,0.0,0.0,0.0,0.0,0.0,0.0,0.0,0.0,0.0,0.0,0.0,0.0,0.0,0.0,0.0,0.0,0.0,0.0,0.0,0.0,0.0,0.0,0.0,0.0,-1.9349,0.0,0.0,0.0,0.0,0.0,0.0,0.0,0.0,0.0,0.0,0.0,0.0,0.0,0.0,-3.2984,-3.365,-3.4066,-3.4368,0.0,0.0,-3.3763,-3.3456,-3.3389,-3.2237,0.0,0.0,0.0,0.0,0.0,0.0,0.0,0.0,0.0,0.0,0.0,0.0,0.0,0.0,0.0,0.0,0.0,0.0,0.0,0.0,0.0,0.0,0.0,0.0,0.0,0.0,0.0,0.0,0.0,0.0,0.0,0.0,0.0,0.0,0.0,0.0,0.0,0.0,0.0,0.0,0.0,0.0,0.0,0.0,0.0,0.0,0.0,0.0,0.0,0.0,0.0,0.0,0.0,0.0,0.0,-3.4227,-4.0897,-4.4747,-4.5477,-4.7058,-4.6731,-4.4316,-4.2288,-3.8514,0.0,0.0,0.0,0.0,0.0,0.0,0.0,0.0,0.0,0.0,0.0,0.0,0.0,0.0,0.0,0.0,0.0,0.0,0.0,0.0,0.0,0.0,0.0,0.0,0.0,0.0,0.0,0.0,0.0,0.0,0.0,0.0,0.0,0.0,0.0,0.0,0.0,0.0,0.0,0.0,0.0,-3.3549,-3.2316,-3.3701,-3.5094,0.0,0.0,-3.4797,-3.4774,-3.6423,-3.5628,-2.942,0.0,0.0,0.0,0.0,0.0,0.0,0.0,0.0,0.0,0.0,0.0,0.0,0.0,0.0,0.0,0.0,0.0,0.0,0.0,0.0,0.0,0.0,0.0,0.0,0.0,0.0,0.0,0.0,0.0,0.0,0.0,0.0,0.0,0.0,0.0,0.0,0.0,0.0,0.0,0.0,0.0,0.0,0.0,0.0,0.0,0.0,0.0,0.0,0.0,0.0,0.0,0.0,0.0,-3.1092,-3.4131,-4.0795,-4.4882,-4.6167,-4.6838,-4.6464,-4.494,-4.2286,-3.8472,0.0,0.0,0.0,0.0,0.0,0.0,0.0,0.0,0.0,0.0,0.0,0.0,0.0,0.0,0.0,0.0,0.0,0.0,0.0,0.0,0.0,0.0,0.0,0.0,0.0,0.0,0.0,0.0,-2.0637,-2.0393,-1.9689,0.0,0.0,0.0,0.0,0.0,0.0,0.0,0.0,0.0,0.0,-3.3379,-3.443,-3.5621,0.0,0.0,-3.6738,-3.6092,-3.5644,-3.5528,-3.4021,-2.9715,-2.7694,0.0,0.0,0.0,0.0,0.0,0.0,0.0,0.0,0.0,0.0,0.0,0.0,0.0,0.0,0.0,0.0,0.0,0.0,0.0,0.0,0.0,0.0,0.0,0.0,0.0,0.0,0.0,0.0,0.0,0.0,0.0,0.0,0.0,0.0,0.0,0.0,0.0,0.0,0.0,0.0,0.0,0.0,0.0,0.0,0.0,0.0,0.0,0.0,0.0,0.0,0.0,0.0,-3.1034,-3.4133,-4.0792,-4.4929,-4.635,-4.6628,-4.611,-4.4671,-4.2148,-3.8742,0.0,0.0,0.0,0.0,0.0,0.0,0.0,0.0,0.0,0.0,0.0,0.0,0.0,0.0,0.0,0.0,0.0,0.0,0.0,0.0,0.0,0.0,0.0,0.0,0.0,0.0,0.0,0.0,-2.0694,-2.035,-1.9587,0.0,0.0,0.0,0.0,0.0,0.0,0.0,0.0,0.0,0.0,-3.3496,-3.5302,-3.6146,-3.6729,-3.7152,-3.6589,-3.586,-3.5114,-3.4319,-3.2729,-2.9599,0.0,0.0,0.0,0.0,0.0,0.0,0.0,0.0,0.0,0.0,0.0,0.0,0.0,0.0,0.0,0.0,0.0,0.0,0.0,0.0,0.0,0.0,0.0,0.0,0.0,0.0,0.0,0.0,0.0,0.0,-2.4336,0.0,0.0,0.0,0.0,0.0,0.0,0.0,0.0,0.0,0.0,0.0,0.0,0.0,0.0,0.0,0.0,0.0,0.0,0.0,0.0,0.0,0.0,-3.1635,-3.4257,-4.0873,-4.4739,-4.5624,-4.6451,-4.5675,-4.3199,-4.2162,-3.9679,-3.5431,0.0,0.0,0.0,0.0,0.0,0.0,0.0,0.0,0.0,0.0,0.0,0.0,0.0,0.0,0.0,0.0,0.0,0.0,0.0,0.0,0.0,0.0,0.0,0.0,0.0,0.0,-1.9296,-1.9453,-1.958,0.0,0.0,0.0,0.0,0.0,0.0,0.0,0.0,0.0,0.0,-3.1779,-3.4035,-3.4062,-3.4579,-3.5072,-3.5065,-3.4419,-3.368,-3.3017,-3.3365,-3.2564,0.0,0.0,0.0,0.0,0.0,0.0,0.0,0.0,0.0,0.0,0.0,0.0,0.0,0.0,0.0,0.0,0.0,0.0,0.0,0.0,0.0,0.0,0.0,0.0,0.0,0.0,0.0,-3.0137,-2.832,0.0,0.0,0.0,0.0,0.0,0.0,0.0,0.0,0.0,0.0,0.0,-3.6833,-3.678,0.0,0.0,0.0,0.0,0.0,0.0,0.0,0.0,0.0,0.0,0.0,0.0,-3.2212,-3.5911,-4.0912,-4.4182,-4.5556,-4.5883,-4.5336,-4.3895,-4.3049,-4.0033,-3.4577,0.0,0.0,0.0,0.0,0.0,0.0,0.0,0.0,0.0,0.0,0.0,0.0,0.0,0.0,0.0,0.0,0.0,0.0,0.0,0.0,0.0,0.0,0.0,0.0,0.0,-2.0147,0.0,0.0,0.0,0.0,0.0,0.0,0.0,0.0,0.0,0.0,0.0,-2.6556,-2.907,-3.1334,-3.3031,-3.3771,-3.4951,-3.5915,0.0,0.0,0.0,0.0,0.0,0.0,0.0,0.0,0.0,0.0,0.0,0.0,0.0,0.0,-2.829,-2.5289,-2.4603,-2.4596,-2.4936,0.0,0.0,0.0,0.0,0.0,0.0,0.0,0.0,0.0,0.0,0.0,0.0,0.0,0.0,-3.4408,0.0,-3.2519,0.0,0.0,0.0,0.0,0.0,0.0,0.0,0.0,-3.8117,-4.034,-4.1662,-4.1325,-4.0711,0.0,-3.8135,-3.3743,0.0,0.0,0.0,0.0,0.0,0.0,0.0,0.0,-3.2769,-3.668,-4.0931,-4.3912,-4.5518,-4.5594,-4.5056,-4.3912,-4.2508,-3.9615,-3.5002,-3.1059,-2.8332,0.0,0.0,0.0,0.0,0.0,0.0,0.0,0.0,0.0,0.0,0.0,0.0,0.0,0.0,0.0,0.0,0.0,0.0,0.0,0.0,0.0,0.0,0.0,-2.0318,0.0,0.0,0.0,0.0,0.0,0.0,0.0,0.0,0.0,-2.4525,-2.6099,-2.8025,-3.0303,-3.1903,-3.2949,-3.3156,0.0,0.0,0.0,0.0,0.0,0.0,0.0,-3.1383,-3.0675,-3.0824,-3.1255,-3.1934,-3.2829,-3.3375,-3.3133,0.0,0.0,-2.8178,-2.7155,-2.7015,-2.7347,-2.7518,-2.7597,-2.7696,-2.84,-2.8981,0.0,0.0,0.0,0.0,0.0,0.0,0.0,0.0,-3.9441,-3.9154,0.0,-3.8081,0.0,0.0,0.0,0.0,0.0,-3.5722,0.0,0.0,-4.423,-4.5906,-4.5129,-4.427,-4.3411,-4.263,-4.2474,-3.9809,-3.4907,-3.1472,0.0,0.0,0.0,0.0,0.0,0.0,-3.3487,-3.6865,-4.0989,-4.3893,-4.5479,-4.5518,-4.4729,-4.3066,-4.0669,-3.8577,-3.6772,-3.4845,-3.2355,-2.9058,-2.6344,0.0,0.0,0.0,0.0,0.0,0.0,0.0,0.0,0.0,0.0,0.0,0.0,0.0,0.0,0.0,0.0,0.0,0.0,0.0,0.0,-2.0373,0.0,0.0,0.0,0.0,0.0,0.0,0.0,0.0,0.0,0.0,-2.6826,-2.8721,-3.0632,-3.2073,0.0,0.0,0.0,0.0,-3.35,-3.2083,-3.2381,-3.263,-3.1979,-3.2928,-3.3475,-3.2868,0.0,0.0,-3.5098,-3.4982,-3.475,-3.4087,-3.5033,-3.5152,-3.2472,-3.0927,-3.0009,-2.9595,-2.948,-2.9459,-2.9699,-3.0099,-3.0525,-4.6167,0.0,0.0,0.0,0.0,-4.1009,-4.2471,-4.5323,-4.4293,-4.3663,-4.3234,-4.1601,0.0,0.0,0.0,0.0,0.0,0.0,-4.041,-4.275,-4.5794,-4.7742,-4.8613,-4.7748,-4.7217,-4.6905,-4.5129,-4.3486,-4.1977,-3.9683,-3.4763,-2.7411,0.0,0.0,0.0,0.0,-3.6642,-3.9373,-4.1854,-4.3624,-4.4671,-4.4105,-4.3278,-4.2192,-4.0873,-3.9339,-3.759,-3.5887,-3.388,-3.1519,-2.8977,0.0,0.0,0.0,0.0,0.0,0.0,0.0,0.0,0.0,0.0,0.0,0.0,0.0,0.0,0.0,0.0,0.0,0.0,0.0,-2.1025,-2.1676,-2.1996,0.0,0.0,0.0,0.0,0.0,0.0,0.0,0.0,0.0,-3.0448,-3.0328,-3.061,0.0,0.0,-3.1967,-3.1997,-3.3139,-3.4216,-3.4808,-3.4963,0.0,0.0,-3.4104,-3.3315,-3.4121,-3.5247,-3.6274,-3.7119,-3.682,-3.6572,-3.6828,-3.6483,-3.5864,-3.5172,-3.4313,-3.3552,-3.3005,-3.2555,-3.2299,-3.2377,-3.2735,-3.301,-5.1099,-4.7637,-4.4949,-4.4388,-4.5246,-4.4789,-4.6138,-4.8619,-4.7849,-4.7422,-4.7193,-4.5543,-4.356,-4.1373,-3.9394,0.0,0.0,0.0,-4.3828,-4.6346,-4.7865,-4.9306,-5.049,-4.937,-4.8798,-4.8701,-4.6554,-4.5343,-4.4971,-4.3546,-3.9433,-3.2885,0.0,0.0,-3.2506,-3.5603,-3.8488,-4.0931,-4.2393,-4.347,-4.4259,-4.3181,-4.2335,-4.1788,-4.0642,-3.9365,-3.7997,-3.663,-3.5047,-3.3207,-3.1035,-2.867,0.0,0.0,0.0,0.0,0.0,0.0,0.0,0.0,0.0,0.0,0.0,-1.8309,-1.6573,0.0,0.0,0.0,-2.0641,-2.1552,-2.2781,-2.3324,0.0,0.0,0.0,0.0,0.0,0.0,0.0,-2.6928,-2.8925,-3.0804,-3.2107,-3.2036,-3.2151,-3.2934,-3.266,-3.2496,-3.2835,0.0,-3.5245,-3.5998,-3.6307,-3.6489,-3.6622,-3.5429,-3.475,-3.5611,-3.639,-3.7119,-3.798,-3.7805,-3.7737,-3.8011,-3.7552,-3.6874,-3.6374,-3.5991,-3.5424,-3.4534,-3.4122,-3.3904,-3.3873,-3.4271,-3.4572,-5.4871,-5.4445,-5.0461,-4.8759,-4.8701,-4.8624,-4.9475,-5.0817,-5.017,-5.0337,-5.0957,-4.9386,-4.777,-4.6087,-4.3846,0.0,-4.5449,-4.625,-4.791,-5.0291,-5.0228,-5.0634,-5.1312,-4.9604,-4.8798,-4.8759,-4.71,-4.589,-4.5109,-4.4309,-4.2598,-4.0106,-3.8313,-3.6859,-3.5854,-3.7437,-3.9469,-4.175,-4.2585,-4.3316,-4.3951,-4.2508,-4.1673,-4.1558,-4.0104,-3.8854,-3.7911,-3.7135,-3.5895,-3.416,-3.2562,-3.0535,-2.7975,0.0,0.0,0.0,0.0,0.0,0.0,0.0,0.0,0.0,0.0,0.0,0.0,0.0,0.0,0.0,-2.3684,0.0,-2.5226,-2.528,0.0,0.0,0.0,-2.6273,-2.6894,-2.8553,-2.9554,-2.93,0.0,0.0,-3.2547,-3.3766,-3.4624,-3.4742,-3.4607,-3.4435,-3.4248,-3.5358,-3.6233,-3.6025,-3.6622,-3.687,-3.6357,-3.6638,-3.6936,-3.6854,-3.7682,-3.8103,-3.8091,-3.8091,-3.8109,-3.816,-3.8222,-3.7876,-3.6692,-3.6446,-3.5999,-3.4828,-3.4607,-3.4593,-3.4577,-3.4897,-3.5187,-5.5374,-5.4658,-5.2995,-5.1892,-5.1235,-5.0596,-5.0531,-5.0879,-5.0724,-5.0739,-5.087,-4.9949,-4.898,-4.8016,-4.7442,-4.7838,-4.8965,-4.916,-4.9922,-5.1092,-5.1088,-5.12,-5.1312,-4.9623,-4.8798,-4.8701,-4.71,-4.6204,-4.5987,-4.5792,-4.4662,-4.276,-4.224,-4.0518,-3.7762,-3.9786,-4.12,-4.1797,-4.2,-4.1893,-4.1393,-4.0997,-4.0516,-3.9912,-3.9515,-3.8565,-3.7077,-3.6825,-3.59,-3.4169,-3.3091,-3.1606,-2.9684,-2.6236,0.0,0.0,0.0,0.0,0.0,0.0,0.0,0.0,0.0,-2.1914,-1.8647,0.0,-2.2758,0.0,-2.5085,-2.6874,-2.7658,-2.7731,0.0,0.0,-2.9283,-2.9437,-3.0756,-3.1331,-3.1594,-3.1515,-3.2459,-3.3575,-3.4675,-3.5109,-3.5752,-3.6874,-3.5571,-3.4445,-3.4342,-3.4952,-3.5656,-3.613,-3.6688,-3.7036,-3.692,-3.7466,-3.7533,-3.6439,-3.735,-3.8022,-3.7519,-3.7422,-3.7501,-3.7575,-3.7618,-3.7472,-3.7161,-3.6753,-3.6338,-3.5968,-3.5593,-3.5265,-3.5265,-3.5367,-3.5374,-5.5741,-5.5277,-5.4426,-5.3362,-5.2132,-5.1273,-5.0898,-5.0898,-5.0898,-5.0898,-5.0867,-5.0465,-5.0087,-4.9765,-4.9783,-5.0139,-5.0678,-5.0722,-5.0976,-5.1386,-5.1384,-5.1205,-5.0812,-4.9497,-4.8654,-4.8224,-4.6913,-4.6306,-4.6306,-4.6303,-4.5783,-4.4799,-4.4361,-4.2949,-4.0742,-4.1074,-4.1462,-4.1797,-4.1412,-4.0977,-4.0535,-4.0496,-3.9938,-3.8777,-3.8334,-3.7334,-3.5661,-3.4852,-3.4005,-3.3031,-3.1794,-3.049,-2.9123,-2.6637,-2.4597,0.0,0.0,0.0,0.0,0.0,0.0,0.0,0.0,0.0,0.0,0.0,-2.4866,-2.5479,-2.7694,-2.9395,-3.0186,-3.0545,-3.1256,-3.2469,-3.1904,-3.2091,-3.3634,-3.3493,-3.3529,-3.4223,-3.468,-3.5334,-3.6462,-3.6901,-3.7297,-3.7838,-3.7094,-3.632,-3.5919,-3.6065,-3.6348,-3.6653,-3.6912,-3.7119,-3.7119,-3.745,-3.7424,-3.6762,-3.7185,-3.7616,-3.7258,-3.6982,-3.6823,-3.6944,-3.6951,-3.6845,-3.66,-3.6305,-3.599,-3.5926,-3.5733,-3.5537,-3.5489,-3.5489,-3.5472,-5.6003,-5.5935,-5.5122,-5.3865,-5.2298,-5.1447,-5.0879,-5.0589,-5.0589,-5.0627,-5.0763,-5.0859,-5.0969,-5.1111,-5.118,-5.1242,-5.1299,-5.1364,-5.1387,-5.1387,-5.1288,-5.0877,-5.0174,-4.9213,-4.8331,-4.757,-4.6706,-4.6294,-4.6293,-4.6306,-4.6184,-4.5947,-4.5086,-4.4196,-4.3231,-4.1471,-4.0881,-4.1482,-4.0735,-4.0342,-4.0342,-4.0227,-3.9381,-3.7757,-3.6942,-3.5699,-3.3955,-3.2583,-3.1718,-3.1418,-3.0107,-2.8919,-2.8058,-2.6656,-2.5086,0.0,-2.2641,0.0,0.0,0.0,0.0,0.0,0.0,0.0,0.0,-2.7574,-2.7944,-2.9381,-3.0805,-3.1947,-3.2674,-3.3314,-3.4027,-3.4775,-3.4194,-3.4283,-3.569,-3.527,-3.5328,-3.6712,-3.6903,-3.7195,-3.7922,-3.8616,-3.8734,-3.8413,-3.8684,-3.8608,-3.7964,-3.7472,-3.7216,-3.7295,-3.7095,-3.687,-3.692,-3.7036,-3.7135,-3.7118,-3.7416,-3.7394,-3.7231,-3.691,-3.6589,-3.6461,-3.6461,-3.6227,-3.5619,-3.5522,-3.5522,-3.5522,-3.5537,-3.5489,-3.5489,-3.5489,-3.5489,-5.6003,-5.5915,-5.5142,-5.4194,-5.3188,-5.2318,-5.079,-4.8875,-4.8856,-4.9262,-4.997,-5.0608,-5.0969,-5.1105,-5.1161,-5.1245,-5.1299,-5.1364,-5.1387,-5.1367,-5.0741,-5.035,-5.0096,-4.8568,-4.7765,-4.755,-4.6711,-4.6297,-4.6293,-4.6291,-4.5586,-4.4211,-4.3989,-4.3088,-4.1523,0.0,0.0,0.0,-3.9644,-3.9534,-3.9488,-3.8834,-3.768,-3.6038,-3.5827,0.0,-3.2333,-3.2487,-3.2025,-3.0738,-3.0919,0.0,0.0,0.0,0.0,0.0,0.0,0.0,0.0,0.0,0.0,0.0,-3.0565,-2.9512,-2.8895,-3.0381,-3.1759,-3.2648,-3.3526,-3.4345,-3.5072,-3.5258,-3.5657,-3.6419,-3.5776,-3.5765,-3.6965,-3.6682,-3.6627,-3.7195,-3.7495,-3.7956,-3.8633,-3.892,-3.9174,-3.9554,-3.9808,-3.958,-3.8862,-3.766,-3.6978,-3.7153,-3.6771,-3.6257,-3.6208,-3.6771,-3.7185,-3.7226,-3.8176,-3.8335,-3.748,-3.7604,-3.7441,-3.6631,-3.6399,-3.6196,-3.5619,-3.5489,-3.5489,-3.5489,-3.5489,-3.5489,-3.5489,-3.5489,-3.5489,-5.6003,0.0,-5.5567,-5.4658,0.0,-5.2577,-5.0983,-4.9068,-4.9455,-4.9873,-5.0326,-5.0724,-5.0944,-5.0972,-5.0653,-5.0544,-5.0578,-5.0274,-5.0369,-5.0762,-4.9941,-4.957,-4.9531,-4.8221,-4.738,-4.6951,-4.652,-4.6304,-4.6282,-4.5867,-4.5198,-4.4315,-4.3491,-4.2602,-4.17,-4.0797,-4.0027,-3.9392,-3.9367,-3.9531,-3.9842,-3.9457,-3.843,-3.6808,0.0,0.0,0.0,0.0,0.0,0.0,0.0,0.0,0.0,0.0,0.0,-3.0101,-3.0449,-3.114,-3.2173,-3.2415,-3.3168,-3.4692,-3.4576,-3.355,-3.1518,-3.323,-3.4659,-3.536,-3.5742,-3.623,-3.6935,-3.7011,-3.7142,-3.7505,-3.6988,-3.6858,-3.7323,-3.6928,-3.6786,-3.733,-3.7677,-3.8176,-3.8886,-3.9343,-3.9673,-4.0045,-4.0096,-3.996,-3.9512,-3.8484,-3.7674,-3.7378,-3.692,-3.6688,-3.7052,-3.735,-3.7798,-3.8153,-3.8546,-3.8367,-3.7459,-3.7337,-3.7025,-3.6164,-3.5941,-3.5829,-3.5587,-3.5489,-3.5489,-3.5489,-3.5489,-3.5489,-3.5489,-3.5489,-3.5489,-5.6003,-5.6003,-5.6003,-5.5122,-5.3672,-5.2956,-5.1699,-5.0171,0.0,0.0,0.0,-5.084,-5.0898,-5.0856,-5.0287,-5.0067,-5.0049,-4.934,-4.9499,-5.0331,-4.9199,-4.875,-4.8848,-4.7851,-4.6992,-4.6308,-4.6288,-4.6209,-4.6033,-4.5344,-4.483,-4.4436,-4.3103,-4.2339,-4.2141,-4.1403,-4.0579,-3.973,-3.9505,-3.9696,-4.0272,-4.0146,-3.9323,-3.7815,-3.7084,-3.5846,-3.4032,-3.2795,-3.2006,-3.1712,-3.1129,-3.081,-3.0765,-3.0879,-3.1305,-3.2129,-3.2936,-3.4029,-3.5524,-3.5987,-3.6466,-3.7091,-3.7483,-3.678,-3.461,-3.5844,-3.6919,-3.7485,-3.7445,-3.7674,-3.8249,-3.8274,-3.8224,-3.8207,-3.7827,-3.7542,-3.7578,-3.702,-3.6911,-3.7435,-3.782,-3.8255,-3.8928,-3.9486,-3.9977,-4.0079,-4.0113,-4.0113,-4.0003,-3.9412,-3.8538,-3.7602,-3.737,-3.7593,-3.8074,-3.8197,-3.852,-3.905,-3.8821,-3.8266,-3.7663,-3.7101,-3.6492,-3.5925,-3.5683,-3.5651,-3.5522,-3.5489,-3.5489,-3.5489,-3.5489,-3.5489,-3.5489,-3.5489,-3.5489,-5.6003,-5.6003,-5.6003,-5.547,-5.46,-5.4484,-5.344,-5.1765,-5.0461,-4.9881,-4.9919,-5.0608,-5.0898,-5.0906,-5.0927,-5.0917,-5.0886,-5.0157,-5.0303,0.0,-4.8826,-4.8183,-4.8789,-4.7246,-4.6426,-4.6308,-4.6289,-4.5918,-4.5252,-4.5056,-4.4271,-4.2916,-4.2523,-4.2013,-4.1343,-4.1143,-4.0979,-4.0749,-3.9858,-3.945,-3.9528,-3.8753,-3.7892,-3.6942,-3.6808,-3.5545,-3.3199,-3.3583,-3.3186,-3.1814,-3.2244,-3.2551,-3.2564,-3.3154,-3.3857,-3.473,-3.5531,-3.6702,-3.8278,-3.8277,-3.835,-3.871,-3.8612,-3.8083,-3.7125,-3.7826,-3.8349,-3.8345,-3.8274,-3.8334,-3.8382,-3.8368,-3.8354,-3.8274,-3.7933,-3.7792,-3.8038,-3.7852,-3.7708,-3.7807,-3.8213,-3.8476,-3.879,-3.9056,-3.9428,-3.9926,-4.0062,-4.0113,-4.007,-3.9902,-3.916,-3.8101,-3.8078,-3.8388,-3.8538,-3.8453,-3.8752,-3.9342,-3.9299,-3.8854,-3.8113,-3.7933,-3.744,-3.643,-3.6196,-3.6022,-3.5604,-3.5489,-3.5489,-3.5489,-3.5489,-3.5489,-3.5444,-3.5429,-3.5459,-5.6003,-5.6003,-5.6003,-5.5791,-5.5393,-5.4484,-5.339,-5.2132,-5.0887,-5.0357,-5.0376,-5.0743,-5.0898,-5.0867,-5.0497,-5.0352,-5.0361,-4.9551,-4.9442,-4.9753,-4.8266,-4.7769,-4.8047,-4.6894,-4.6289,-4.6289,-4.6289,-4.584,-4.5019,-4.453,-4.3649,-4.2435,-4.1942,-4.1486,-4.1129,-4.1109,-4.1081,-4.1059,-4.054,-4.0228,-4.01,-3.9689,-3.9236,-3.8765,-3.8354,-3.7584,-3.6418,-3.5834,-3.5411,-3.5122,-3.5012,-3.5146,-3.5605,-3.5929,-3.6273,-3.6651,-3.7413,-3.819,-3.8935,-3.9201,-3.9244,-3.9119,-3.8993,-3.8704,-3.819,-3.8469,-3.8643,-3.8525,-3.851,-3.8478,-3.8399,-3.8399,-3.8401,-3.8352,-3.8154,-3.8088,-3.8175,-3.7918,-3.7627,-3.7479,-3.7696,-3.7876,-3.7807,-3.8481,-3.9073,-3.9478,-3.9808,-4.0079,-4.0096,-4.002,-3.9784,-3.9059,-3.9059,-3.9167,-3.9175,-3.9149,-3.9239,-3.9494,-3.9448,-3.8939,-3.8072,-3.797,-3.7556,-3.6242,-3.6122,-3.6117,-3.5604,-3.5489,-3.5489,-3.5489,-3.5489,-3.54,-3.5085,-3.4936,-3.507,-5.6003,-5.6003,-5.6003,-5.6003,-5.5838,-5.4213,-5.3111,-5.2414,-5.1362,-5.0898,-5.0898,-5.0898,-5.0898,-5.084,-5.0241,-4.9998,-4.9892,-4.8965,-4.8662,-4.8814,-4.7721,-4.73,-4.7459,-4.6698,-4.6269,-4.6269,-4.6113,-4.5566,-4.4687,-4.3827,-4.2966,-4.2125,-4.1415,-4.1114,-4.1109,-4.1109,-4.1109,-4.1108,-4.1057,-4.0956,-4.0768,-4.0754,-4.0675,-4.0526,-3.9952,-3.9514,-3.9246,-3.8007,-3.7507,-3.793,-3.7353,-3.7281,-3.7847,-3.7905,-3.7934,-3.8123,-3.8665,-3.9097,-3.9308,-3.9658,-3.9693,-3.9232,-3.9124,-3.8974,-3.8753,-3.8707,-3.8658,-3.8575,-3.8559,-3.8528,-3.8481,-3.8465,-3.8465,-3.8415,-3.8352,-3.8305,-3.8256,-3.7897,-3.7487,-3.7164,-3.7184,-3.7193,-3.7189,-3.7824,-3.8481,-3.8768,-3.9242,-3.9622,-3.9808,-3.9859,-3.9842,-3.9927,-3.9858,-3.9756,-3.9764,-3.9722,-3.9603,-3.9423,-3.9244,-3.852,-3.7568,-3.7469,-3.7174,-3.5769,-3.5904,-3.6061,-3.5619,-3.561,-3.5653,-3.5587,-3.5489,-3.5295,-3.4713,-3.4726,-3.4861,-5.6003,-5.6003,-5.6003,-5.6003,-5.5818,-5.4233,-5.3459,-5.313,-5.1641,-5.0898,-5.0898,-5.0898,-5.0898,-5.0879,-5.0801,-5.0759,-5.0646,-4.9194,-4.8916,-4.9308,-4.7284,-4.6671,-4.7359,-4.6599,-4.622,-4.6191,-4.5566,-4.4824,-4.3887,-4.2948,-4.2086,-4.1297,-4.1133,-4.1109,-4.1109,-4.1109,-4.1109,-4.1109,-4.1106,-4.1042,-4.0974,-4.0842,-4.0765,-4.0681,-4.0617,-4.0159,-3.9395,-3.915,-3.8719,-3.8084,-3.795,-3.793,-3.8,-3.797,-3.8231,-3.892,-3.907,-3.939,-4.0072,-4.0,-3.9773,-3.9489,-3.9245,-3.8989,-3.8735,-3.8707,-3.8707,-3.8673,-3.8673,-3.8658,-3.8658,-3.8658,-3.8609,-3.8494,-3.843,-3.8387,-3.8289,-3.8207,-3.795,-3.7505,-3.7198,-3.7047,-3.7189,-3.7234,-3.7371,-3.8058,-3.8261,-3.8531,-3.8988,-3.9089,-3.9292,-3.9817,-4.0011,-3.9995,-3.9952,-3.9961,-3.9522,-3.9001,-3.8656,-3.798,-3.7075,-3.6512,-3.6038,-3.5843,-3.5807,-3.6027,-3.5706,-3.5784,-3.601,-3.5446,-3.5269,-3.522,-3.4758,-3.4801,-3.5175,-5.6467,-5.6003,-5.6003,-5.6003,-5.581,-5.4755,-5.3962,-5.3362,-5.2202,-5.1389,-5.0937,-5.0898,-5.0898,-5.0898,-5.0898,-5.0898,-5.0809,-4.9727,-4.9123,-4.8924,-4.7442,-4.6734,-4.6627,-4.6368,-4.621,-4.6241,-4.5917,-4.5039,-4.3672,-4.2304,-4.1442,-4.1143,-4.1099,-4.1112,-4.1109,-4.1109,-4.1109,-4.1109,-4.1109,-4.1081,-4.1042,-4.0964,-4.0846,-4.077,-4.0717,-4.0539,-4.0113,-3.9605,-3.9361,-3.9419,-3.9034,-3.8977,-3.945,-3.945,-3.9564,-3.984,-3.9828,-3.9947,-4.0263,-4.0186,-4.0017,-3.9751,-3.9483,-3.9219,-3.8964,-3.881,-3.8707,-3.8707,-3.8707,-3.8707,-3.8707,-3.8707,-3.8692,-3.859,-3.8528,-3.843,-3.8368,-3.8289,-3.8088,-3.7596,-3.734,-3.7085,-3.6842,-3.6785,-3.7123,-3.7719,-3.7905,-3.799,-3.8311,-3.8345,-3.8464,-3.8717,-3.8802,-3.9005,-3.9326,-3.942,-3.9007,-3.8386,-3.8077,-3.7611,-3.7101,-3.6865,-3.6591,-3.5846,-3.6021,-3.5935,-3.5355,-3.5395,-3.5498,-3.5034,-3.4464,-3.4203,-3.3948,-3.4113,-3.4292,-5.6594,-5.6042,-5.6003,-5.6003,-5.5935,-5.5142,-5.4291,-5.342,-5.2577,-5.1718,-5.0937,-5.0898,-5.0898,-5.0898,-5.0898,-5.0801,-5.0473,-4.9726,-4.8914,-4.8069,-4.7227,-4.6532,-4.6088,-4.6122,-4.616,-4.6165,-4.5969,-4.5,-4.334,-4.1874,-4.111,-4.1107,-4.1102,-4.1116,-4.1112,-4.1109,-4.1109,-4.1109,-4.1109,-4.1109,-4.1085,-4.1059,-4.0968,-4.087,-4.0801,-4.0746,-4.0681,-4.0042,-3.9926,-4.0439,-3.9938,-3.9881,-4.0458,-4.0503,-4.0474,-4.0407,-4.0336,-4.032,-4.032,-4.032,-4.0186,-3.9924,-3.9717,-3.9464,-3.9137,-3.8906,-3.8762,-3.8707,-3.8707,-3.8707,-3.8707,-3.8707,-3.8707,-3.8692,-3.8593,-3.8478,-3.8399,-3.8338,-3.8156,-3.7756,-3.745,-3.7018,-3.6353,-3.6321,-3.6637,-3.7036,-3.7205,-3.7415,-3.755,-3.7601,-3.7669,-3.7855,-3.7939,-3.8142,-3.8599,-3.87,-3.8314,-3.7759,-3.74,-3.7237,-3.6909,-3.6777,-3.6662,-3.5551,-3.5883,-3.5898,-3.5366,-3.5189,-3.5228,-3.4643,-3.4147,-3.3713,-3.3562,-3.3532,-3.3335,-5.6026,-5.6003,-5.6003,-5.6003,-5.5935,-5.518,-5.431,-5.344,-5.2608,-5.1738,-5.0956,-5.0898,-5.0898,-5.0898,-5.0898,-5.048,-4.9726,-4.8933,-4.807,-4.7221,-4.6324,-4.5932,-4.6002,-4.6017,-4.6092,-4.611,-4.5517,-4.4287,-4.2616,-4.158,-4.111,-4.1108,-4.1102,-4.1099,-4.1116,-4.1112,-4.1109,-4.1109,-4.1109,-4.1109,-4.1109,-4.1106,-4.1044,-4.0994,-4.0981,-4.0885,-4.0742,-4.0655,-4.059,-4.0504,-4.0427,-4.0446,-4.0496,-4.0489,-4.0487,-4.0396,-4.0353,-4.0318,-4.032,-4.032,-4.0186,-3.9956,-3.9892,-3.967,-3.9251,-3.9087,-3.895,-3.8719,-3.8723,-3.8707,-3.8707,-3.8707,-3.8707,-3.8692,-3.8593,-3.8478,-3.8415,-3.837,-3.8274,-3.8054,-3.745,-3.6724,-3.5849,-3.5639,-3.5752,-3.5853,-3.5802,-3.6039,-3.6671,-3.6846,-3.7077,-3.7516,-3.7736,-3.7865,-3.7939,-3.7956,-3.7618,-3.7047,-3.6639,-3.6518,-3.5923,-3.5461,-3.5365,-3.5414,-3.5735,-3.5736,-3.536,-3.5256,-3.5363,-3.5019,-3.4485,-3.4075,-3.3293,-3.3411,-3.3156,-5.6451,-5.6003,-5.6003,-5.6003,-5.5973,-5.5683,-5.4793,-5.3517,-5.3169,-5.2221,-5.1053,-5.0898,-5.0898,-5.0898,-5.0898,-5.0453,-4.9649,-4.8798,-4.7927,-4.7057,-4.6213,-4.5815,-4.5867,-4.5964,-4.6013,-4.6025,-4.5784,-4.4816,-4.3174,-4.1777,-4.1111,-4.111,-4.1106,-4.1102,-4.1099,-4.1116,-4.1114,-4.1109,-4.1109,-4.1109,-4.1109,-4.1109,-4.1101,-4.1066,-4.1014,-4.0967,-4.0889,-4.0791,-4.0721,-4.0629,-4.0622,-4.0581,-4.0504,-4.0503,-4.0491,-4.0477,-4.037,-4.0317,-4.0318,-4.032,-4.0263,-4.0166,-3.9996,-3.9829,-3.9611,-3.9311,-3.9059,-3.895,-3.878,-3.8707,-3.8707,-3.8707,-3.8707,-3.8692,-3.8658,-3.8593,-3.8478,-3.8417,-3.8338,-3.8156,-3.7468,-3.6761,-3.6374,-3.5963,-3.5622,-3.5616,-3.5616,-3.5752,-3.5943,-3.6045,-3.6231,-3.6343,-3.6411,-3.6428,-3.6411,-3.6907,-3.6941,-3.636,-3.5977,-3.6194,-3.5912,-3.5553,-3.5455,-3.5585,-3.5811,-3.5533,-3.5128,-3.4834,-3.5027,-3.4828,-3.4315,-3.3911,-3.2959,-3.3184,-3.2714,-5.6463,-5.5998,-5.5977,-5.6005,-5.6005,-5.6003,-5.5064,-5.3594,-5.3478,-5.2531,-5.1111,-5.0898,-5.0898,-5.0898,-5.0898,-5.0279,-4.932,-4.8643,-4.7773,-4.6689,-4.6058,-4.5807,-4.5821,-4.5905,-4.5964,-4.5934,-4.5749,-4.4941,-4.3603,-4.2182,-4.1406,-4.1151,-4.111,-4.1108,-4.1104,-4.11,-4.1116,-4.1112,-4.1111,-4.1109,-4.1109,-4.1109,-4.1109,-4.1087,-4.1061,-4.1011,-4.0994,-4.0922,-4.0796,-4.0724,-4.0713,-4.0636,-4.0531,-4.0503,-4.0499,-4.0474,-4.0407,-4.0316,-4.0326,-4.0319,-4.0301,-4.0282,-4.0147,-4.0007,-3.9892,-3.9502,-3.9232,-3.9073,-3.8866,-3.8707,-3.8707,-3.8707,-3.8707,-3.8707,-3.8707,-3.8624,-3.851,-3.8462,-3.8336,-3.8053,-3.7541,-3.7055,-3.6719,-3.6178,-3.5844,-3.5644,-3.5616,-3.5616,-3.5616,-3.5616,-3.5616,-3.5616,-3.5701,-3.5752,-3.5819,-3.6231,-3.6417,-3.5921,-3.5752,-3.5937,-3.5975,-3.5689,-3.5603,-3.5793,-3.5642,-3.5278,-3.4923,-3.4594,-3.444,-3.4357,-3.4198,-3.3927,-3.3363,-3.3017,-3.255,-5.5914,-5.5914,-5.5971,-5.5999,-5.5989,-5.5909,-5.5006,-5.3652,-5.342,-5.2434,-5.0995,-5.0898,-5.0898,-5.0898,-5.0801,-4.997,-4.8701,-4.8333,-4.7424,-4.6,-4.5845,-4.5807,-4.5807,-4.5821,-4.5886,-4.5928,-4.5196,-4.4465,-4.3669,-4.2687,-4.1864,-4.1328,-4.1171,-4.1111,-4.1111,-4.1104,-4.1099,-4.1116,-4.1112,-4.1109,-4.1109,-4.1109,-4.1109,-4.1109,-4.1106,-4.1068,-4.1,-4.0994,-4.091,-4.0734,-4.0712,-4.0636,-4.0527,-4.0489,-4.0492,-4.0491,-4.0422,-4.037,-4.0316,-4.0319,-4.031,-4.0301,-4.0301,-4.0166,-3.9946,-3.9682,-3.9414,-3.9151,-3.8906,-3.8723,-3.8707,-3.8707,-3.8707,-3.8707,-3.8707,-3.8658,-3.8541,-3.8491,-3.8316,-3.7897,-3.7578,-3.7152,-3.6597,-3.628,-3.6088,-3.58,-3.5644,-3.5616,-3.5616,-3.5616,-3.5616,-3.5616,-3.5616,-3.5616,-3.5616,-3.5633,-3.565,-3.5616,-3.5633,-3.5729,-3.5763,-3.5588,-3.556,-3.5669,-3.5569,-3.5198,-3.5065,-3.4804,-3.478,-3.4651,-3.4389,-3.4053,-3.3562,-3.3099,-3.2631,-5.5643,-5.5895,-5.5914,-5.5962,-5.5913,-5.5371,-5.4469,-5.3478,-5.2906,-5.195,-5.1033,-5.0898,-5.0898,-5.0763,-5.0337,-4.9455,-4.8392,-4.7792,-4.6871,-4.5962,-4.5807,-4.5807,-4.5807,-4.5807,-4.5808,-4.5712,-4.5098,-4.4612,-4.4133,-4.2983,-4.2145,-4.1921,-4.1425,-4.1152,-4.1111,-4.1108,-4.1103,-4.1098,-4.1112,-4.1109,-4.1109,-4.1109,-4.1109,-4.1109,-4.1109,-4.1083,-4.1072,-4.107,-4.1017,-4.0902,-4.0815,-4.0672,-4.0537,-4.0496,-4.0489,-4.0492,-4.0491,-4.0441,-4.037,-4.0307,-4.0319,-4.031,-4.032,-4.0263,-4.0166,-3.9914,-3.9658,-3.9401,-3.9124,-3.8906,-3.875,-3.8707,-3.8707,-3.8707,-3.8707,-3.8692,-3.8643,-3.8541,-3.843,-3.8185,-3.7862,-3.7523,-3.7207,-3.6818,-3.6305,-3.6088,-3.5827,-3.5644,-3.5622,-3.5622,-3.5616,-3.5616,-3.5616,-3.5718,-3.5819,-3.6045,-3.6214,-3.6028,-3.5876,-3.5667,-3.565,-3.56,-3.5588,-3.5498,-3.54,-3.5285,-3.5152,-3.5041,-3.497,-3.4923,-3.4692,-3.4217,-3.362,-3.3161,-3.2734,-5.5435,-5.5692,-5.5816,-5.5895,-5.5827,-5.5016,-5.4203,-5.3395,-5.2545,-5.1683,-5.1014,-5.0898,-5.0705,-5.0395,-4.9919,-4.903,-4.7927,-4.7328,-4.6639,-4.5904,-4.5807,-4.5807,-4.5807,-4.5807,-4.5807,-4.5736,-4.5325,-4.4957,-4.4651,-4.3709,-4.2902,-4.2295,-4.1826,-4.1444,-4.1171,-4.1111,-4.1107,-4.1104,-4.1117,-4.1112,-4.1112,-4.1111,-4.1109,-4.1109,-4.1109,-4.1109,-4.1109,-4.1109,-4.107,-4.099,-4.0848,-4.0697,-4.0574,-4.0534,-4.0496,-4.0508,-4.0487,-4.0485,-4.0432,-4.037,-4.0326,-4.0309,-4.031,-4.032,-4.0253,-4.0048,-3.9807,-3.964,-3.9311,-3.9031,-3.8881,-3.8735,-3.8707,-3.8707,-3.8707,-3.8707,-3.8673,-3.8575,-3.8494,-3.8366,-3.8136,-3.7915,-3.7559,-3.7245,-3.6678,-3.6516,-3.6135,-3.5849,-3.5805,-3.5694,-3.5667,-3.574,-3.5994,-3.6096,-3.6146,-3.6417,-3.6772,-3.6518,-3.6197,-3.5926,-3.5718,-3.5633,-3.5577,-3.5549,-3.5452,-3.5354,-3.5222,-3.5105,-3.4994,-3.497,-3.4899,-3.4602,-3.4086,-3.3459,-3.2986,-5.5256,-5.5339,-5.564,-5.5776,-5.5691,-5.4863,-5.4042,-5.3325,-5.2367,-5.1562,-5.1006,-5.0898,-5.048,-4.9861,-4.9591,-4.8643,-4.7328,-4.696,-4.6542,-4.5962,-4.5807,-4.5807,-4.5807,-4.5807,-4.5807,-4.5787,-4.5756,-4.5428,-4.491,-4.4584,-4.3938,-4.2737,-4.237,-4.1958,-4.1424,-4.121,-4.1111,-4.111,-4.1104,-4.1099,-4.1117,-4.1114,-4.1109,-4.1109,-4.1109,-4.1109,-4.1109,-4.1108,-4.107,-4.0987,-4.084,-4.0729,-4.0662,-4.0586,-4.0527,-4.0504,-4.0495,-4.0491,-4.0474,-4.0441,-4.0389,-4.0335,-4.0317,-4.0308,-4.0282,-4.0089,-3.9935,-3.9829,-3.9458,-3.9178,-3.9101,-3.891,-3.8765,-3.8707,-3.8707,-3.8707,-3.8692,-3.859,-3.8544,-3.8494,-3.8368,-3.8189,-3.7845,-3.7596,-3.732,-3.7015,-3.6597,-3.6385,-3.6262,-3.6092,-3.5761,-3.592,-3.6225,-3.6147,-3.6135,-3.6958,-3.7178,-3.6434,-3.6299,-3.6315,-3.5836,-3.565,-3.56,-3.5571,-3.552,-3.5446,-3.5308,-3.5152,-3.5018,-3.4947,-3.4899,-3.4883,-3.4488,-3.3767,-3.3303,-5.4847,-5.5301,-5.5401,-5.5585,-5.5545,-5.4285,-5.3532,-5.3135,-5.181,-5.1131,-5.0924,-5.0909,-5.0453,-4.9687,-4.903,-4.8121,-4.7192,-4.6484,-4.6097,-4.5845,-4.5807,-4.5807,-4.5807,-4.5807,-4.5807,-4.5807,-4.5807,-4.5711,-4.5473,-4.499,-4.4482,-4.4022,-4.2883,-4.2258,-4.1978,-4.1425,-4.1131,-4.1111,-4.1108,-4.1103,-4.1099,-4.1116,-4.1114,-4.1109,-4.1109,-4.1109,-4.1109,-4.1109,-4.107,-4.0997,-4.096,-4.0864,-4.0711,-4.0662,-4.0595,-4.0527,-4.0508,-4.0495,-4.051,-4.0493,-4.0441,-4.0379,-4.0334,-4.0317,-4.0289,-4.0244,-4.0098,-3.9935,-3.9721,-3.958,-3.9395,-3.9137,-3.8921,-3.8735,-3.8707,-3.8707,-3.8673,-3.8673,-3.8658,-3.8643,-3.853,-3.8366,-3.8218,-3.7913,-3.765,-3.7449,-3.7092,-3.6759,-3.6681,-3.656,-3.6312,-3.6174,-3.6264,-3.6098,-3.6299,-3.7242,-3.7347,-3.64,-3.6349,-3.6789,-3.6174,-3.5616,-3.56,-3.5594,-3.5566,-3.5492,-3.5354,-3.5198,-3.5081,-3.4994,-3.4923,-3.4899,-3.448,-3.3917,-3.362,-5.4623,-5.5111,-5.5249,-5.5281,-5.5091,-5.3831,-5.3071,-5.254,-5.141,-5.0866,-5.0899,-5.0905,-5.0457,-4.9668,-4.9184,-4.8237,-4.7134,-4.6581,-4.6194,-4.5826,-4.5807,-4.5807,-4.5807,-4.5807,-4.5807,-4.5807,-4.5807,-4.5807,-4.5743,-4.5357,-4.5043,-4.4564,-4.3779,-4.3011,-4.2258,-4.1884,-4.1425,-4.121,-4.113,-4.1108,-4.1105,-4.11,-4.1116,-4.1112,-4.1111,-4.1109,-4.1109,-4.1109,-4.1078,-4.1033,-4.1006,-4.0953,-4.0835,-4.0742,-4.0662,-4.0574,-4.0515,-4.05,-4.0503,-4.0495,-4.0491,-4.0449,-4.0415,-4.0351,-4.0316,-4.0309,-4.0187,-4.0089,-3.9986,-3.9818,-3.9658,-3.9337,-3.9059,-3.891,-3.8765,-3.8707,-3.8707,-3.8707,-3.8707,-3.8658,-3.8593,-3.851,-3.851,-3.8153,-3.8001,-3.7845,-3.7469,-3.7265,-3.7151,-3.7017,-3.686,-3.6658,-3.6697,-3.6715,-3.673,-3.7462,-3.7519,-3.6575,-3.6197,-3.6738,-3.6276,-3.5616,-3.5616,-3.5616,-3.5588,-3.5514,-3.5383,-3.5291,-3.5245,-3.5175,-3.5065,-3.4899,-3.4594,-3.4275,-3.3968,-5.4446,-5.4795,-5.5111,-5.4929,-5.4348,-5.3547,-5.2732,-5.1886,-5.1077,-5.0775,-5.0874,-5.0891,-5.0441,-4.9699,-4.9544,-4.874,-4.7115,-4.6987,-4.6477,-4.6032,-4.5807,-4.5807,-4.5807,-4.5807,-4.5807,-4.5807,-4.5807,-4.5807,-4.5787,-4.5756,-4.5441,-4.4977,-4.4699,-4.3938,-4.3017,-4.2541,-4.2037,-4.1522,-4.1406,-4.1267,-4.1168,-4.1105,-4.1101,-4.1116,-4.1111,-4.1109,-4.1109,-4.1109,-4.1106,-4.1108,-4.103,-4.1003,-4.0974,-4.081,-4.0724,-4.0675,-4.0588,-4.0534,-4.0496,-4.0508,-4.05,-4.0499,-4.0482,-4.0449,-4.037,-4.0335,-4.029,-4.0253,-4.0068,-3.9946,-3.9826,-3.9439,-3.9165,-3.9031,-3.8851,-3.8704,-3.8707,-3.8707,-3.8707,-3.8707,-3.8593,-3.8544,-3.8496,-3.8435,-3.8323,-3.8186,-3.7879,-3.7703,-3.7596,-3.7487,-3.7265,-3.7017,-3.7191,-3.7498,-3.7555,-3.7703,-3.7393,-3.6847,-3.6321,-3.6315,-3.6022,-3.5616,-3.5616,-3.5616,-3.5571,-3.5543,-3.5492,-3.5423,-3.5383,-3.5291,-3.5175,-3.5128,-3.5018,-3.4667,-3.4333,-5.4089,-5.443,-5.4758,-5.4477,-5.3783,-5.3338,-5.257,-5.1537,-5.0942,-5.0692,-5.0766,-5.0846,-5.0417,-4.966,-4.9633,-4.8759,-4.7289,-4.7057,-4.6619,-4.5904,-4.5807,-4.5807,-4.5807,-4.5807,-4.5807,-4.5807,-4.5807,-4.5807,-4.5807,-4.5787,-4.5736,-4.5525,-4.501,-4.453,-4.4139,-4.3485,-4.2902,-4.2232,-4.2107,-4.1797,-4.1326,-4.1208,-4.1165,-4.1099,-4.1112,-4.1109,-4.1109,-4.1109,-4.1109,-4.1106,-4.108,-4.1057,-4.1019,-4.096,-4.0878,-4.0748,-4.0681,-4.0602,-4.0527,-4.0504,-4.0496,-4.0492,-4.0507,-4.0493,-4.0458,-4.037,-4.0326,-4.0318,-4.0244,-4.0118,-3.9924,-3.9635,-3.935,-3.9142,-3.8881,-3.8707,-3.8707,-3.8707,-3.8707,-3.8673,-3.8673,-3.8658,-3.8624,-3.8528,-3.8465,-3.8415,-3.8302,-3.8154,-3.8036,-3.7897,-3.7703,-3.745,-3.7423,-3.7563,-3.7175,-3.7214,-3.7007,-3.6915,-3.6581,-3.6265,-3.5977,-3.5752,-3.5825,-3.5718,-3.5616,-3.5571,-3.552,-3.5514,-3.5452,-3.536,-3.5291,-3.5268,-3.5175,-3.4899,-3.4756,-5.3981,-5.4259,-5.4081,-5.3611,-5.2968,-5.2431,-5.1641,-5.0817,-5.0569,-5.0497,-5.0567,-5.071,-5.0559,-5.0121,-4.9776,-4.8883,-4.7692,-4.6779,-4.6238,-4.5844,-4.5812,-4.5807,-4.5807,-4.5807,-4.5807,-4.5807,-4.5807,-4.5807,-4.5807,-4.5807,-4.5807,-4.5787,-4.5376,-4.5023,-4.4738,-4.4328,-4.371,-4.3074,-4.2955,-4.2732,-4.2363,-4.1893,-4.1421,-4.1178,-4.1115,-4.1112,-4.1109,-4.1109,-4.1109,-4.1109,-4.1108,-4.1101,-4.1054,-4.1028,-4.0949,-4.0858,-4.0742,-4.0681,-4.0602,-4.0523,-4.0496,-4.0496,-4.0492,-4.0507,-4.051,-4.0432,-4.0379,-4.0353,-4.0327,-4.0244,-4.0087,-3.9693,-3.9452,-3.9272,-3.8935,-3.8704,-3.8707,-3.8707,-3.8707,-3.8707,-3.8707,-3.8692,-3.8658,-3.8593,-3.8525,-3.8462,-3.8415,-3.8271,-3.8254,-3.8136,-3.8104,-3.7897,-3.7721,-3.7445,-3.6838,-3.6595,-3.6537,-3.6626,-3.6745,-3.6575,-3.6383,-3.6214,-3.6062,-3.5876,-3.5616,-3.56,-3.5571,-3.5543,-3.5543,-3.5481,-3.5435,-3.5406,-3.5291,-3.5088,-3.4994,-5.3963,-5.4154,-5.3397,-5.2752,-5.2099,-5.1433,-5.0651,-4.9885,-5.0158,-5.0378,-5.0355,-5.0613,-5.0683,-5.0408,-4.98,-4.9024,-4.7847,-4.6641,-4.5836,-4.5815,-4.5812,-4.58,-4.5807,-4.5807,-4.5807,-4.5807,-4.5807,-4.5807,-4.5807,-4.5807,-4.5807,-4.5787,-4.5787,-4.5473,-4.499,-4.4865,-4.4517,-4.3852,-4.378,-4.3632,-4.3454,-4.2871,-4.2265,-4.1866,-4.149,-4.1448,-4.1385,-4.1247,-4.1109,-4.1109,-4.1109,-4.1109,-4.1081,-4.104,-4.1016,-4.0987,-4.0825,-4.073,-4.0662,-4.0566,-4.0496,-4.0496,-4.0496,-4.05,-4.0507,-4.0502,-4.0458,-4.0424,-4.0381,-4.0308,-4.0272,-3.9884,-3.9628,-3.9458,-3.9087,-3.881,-3.875,-3.8719,-3.8707,-3.8707,-3.8707,-3.8707,-3.8673,-3.8609,-3.8559,-3.851,-3.8465,-3.8433,-3.8401,-3.8352,-3.8271,-3.8104,-3.788,-3.7486,-3.6893,-3.6786,-3.6631,-3.6599,-3.6865,-3.6768,-3.6683,-3.6524,-3.6248,-3.5825,-3.56,-3.56,-3.56,-3.5594,-3.5594,-3.5577,-3.5554,-3.5503,-3.5406,-3.5314,-3.5228,-5.3832,-5.3851,-5.3297,-5.2527,-5.1604,-5.1198,-5.0406,-4.9755,-5.0378,-5.0609,-5.0286,-5.0728,-5.0393,-4.9798,-4.9355,-4.8452,-4.7185,-4.6198,-4.5788,-4.5788,-4.5798,-4.58,-4.5819,-4.58,-4.58,-4.5807,-4.5807,-4.5807,-4.5807,-4.5807,-4.5807,-4.5807,-4.5807,-4.5641,-4.5622,-4.5664,-4.5283,-4.4677,-4.4568,-4.4367,-4.3917,-4.358,-4.3298,-4.2966,-4.2471,-4.2155,-4.1936,-4.1483,-4.1109,-4.1109,-4.1109,-4.1129,-4.1205,-4.1177,-4.1118,-4.0994,-4.0866,-4.0754,-4.0699,-4.0574,-4.0512,-4.0496,-4.0496,-4.0496,-4.0492,-4.0487,-4.0482,-4.0458,-4.0424,-4.0362,-4.0289,-3.9981,-3.9846,-3.9698,-3.9401,-3.9031,-3.9007,-3.8881,-3.875,-3.875,-3.8735,-3.8707,-3.8673,-3.8658,-3.8624,-3.8593,-3.8562,-3.8512,-3.8496,-3.8433,-3.8352,-3.8171,-3.7932,-3.7486,-3.6956,-3.7081,-3.7059,-3.6881,-3.6942,-3.6865,-3.6769,-3.6683,-3.6383,-3.5876,-3.5616,-3.56,-3.56,-3.5616,-3.56,-3.56,-3.5594,-3.5594,-3.5503,-3.5429,-3.536,-5.3813,-5.3702,-5.2676,-5.1931,-5.1283,-5.0343,-4.9677,-4.9284,-4.9849,-5.0033,-4.9838,-4.9787,-4.955,-4.8919,-4.8053,-4.7185,-4.6414,-4.5986,-4.5743,-4.5743,-4.5781,-4.5817,-4.5798,-4.5812,-4.58,-4.5807,-4.5807,-4.5807,-4.5807,-4.5807,-4.5807,-4.5807,-4.5807,-4.5807,-4.5814,-4.5809,-4.5708,-4.5364,-4.5346,-4.5235,-4.4816,-4.4526,-4.417,-4.3652,-4.3336,-4.2864,-4.2353,-4.2094,-4.1798,-4.1797,-4.1774,-4.1771,-4.1771,-4.1731,-4.155,-4.1206,-4.0929,-4.0796,-4.0726,-4.061,-4.0496,-4.0496,-4.0496,-4.0496,-4.0489,-4.0492,-4.0487,-4.0482,-4.0466,-4.0432,-4.0353,-4.011,-3.9931,-3.9835,-3.9556,-3.935,-3.9245,-3.9059,-3.8946,-3.8877,-3.8795,-3.8735,-3.8707,-3.8692,-3.8707,-3.8673,-3.8643,-3.8609,-3.8575,-3.8528,-3.8449,-3.8269,-3.8069,-3.7721,-3.7282,-3.7216,-3.7349,-3.7241,-3.715,-3.706,-3.6911,-3.6854,-3.6378,-3.5752,-3.5633,-3.5616,-3.5616,-3.5616,-3.5616,-3.5616,-3.5616,-3.5594,-3.5594,-3.5543,-3.5475,-5.3701,-5.3441,-5.1992,-5.1305,-5.0915,-4.9559,-4.8926,-4.896,-4.9417,-4.9559,-4.9336,-4.8932,-4.8615,-4.8017,-4.6999,-4.6004,-4.5603,-4.5643,-4.5714,-4.5726,-4.5762,-4.5792,-4.5788,-4.581,-4.5812,-4.5805,-4.58,-4.5807,-4.5807,-4.5807,-4.5807,-4.5807,-4.5807,-4.5807,-4.5814,-4.5821,-4.5873,-4.591,-4.5969,-4.5983,-4.5901,-4.5492,-4.4888,-4.4219,-4.4062,-4.3649,-4.3198,-4.2803,-4.2683,-4.266,-4.2656,-4.2671,-4.265,-4.265,-4.2337,-4.1702,-4.1153,-4.0948,-4.0999,-4.0687,-4.0646,-4.0889,-4.0593,-4.0516,-4.0496,-4.0508,-4.05,-4.0507,-4.0499,-4.0474,-4.0396,-4.0196,-4.0022,-3.9941,-3.9777,-3.9575,-3.9495,-3.937,-3.92,-3.9069,-3.8925,-3.8795,-3.875,-3.8707,-3.8707,-3.8707,-3.8658,-3.8658,-3.864,-3.8609,-3.8512,-3.8382,-3.8185,-3.7949,-3.7614,-3.7302,-3.7427,-3.7506,-3.7452,-3.7399,-3.7223,-3.7053,-3.6488,-3.5941,-3.5633,-3.5616,-3.5616,-3.5639,-3.5616,-3.5616,-3.5616,-3.5616,-3.5594,-3.5571,-3.552,-5.3385,-5.2679,-5.1788,-5.0971,-5.0228,-4.9317,-4.889,-4.8983,-4.9629,-4.9762,-4.924,-4.8894,-4.8217,-4.7212,-4.5986,-4.5364,-4.5361,-4.5531,-4.5646,-4.5693,-4.5711,-4.5735,-4.5723,-4.5773,-4.5892,-4.5899,-4.587,-4.58,-4.5884,-4.5904,-4.5807,-4.5807,-4.5807,-4.5807,-4.5807,-4.5807,-4.5814,-4.5834,-4.5841,-4.5886,-4.5998,-4.5975,-4.5843,-4.5632,-4.5194,-4.4686,-4.4353,-4.3862,-4.3547,-4.3542,-4.356,-4.3555,-4.353,-4.3549,-4.353,-4.2932,-4.2134,-4.126,-4.1713,-4.1381,-4.1168,-4.1435,-4.112,-4.0631,-4.0746,-4.0689,-4.0642,-4.0489,-4.0508,-4.0503,-4.0474,-4.0388,-4.0307,-4.0177,-4.0019,-3.9892,-3.9796,-3.9616,-3.9471,-3.9357,-3.9224,-3.895,-3.8792,-3.8735,-3.8707,-3.8707,-3.8707,-3.8707,-3.8692,-3.864,-3.8575,-3.8446,-3.8382,-3.8135,-3.8001,-3.7667,-3.7631,-3.7735,-3.7662,-3.7624,-3.729,-3.7015,-3.6831,-3.635,-3.599,-3.5711,-3.5756,-3.5734,-3.5644,-3.5616,-3.5616,-3.5616,-3.5616,-3.5594,-3.5566,-5.3181,-5.3162,-5.1918,-5.1193,-5.0692,-4.9466,-4.889,-4.8964,-4.9243,-4.905,-4.8387,-4.7785,-4.6841,-4.5765,-4.4922,-4.4938,-4.5161,-4.5352,-4.5532,-4.5659,-4.5662,-4.5687,-4.5722,-4.5773,-4.5912,-4.6244,-4.6131,-4.6192,-4.6199,-4.602,-4.5807,-4.5807,-4.5807,-4.5807,-4.5807,-4.5807,-4.5807,-4.5807,-4.5821,-4.5861,-4.5977,-4.6067,-4.6144,-4.6199,-4.5847,-4.5466,-4.5019,-4.4724,-4.443,-4.4428,-4.4445,-4.444,-4.4435,-4.4374,-4.4257,-4.3626,-4.3047,-4.2735,-4.2856,-4.2399,-4.2364,-4.2404,-4.2194,-4.2066,-4.1873,-4.1489,-4.1239,-4.1239,-4.0766,-4.0538,-4.0487,-4.0449,-4.0396,-4.0317,-4.0206,-4.0157,-4.0038,-3.987,-3.9705,-3.9611,-3.9502,-3.9245,-3.9007,-3.8866,-3.8795,-3.8707,-3.8707,-3.8707,-3.8707,-3.8673,-3.8609,-3.851,-3.8446,-3.8366,-3.8252,-3.8086,-3.8001,-3.8006,-3.763,-3.7508,-3.7145,-3.6876,-3.6824,-3.6613,-3.6221,-3.6023,-3.5937,-3.5761,-3.5622,-3.5616,-3.5616,-3.5616,-3.5616,-3.5616,-3.5594,-5.2958,-5.3348,-5.1751,-5.0952,-5.0692,-4.941,-4.889,-4.889,-4.8909,-4.8593,-4.785,-4.7031,-4.5746,-4.4593,-4.4435,-4.465,-4.4985,-4.5129,-4.5312,-4.5485,-4.5603,-4.5665,-4.5682,-4.5726,-4.6036,-4.6781,-4.607,-4.6093,-4.6269,-4.6167,-4.5807,-4.5807,-4.5807,-4.5807,-4.5807,-4.5807,-4.5807,-4.5807,-4.5807,-4.5861,-4.5922,-4.5991,-4.6072,-4.6122,-4.6084,-4.589,-4.5401,-4.5292,-4.5293,-4.5293,-4.531,-4.5325,-4.532,-4.528,-4.5102,-4.4686,-4.4348,-4.4356,-4.4127,-4.3726,-4.3505,-4.3434,-4.3217,-4.2869,-4.2874,-4.2431,-4.1912,-4.1739,-4.1277,-4.0843,-4.0558,-4.0455,-4.0441,-4.0398,-4.0317,-4.0328,-4.0282,-4.0098,-3.9956,-3.9914,-3.9792,-3.9587,-3.9337,-3.9087,-3.8906,-3.8735,-3.8707,-3.8707,-3.8707,-3.8707,-3.8658,-3.8559,-3.8494,-3.8462,-3.8415,-3.8352,-3.8338,-3.8221,-3.7879,-3.7667,-3.7449,-3.7167,-3.6989,-3.6733,-3.6451,-3.611,-3.5871,-3.5734,-3.5616,-3.5616,-3.5616,-3.5616,-3.5616,-3.5616,-3.5616,-5.2642,-5.2549,-5.0896,-4.9819,-4.9187,-4.8964,-4.889,-4.889,-4.889,-4.8797,-4.8277,-4.7125,-4.5488,-4.4429,-4.4246,-4.4416,-4.4506,-4.4977,-4.514,-4.5292,-4.5467,-4.5559,-4.5586,-4.5631,-4.5817,-4.6092,-4.5981,-4.5974,-4.6015,-4.6269,-4.5947,-4.5807,-4.5807,-4.5807,-4.5807,-4.5807,-4.5807,-4.5807,-4.5807,-4.5807,-4.5867,-4.5929,-4.6007,-4.6027,-4.6072,-4.6073,-4.6021,-4.5974,-4.5961,-4.5967,-4.5976,-4.6013,-4.5971,-4.5989,-4.581,-4.5728,-4.5667,-4.5659,-4.5458,-4.4647,-4.4137,-4.4112,-4.3968,-4.3547,-4.3582,-4.3253,-4.2689,-4.214,-4.1801,-4.1258,-4.0846,-4.0495,-4.0474,-4.0441,-4.0389,-4.0326,-4.0318,-4.0301,-4.0206,-4.0196,-4.0067,-3.9848,-3.9682,-3.9421,-3.9165,-3.9003,-3.8807,-3.8807,-3.8723,-3.8707,-3.8707,-3.8643,-3.8559,-3.8528,-3.8494,-3.8465,-3.8417,-3.8368,-3.8152,-3.8085,-3.8018,-3.7703,-3.7358,-3.7017,-3.6759,-3.6284,-3.5888,-3.5871,-3.5805,-3.5667,-3.5616,-3.5616,-3.5616,-3.5616,-3.5616,-5.1862,-5.1695,-5.006,-4.9466,-4.9615,-4.9113,-4.889,-4.889,-4.889,-4.8277,-4.7404,-4.6234,-4.5101,-4.4293,-4.4094,-4.4265,-4.4416,-4.4585,-4.4781,-4.4988,-4.5201,-4.5332,-4.5381,-4.5602,-4.5956,-4.67,-4.6642,-4.6761,-4.7364,-4.6812,-4.6204,-4.6005,-4.5896,-4.5807,-4.5807,-4.5807,-4.5807,-4.5807,-4.5807,-4.5807,-4.5821,-4.5848,-4.5923,-4.6007,-4.6027,-4.6076,-4.6075,-4.6105,-4.614,-4.6184,-4.6218,-4.6268,-4.6288,-4.6306,-4.6303,-4.63,-4.6296,-4.6293,-4.6264,-4.5521,-4.529,-4.5245,-4.5085,-4.4781,-4.4563,-4.4309,-4.3931,-4.3323,-4.2449,-4.1801,-4.1423,-4.0853,-4.0493,-4.0485,-4.0471,-4.0447,-4.0335,-4.0336,-4.031,-4.0253,-4.0206,-4.0077,-3.9924,-3.9785,-3.952,-3.9285,-3.9087,-3.8906,-3.8837,-3.875,-3.8765,-3.8735,-3.8655,-3.8609,-3.8593,-3.8528,-3.8462,-3.843,-3.8417,-3.8302,-3.8236,-3.8223,-3.788,-3.7505,-3.7132,-3.6801,-3.6457,-3.6182,-3.5963,-3.5711,-3.5622,-3.5616,-3.5616,-3.5616,-3.5616,-5.1249,-5.0841,-4.9485,-4.9224,-4.9633,-4.9132,-4.889,-4.889,-4.889,-4.7999,-4.6494,-4.5862,-4.5008,-4.4283,-4.402,-4.4094,-4.4265,-4.4383,-4.4519,-4.4726,-4.4919,-4.5063,-4.5151,-4.5478,-4.6116,-4.724,-4.7443,-4.7405,-4.7881,-4.761,-4.7021,-4.6472,-4.6165,-4.6134,-4.5807,-4.5807,-4.5807,-4.5807,-4.5807,-4.5807,-4.5807,-4.5814,-4.5841,-4.5929,-4.5947,-4.5956,-4.5998,-4.6039,-4.6087,-4.6134,-4.6169,-4.6235,-4.6267,-4.6289,-4.6287,-4.6304,-4.6301,-4.6297,-4.6269,-4.6206,-4.6082,-4.5879,-4.5881,-4.5818,-4.5733,-4.5264,-4.4821,-4.4277,-4.3265,-4.241,-4.2128,-4.1542,-4.0929,-4.0891,-4.0984,-4.0942,-4.0522,-4.0381,-4.0336,-4.03,-4.0253,-4.0225,-4.0166,-4.0007,-3.9751,-3.9508,-3.9318,-3.9178,-3.911,-3.9003,-3.8896,-3.8837,-3.8765,-3.8719,-3.8692,-3.8609,-3.8559,-3.8544,-3.8496,-3.8348,-3.8302,-3.8322,-3.8172,-3.7685,-3.7394,-3.7283,-3.6939,-3.6454,-3.6049,-3.5672,-3.5622,-3.5616,-3.5616,-3.5616,-3.5616,-5.0896,-5.0043,-4.9262,-4.8927,-4.9002,-4.8927,-4.889,-4.889,-4.8872,-4.7999,-4.6605,-4.6364,-4.5454,-4.4302,-4.4005,-4.4051,-4.4109,-4.4279,-4.4388,-4.4471,-4.4676,-4.4807,-4.5009,-4.54,-4.5923,-4.6289,-4.6903,-4.751,-4.7977,-4.8135,-4.7694,-4.7008,-4.6642,-4.6402,-4.5858,-4.5807,-4.5807,-4.5807,-4.5807,-4.5807,-4.5807,-4.5807,-4.5827,-4.5834,-4.5848,-4.5854,-4.5886,-4.595,-4.6008,-4.6035,-4.6125,-4.6189,-4.6231,-4.6267,-4.6289,-4.6287,-4.6306,-4.6305,-4.6301,-4.6288,-4.6216,-4.6131,-4.6098,-4.6057,-4.5945,-4.5739,-4.5504,-4.4928,-4.4259,-4.3395,-4.2876,-4.2346,-4.175,-4.1511,-4.1632,-4.1434,-4.1025,-4.0701,-4.0715,-4.0422,-4.0317,-4.0308,-4.0301,-4.0215,-3.9975,-3.9739,-3.9556,-3.9433,-3.9357,-3.9245,-3.9101,-3.8964,-3.8881,-3.878,-3.8735,-3.8707,-3.8673,-3.8658,-3.8593,-3.8462,-3.8382,-3.8387,-3.8154,-3.781,-3.7667,-3.7559,-3.7094,-3.6597,-3.6262,-3.5937,-3.5667,-3.5616,-3.5616,-3.5616,-3.5616,-5.0376,-5.0042,-4.9243,-4.889,-4.889,-4.889,-4.889,-4.889,-4.8797,-4.7999,-4.6735,-4.6513,-4.5565,-4.4432,-4.4005,-4.4005,-4.4036,-4.4033,-4.4155,-4.4196,-4.443,-4.4506,-4.4683,-4.4979,-4.5649,-4.6599,-4.729,-4.7819,-4.8641,-4.869,-4.799,-4.7251,-4.6793,-4.6093,-4.587,-4.5807,-4.5807,-4.5807,-4.5807,-4.5807,-4.5807,-4.5807,-4.5807,-4.5807,-4.5807,-4.5807,-4.5807,-4.5861,-4.5898,-4.598,-4.606,-4.6112,-4.6165,-4.6216,-4.6245,-4.6289,-4.6288,-4.6306,-4.6301,-4.6293,-4.6302,-4.6245,-4.6214,-4.6187,-4.6153,-4.6064,-4.5814,-4.5483,-4.4909,-4.4208,-4.3868,-4.3181,-4.2659,-4.2566,-4.2522,-4.2102,-4.172,-4.1434,-4.1236,-4.0647,-4.0353,-4.0336,-4.0319,-4.032,-4.0128,-4.0017,-3.984,-3.9658,-3.9563,-3.9452,-3.9324,-3.9142,-3.9007,-3.8862,-3.8762,-3.8719,-3.8707,-3.8673,-3.8673,-3.8643,-3.8564,-3.8467,-3.8352,-3.8101,-3.7984,-3.781,-3.7357,-3.6937,-3.6574,-3.6259,-3.6023,-3.5734,-3.5616,-3.5616,-3.5616,-4.9931,-4.9599,-4.9114,-4.889,-4.889,-4.889,-4.889,-4.889,-4.8853,-4.8129,-4.707,-4.6643,-4.5788,-4.4692,-4.4153,-4.4005,-4.4005,-4.4005,-4.4005,-4.4036,-4.4166,-4.425,-4.4321,-4.4597,-4.54,-4.6459,-4.7024,-4.754,-4.853,-4.8892,-4.8622,-4.7957,-4.6992,-4.6715,-4.6368,-4.6068,-4.5993,-4.6078,-4.6136,-4.5807,-4.5807,-4.5807,-4.5807,-4.5807,-4.5807,-4.5807,-4.5807,-4.5821,-4.5848,-4.591,-4.5977,-4.6041,-4.6112,-4.6158,-4.62,-4.6243,-4.6289,-4.6288,-4.6305,-4.6302,-4.6295,-4.6284,-4.6303,-4.6302,-4.6298,-4.6211,-4.6141,-4.5835,-4.5337,-4.4938,-4.4518,-4.3837,-4.3786,-4.3694,-4.3322,-4.2901,-4.2407,-4.214,-4.1585,-4.0978,-4.0454,-4.0401,-4.0318,-4.0309,-4.0244,-4.0196,-4.0138,-3.9946,-3.9751,-3.967,-3.9551,-3.935,-3.9142,-3.8964,-3.8822,-3.8704,-3.8707,-3.8707,-3.8707,-3.8707,-3.8643,-3.8546,-3.8481,-3.843,-3.8252,-3.8035,-3.7667,-3.7282,-3.6976,-3.6658,-3.6392,-3.6071,-3.5711,-3.5644,-3.5667,-4.9617,-4.8842,-4.8855,-4.8891,-4.8891,-4.889,-4.889,-4.889,-4.889,-4.8407,-4.7553,-4.6717,-4.5862,-4.5101,-4.4339,-4.4023,-4.4005,-4.4005,-4.4005,-4.4005,-4.4064,-4.4104,-4.4383,-4.4789,-4.5444,-4.5811,-4.6311,-4.7072,-4.8054,-4.8175,-4.852,-4.8673,-4.7594,-4.7127,-4.6606,-4.6225,-4.6262,-4.6462,-4.6399,-4.6148,-4.6129,-4.5884,-4.5826,-4.5807,-4.5807,-4.5807,-4.5807,-4.5814,-4.5814,-4.5861,-4.591,-4.5961,-4.6018,-4.6056,-4.6128,-4.6202,-4.6247,-4.6269,-4.6288,-4.6306,-4.6303,-4.6296,-4.6288,-4.6303,-4.63,-4.6273,-4.6216,-4.617,-4.5823,-4.5389,-4.4929,-4.4928,-4.4917,-4.4602,-4.4249,-4.372,-4.3151,-4.2626,-4.2022,-4.1421,-4.0801,-4.0537,-4.0389,-4.0344,-4.0345,-4.0299,-4.0253,-4.0215,-4.0058,-3.9975,-3.9826,-3.9556,-3.9331,-3.9073,-3.8921,-3.8822,-3.8719,-3.8719,-3.8707,-3.8692,-3.8643,-3.8593,-3.8528,-3.8462,-3.843,-3.8234,-3.7948,-3.7685,-3.7414,-3.7113,-3.6801,-3.635,-3.5963,-3.5822,-3.58,-4.89,-4.866,-4.8787,-4.884,-4.8821,-4.8891,-4.889,-4.889,-4.8872,-4.8184,-4.681,-4.6624,-4.5862,-4.4395,-4.4098,-4.4061,-4.4005,-4.4005,-4.4005,-4.4005,-4.4023,-4.4413,-4.4581,-4.4711,-4.5509,-4.6062,-4.6416,-4.646,-4.7525,-4.7643,-4.7285,-4.7112,-4.7126,-4.679,-4.6617,-4.6179,-4.6584,-4.6827,-4.6772,-4.6651,-4.6438,-4.6174,-4.6,-4.5845,-4.5807,-4.5807,-4.5807,-4.5807,-4.5807,-4.5827,-4.5848,-4.5893,-4.5988,-4.6022,-4.6084,-4.6195,-4.6234,-4.6242,-4.6289,-4.6288,-4.6306,-4.6304,-4.63,-4.6291,-4.6305,-4.628,-4.6275,-4.6216,-4.617,-4.5744,-4.5554,-4.5566,-4.5534,-4.528,-4.4942,-4.4549,-4.3925,-4.3135,-4.2483,-4.1466,-4.0873,-4.0559,-4.0413,-4.0407,-4.0389,-4.0353,-4.0344,-4.0336,-4.0291,-4.0196,-4.0017,-3.9762,-3.9604,-3.9376,-3.9156,-3.9036,-3.8866,-3.8765,-3.8765,-3.8735,-3.8658,-3.8609,-3.8544,-3.8494,-3.8481,-3.8399,-3.8285,-3.8034,-3.7791,-3.7487,-3.7151,-3.6681,-3.6266,-3.6071,-3.5866,-4.8587,-4.8587,-4.8678,-4.875,-4.8804,-4.8874,-4.889,-4.889,-4.889,-4.8277,-4.7478,-4.7144,-4.6252,-4.5194,-4.4748,-4.4376,-4.4005,-4.4005,-4.4005,-4.4005,-4.4005,-4.4265,-4.4395,-4.4413,-4.4822,-4.5472,-4.569,-4.5469,-4.6611,-4.7264,-4.7087,-4.7122,-4.6619,-4.6733,-4.6864,-4.6893,-4.7138,-4.7295,-4.7287,-4.7151,-4.6914,-4.6612,-4.6271,-4.5904,-4.5845,-4.5845,-4.5807,-4.5807,-4.5807,-4.5807,-4.5807,-4.5834,-4.5922,-4.5956,-4.6022,-4.6115,-4.6147,-4.6197,-4.622,-4.6246,-4.6269,-4.6288,-4.6305,-4.6301,-4.6294,-4.6288,-4.6284,-4.6275,-4.6216,-4.6137,-4.6092,-4.6061,-4.5978,-4.5878,-4.5626,-4.537,-4.4576,-4.3703,-4.2669,-4.1531,-4.0958,-4.06,-4.0455,-4.0449,-4.0432,-4.0424,-4.0379,-4.0344,-4.0327,-4.0282,-4.0108,-3.987,-3.9796,-3.9675,-3.9477,-3.9232,-3.9115,-3.8974,-3.8921,-3.8862,-3.8747,-3.8658,-3.8609,-3.8559,-3.8512,-3.8465,-3.8399,-3.8368,-3.817,-3.7879,-3.7632,-3.7339,-3.6781,-3.6178,-3.5937,-4.8495,-4.8476,-4.855,-4.866,-4.8787,-4.882,-4.8855,-4.8855,-4.8855,-4.8799,-4.8501,-4.7963,-4.7109,-4.6085,-4.5454,-4.4804,-4.4376,-4.4153,-4.4005,-4.4005,-4.4005,-4.4209,-4.4339,-4.4116,-4.4766,-4.4432,-4.4281,-4.4721,-4.5475,-4.6091,-4.6663,-4.7484,-4.7705,-4.7365,-4.658,-4.7237,-4.757,-4.7855,-4.7808,-4.7674,-4.7545,-4.7231,-4.6806,-4.6136,-4.5974,-4.5935,-4.5845,-4.5807,-4.5807,-4.5807,-4.5807,-4.5814,-4.5835,-4.5892,-4.5956,-4.6037,-4.6064,-4.6139,-4.6199,-4.6213,-4.6246,-4.6289,-4.6287,-4.6305,-4.6301,-4.6294,-4.6288,-4.6305,-4.6251,-4.6245,-4.6211,-4.6153,-4.6095,-4.6024,-4.5857,-4.5587,-4.5084,-4.3981,-4.2627,-4.1583,-4.0865,-4.0549,-4.0484,-4.0479,-4.0463,-4.0482,-4.0449,-4.0388,-4.0353,-4.0346,-4.0206,-4.0007,-3.9996,-3.9914,-3.9686,-3.9483,-3.9389,-3.9272,-3.9165,-3.9003,-3.8892,-3.8777,-3.8707,-3.8643,-3.8593,-3.8559,-3.8494,-3.8465,-3.8401,-3.8285,-3.8085,-3.7984,-3.7431,-3.662,-3.6156,-4.8017,-4.8363,-4.8457,-4.8587,-4.8642,-4.8678,-4.866,-4.866,-4.8678,-4.8416,-4.8002,-4.7707,-4.7205,-4.6422,-4.5732,-4.5138,-4.4822,-4.4191,-4.4042,-4.4005,-4.4005,-4.4265,-4.4636,-4.4265,-4.4915,-4.5677,-4.5379,-4.4135,-4.4628,-4.5031,-4.5238,-4.5347,-4.6121,-4.6287,-4.6175,-4.6993,-4.7634,-4.8274,-4.8524,-4.8613,-4.8697,-4.8222,-4.7695,-4.7038,-4.6709,-4.6283,-4.609,-4.5807,-4.5807,-4.5807,-4.5807,-4.5807,-4.5814,-4.5828,-4.5892,-4.5966,-4.6003,-4.6076,-4.6145,-4.6193,-4.6212,-4.6267,-4.6289,-4.6288,-4.6305,-4.6299,-4.6293,-4.629,-4.6306,-4.6303,-4.6278,-4.6247,-4.6192,-4.6122,-4.6049,-4.5782,-4.5492,-4.4063,-4.2615,-4.174,-4.0906,-4.0609,-4.053,-4.0504,-4.05,-4.0495,-4.0491,-4.0458,-4.0424,-4.0389,-4.0318,-4.0186,-4.0215,-4.0127,-3.9903,-3.9762,-3.9658,-3.9539,-3.9408,-3.9245,-3.9045,-3.8892,-3.8777,-3.8719,-3.8658,-3.8624,-3.8575,-3.8544,-3.8496,-3.8446,-3.8318,-3.8119,-3.7809,-3.7132,-3.6641,-4.7736,-4.8034,-4.8363,-4.8513,-4.8532,-4.8587,-4.8587,-4.8587,-4.8569,-4.8384,-4.8137,-4.8026,-4.7506,-4.6574,-4.5976,-4.5212,-4.4859,-4.4246,-4.4061,-4.4005,-4.4061,-4.4246,-4.4321,-4.4283,-4.4618,-4.5324,-4.4804,-4.4042,-4.4079,-4.4981,-4.5401,-4.5106,-4.5496,-4.6108,-4.632,-4.7028,-4.7722,-4.87,-4.9135,-4.9365,-4.9532,-4.9051,-4.8191,-4.7542,-4.697,-4.659,-4.6109,-4.5807,-4.5807,-4.5807,-4.5807,-4.5807,-4.5807,-4.5814,-4.5828,-4.5873,-4.5902,-4.5963,-4.6076,-4.6131,-4.616,-4.6233,-4.6264,-4.6245,-4.6289,-4.6305,-4.6301,-4.6297,-4.6291,-4.6288,-4.6306,-4.6259,-4.6251,-4.6214,-4.6108,-4.5916,-4.5023,-4.3712,-4.2735,-4.208,-4.1305,-4.0692,-4.0643,-4.0609,-4.0574,-4.0489,-4.0503,-4.0507,-4.0482,-4.0441,-4.0381,-4.0318,-4.0319,-4.0301,-4.0128,-4.0027,-3.9965,-3.9837,-3.9682,-3.9526,-3.9324,-3.9059,-3.8877,-3.8851,-3.8795,-3.8692,-3.8658,-3.8609,-3.8609,-3.8593,-3.8382,-3.8168,-3.7879,-3.7632,-3.7265,-4.7485,-4.7674,-4.8229,-4.8494,-4.8476,-4.8532,-4.855,-4.8532,-4.8495,-4.8513,-4.8495,-4.8604,-4.7752,-4.695,-4.6335,-4.5326,-4.4562,-4.4191,-4.4061,-4.4005,-4.4005,-4.4135,-4.4116,-4.4079,-4.4339,-4.4451,-4.4265,-4.4098,-4.4023,-4.4875,-4.5432,-4.5821,-4.6614,-4.7555,-4.7616,-4.7735,-4.8023,-4.8769,-4.9209,-4.9318,-4.9441,-4.9545,-4.8634,-4.7838,-4.7183,-4.6781,-4.6262,-4.5851,-4.5851,-4.5807,-4.5807,-4.5807,-4.5807,-4.5807,-4.5807,-4.5834,-4.5841,-4.5898,-4.6002,-4.6027,-4.6091,-4.617,-4.6191,-4.6233,-4.6268,-4.6289,-4.6287,-4.6304,-4.63,-4.6294,-4.6293,-4.6288,-4.6303,-4.628,-4.6161,-4.5964,-4.4775,-4.3685,-4.3122,-4.2497,-4.1754,-4.1058,-4.0782,-4.073,-4.0649,-4.0566,-4.0519,-4.0516,-4.0511,-4.0491,-4.0452,-4.0372,-4.0336,-4.03,-4.0272,-4.0225,-4.0137,-4.0087,-3.9924,-3.9792,-3.9611,-3.9337,-3.9124,-3.9017,-3.895,-3.8807,-3.8704,-3.8658,-3.8673,-3.8673,-3.8562,-3.8366,-3.8251,-3.8034,-3.7826,-4.6913,-4.7614,-4.8132,-4.8343,-4.8325,-4.8344,-4.8363,-4.8363,-4.8344,-4.8344,-4.8401,-4.8439,-4.8052,-4.7286,-4.6581,-4.5651,-4.4732,-4.4283,-4.4061,-4.4005,-4.4005,-4.4005,-4.4005,-4.4005,-4.4005,-4.4172,-4.4395,-4.4544,-4.4209,-4.4451,-4.4875,-4.545,-4.5007,-4.5942,-4.7156,-4.7432,-4.7947,-4.8744,-4.9353,-4.955,-4.9687,-4.9655,-4.9336,-4.8649,-4.805,-4.7553,-4.6959,-4.6162,-4.5914,-4.5812,-4.5807,-4.5807,-4.5807,-4.5807,-4.5807,-4.5807,-4.5807,-4.5867,-4.5922,-4.595,-4.6031,-4.6102,-4.6137,-4.6191,-4.6237,-4.6268,-4.6289,-4.6289,-4.6287,-4.6301,-4.6299,-4.6294,-4.629,-4.6287,-4.6227,-4.5833,-4.5061,-4.4489,-4.3992,-4.315,-4.2257,-4.1591,-4.098,-4.0898,-4.0791,-4.0715,-4.0662,-4.0655,-4.0629,-4.0576,-4.0518,-4.0449,-4.0388,-4.0337,-4.031,-4.0301,-4.0234,-4.0225,-4.0176,-4.0036,-3.9837,-3.9599,-3.9395,-3.9232,-3.9059,-3.8906,-3.8822,-3.8707,-3.8707,-3.8673,-3.8707,-3.8611,-3.8496,-3.8382,-3.8152]},{"header":{"parameterUnit":"m.s-1","parameterCategory":1,"la1":31.0,"la2":29.5877,"lo1":-88.7671,"lo2":-86.6584,"dy":0.0162,"dx":0.0185,"nx":115,"ny":88,"refTime":"2025-05-14T12:00:00:Z","depth":0,"parameterNumber":3,"parameterNumberName":"V-component_of_WINDS"},"data":[0.0,0.0,0.0,0.0,0.0,0.0,0.0,0.0,0.0,0.0,0.0,0.0,0.0,0.0,0.0,0.0,0.0,0.0,0.0,0.0,0.0,0.0,0.0,0.0,0.0,0.0,0.0,0.0,0.0,0.0,0.0,0.0,0.0,0.0,0.0,0.0,0.0,0.0,0.0,0.0,0.0,0.0,0.0,0.0,0.0,0.0,0.0,0.0,0.0,0.0,0.0,0.0,0.0,0.0,0.0,0.0,0.0,0.0,0.0,0.0,0.0,0.0,0.0,0.0,0.0,0.0,0.0,0.0,0.0,0.0,0.0,0.0,0.0,0.0,0.0,0.0,0.0,0.0,0.0,0.0,0.0,0.0,0.0,0.0,0.0,0.0,0.0,0.0,0.0,0.0,0.0,0.0,0.0,0.0,0.0,0.0,0.0,0.0,0.0,0.0,0.0,0.0,0.0,0.0,0.0,0.0,0.0,0.0,0.0,0.0,0.0,0.0,0.0,0.0,0.0,0.0,0.0,0.0,0.0,0.0,0.0,0.0,0.0,0.0,0.0,0.0,0.0,0.0,0.0,0.0,0.0,0.0,0.0,0.0,0.0,0.0,0.0,0.0,0.0,0.0,0.0,0.0,0.0,0.0,0.0,0.0,0.0,0.0,0.0,0.0,0.0,0.0,0.0,0.0,0.0,0.0,0.0,0.0,0.0,0.0,0.0,0.0,0.0,0.0,0.0,0.0,0.0,0.0,0.0,0.0,0.0,0.0,0.0,0.0,0.0,0.0,0.0,0.0,0.0,0.0,0.0,0.0,0.0,0.0,0.0,0.0,0.0,0.0,0.0,0.0,0.0,0.0,0.0,0.0,0.0,0.0,0.0,0.0,0.0,0.0,0.0,0.0,0.0,0.0,0.0,0.0,0.0,0.0,0.0,0.0,0.0,0.0,0.0,0.0,0.0,0.0,0.0,0.0,0.0,0.0,0.0,0.0,0.0,0.0,0.0,0.0,0.0,0.0,0.0,0.0,0.0,0.0,0.0,0.0,0.0,0.0,0.0,0.0,0.0,0.0,0.0,0.0,0.0,0.0,0.0,0.0,0.0,0.0,0.0,0.0,0.0,0.0,0.0,0.0,0.0,0.0,0.0,0.0,0.0,0.0,0.0,0.0,0.0,0.0,0.0,0.0,0.0,0.0,0.0,0.0,0.0,0.0,0.0,0.0,0.0,0.0,0.0,0.0,0.0,0.0,0.0,0.0,0.0,0.0,0.0,0.0,0.0,0.0,0.0,0.0,0.0,0.0,0.0,0.0,0.0,0.0,0.0,0.0,0.0,0.0,0.0,0.0,0.0,0.0,0.0,0.0,0.0,0.0,0.0,0.0,0.0,0.0,0.0,0.0,0.0,0.0,0.0,0.0,0.0,0.0,0.0,0.0,0.0,0.0,0.0,0.0,0.0,0.0,0.0,0.0,0.0,0.0,0.0,0.0,0.0,0.0,0.0,0.0,0.0,0.0,0.0,0.0,0.0,0.0,0.0,0.0,0.0,0.0,0.0,0.0,0.0,0.0,0.0,0.0,0.0,0.0,0.0,0.0,0.0,0.0,0.0,0.0,0.0,0.0,0.0,0.0,0.0,0.0,0.0,0.0,0.0,0.0,0.0,0.0,0.0,0.0,0.0,0.0,0.0,0.0,0.0,0.0,0.0,0.0,0.0,0.0,0.0,0.0,0.0,0.0,0.0,0.0,0.0,0.0,0.0,0.0,0.0,0.0,0.0,0.0,0.0,0.0,0.0,0.0,0.0,0.0,0.0,0.0,0.0,0.0,0.0,0.0,0.0,0.0,0.0,0.0,0.0,0.0,0.0,0.0,0.0,0.0,0.0,0.0,0.0,0.0,0.0,0.0,0.0,0.0,0.0,0.0,0.0,0.0,0.0,0.0,0.0,0.0,0.0,0.0,0.0,0.0,0.0,0.0,0.0,0.0,0.0,0.0,0.0,0.0,0.0,0.0,0.0,0.0,0.0,0.0,0.0,0.0,0.0,0.0,0.0,0.0,0.0,0.0,0.0,0.0,0.0,0.0,0.0,0.0,0.0,0.0,0.0,0.0,0.0,0.0,0.0,0.0,0.0,0.0,0.0,0.0,0.0,0.0,0.0,0.0,0.0,0.0,0.0,0.0,0.0,0.0,0.0,0.0,0.0,0.0,0.0,0.0,0.0,0.0,0.0,0.0,0.0,0.0,0.0,0.0,0.0,0.0,0.0,0.0,0.0,0.0,0.0,0.0,0.0,0.0,0.0,0.0,0.0,0.0,0.0,0.0,0.0,0.0,0.0,0.0,0.0,0.0,0.0,0.0,0.0,0.0,0.0,0.0,0.0,0.0,0.0,0.0,0.0,0.0,0.0,0.0,0.0,0.0,0.0,0.0,0.0,0.0,0.0,0.0,0.0,0.0,0.0,0.0,0.0,0.0,0.0,0.0,0.0,0.0,0.0,0.0,0.0,0.0,0.0,0.0,0.0,0.0,0.0,0.0,0.0,0.0,0.0,0.0,0.0,0.0,0.0,0.0,0.0,0.0,0.0,0.0,0.0,0.0,0.0,0.0,0.0,0.0,0.0,0.0,0.0,0.0,0.0,0.0,0.0,0.0,0.0,0.0,0.0,0.0,0.0,0.0,0.0,0.0,0.0,0.0,0.0,0.0,0.0,0.0,0.0,0.0,0.0,0.0,0.0,0.0,0.0,0.0,0.0,0.0,0.0,0.0,0.0,0.0,0.0,0.0,0.0,0.0,0.0,0.0,0.0,0.0,0.0,0.0,0.0,0.0,0.0,0.0,0.0,0.0,0.0,0.0,0.0,0.0,0.0,0.0,0.0,0.0,0.0,0.0,0.0,0.0,0.0,0.0,0.0,0.0,0.0,0.0,0.0,0.0,0.0,0.0,0.0,0.0,0.0,0.0,0.0,0.0,0.0,0.0,0.0,0.0,0.0,0.0,0.0,0.0,0.0,0.0,0.0,0.0,0.0,0.0,0.0,0.0,0.0,0.0,0.0,0.0,0.0,0.0,0.0,0.0,0.0,0.0,0.0,0.0,0.0,0.0,0.0,0.0,0.0,0.0,0.0,0.0,0.0,0.0,0.0,0.0,0.0,0.0,0.0,0.0,0.0,0.0,0.0,0.0,0.0,0.0,0.0,0.0,0.0,0.0,0.0,0.0,0.0,0.0,0.0,0.0,0.0,0.0,0.0,0.0,0.0,0.0,0.0,0.0,0.0,0.0,0.0,0.0,0.0,0.0,0.0,0.0,0.0,0.0,0.0,0.0,0.0,0.0,0.0,0.0,0.0,0.0,0.0,0.0,0.0,0.0,0.0,0.0,0.0,0.0,0.0,0.0,0.0,0.0,0.0,0.0,0.0,0.0,0.0,0.0,0.0,0.0,0.0,0.0,0.0,0.0,0.0,0.0,0.0,0.0,0.0,0.0,0.0,0.0,0.0,0.0,0.0,0.0,0.0,0.0,0.0,0.0,0.0,0.0,0.0,0.0,0.0,0.0,0.0,0.0,0.0,0.0,0.0,0.0,0.0,0.0,0.0,0.0,0.0,0.0,0.0,0.0,0.0,0.0,0.0,0.0,0.0,0.0,0.0,0.0,0.0,0.0,0.0,0.0,0.0,0.0,0.0,0.0,0.0,0.0,0.0,0.0,0.0,0.0,0.0,0.0,0.0,0.0,0.0,0.0,0.0,0.0,0.0,0.0,0.0,0.0,0.0,0.0,0.0,0.0,0.0,0.0,0.0,0.0,0.0,0.0,0.0,0.0,0.0,0.0,0.0,0.0,0.0,0.0,0.0,0.0,0.0,0.0,0.0,0.0,0.0,0.0,0.0,0.0,0.0,0.0,0.0,0.0,0.0,0.0,0.0,0.0,0.0,0.0,0.0,0.0,0.0,0.0,0.0,0.0,0.0,0.0,0.0,0.0,0.0,0.0,0.0,0.0,0.0,0.0,0.0,0.0,0.0,0.0,0.0,0.0,0.0,0.0,0.0,0.0,0.0,0.0,0.0,0.0,0.0,0.0,0.0,0.0,0.0,0.0,0.0,0.0,0.0,0.0,0.0,0.0,0.0,0.0,0.0,0.0,0.0,0.0,0.0,0.0,0.0,0.0,0.0,0.0,0.0,0.0,0.0,0.0,0.0,0.0,0.0,0.0,0.0,0.0,0.0,0.0,0.0,0.0,0.0,0.0,0.0,0.0,0.0,0.0,0.0,0.0,0.0,0.0,0.0,0.0,-0.5874,0.0,0.0,0.0,0.0,0.0,0.0,0.0,0.0,0.0,0.0,0.0,0.0,0.0,0.0,0.0,0.0,0.0,0.0,0.0,0.0,0.0,0.0,0.0,0.0,0.0,0.0,0.0,0.0,0.0,0.0,0.0,0.0,0.0,0.0,0.0,0.0,0.0,0.0,0.0,0.0,0.0,0.0,0.0,0.0,0.0,0.0,0.0,0.0,0.0,0.0,0.0,0.0,0.0,0.0,0.0,0.0,0.0,0.0,0.0,0.0,0.0,0.0,0.0,0.0,0.0,0.0,0.0,0.0,0.0,0.0,0.0,0.0,0.0,0.0,0.0,0.0,0.0,0.0,0.0,0.0,0.0,0.0,0.0,0.0,0.0,0.0,0.0,0.0,0.0,0.0,0.0,0.0,0.0,0.0,0.0,0.0,0.0,0.0,0.0,0.0,0.0,0.0,0.0,0.0,0.0,0.0,0.0,0.0,0.0,0.0,-0.6321,-0.642,-0.642,-0.6254,-0.5904,0.0,0.0,0.0,0.0,0.0,0.0,0.0,0.0,0.0,0.0,0.0,0.0,0.0,0.0,0.0,0.0,0.0,0.0,0.0,0.0,0.0,0.0,0.0,0.0,0.0,0.0,0.0,0.0,0.0,0.0,0.0,0.0,0.0,0.0,0.0,0.0,0.0,0.0,0.0,0.0,0.0,0.0,0.0,0.0,0.0,0.0,0.0,0.0,0.0,0.0,0.0,0.0,0.0,0.0,0.0,0.0,0.0,0.0,0.0,0.0,0.0,0.0,0.0,0.0,0.0,0.0,0.0,0.0,0.0,0.0,0.0,0.0,0.0,0.0,0.0,0.0,0.0,0.0,0.0,0.0,0.0,0.0,0.0,0.0,0.0,0.0,0.0,0.0,0.0,0.0,0.0,0.0,0.0,0.0,0.0,0.0,0.0,0.0,0.0,0.0,0.0,0.0,0.0,0.0,0.0,0.0,0.0,0.0,0.0,0.0,0.0,0.0,-0.6542,-0.6371,-0.6022,0.0,0.0,0.0,0.0,0.0,0.0,0.0,0.0,0.0,0.0,0.0,0.0,0.0,0.0,0.0,0.0,0.0,0.0,0.0,0.0,0.0,0.0,0.0,0.0,0.0,0.0,0.0,0.0,0.0,0.0,0.0,0.0,0.0,0.0,0.0,0.0,0.0,0.0,0.0,0.0,0.0,0.0,0.0,0.0,0.0,0.0,0.0,0.0,0.0,0.0,0.0,0.0,0.0,0.0,0.0,0.0,0.0,0.0,0.0,0.0,0.0,0.0,0.0,0.0,0.0,0.0,0.0,0.0,0.0,0.0,0.0,0.0,0.0,0.0,0.0,0.0,0.0,0.0,0.0,0.0,0.0,0.0,0.0,0.0,0.0,0.0,0.0,0.0,0.0,0.0,0.0,0.0,0.0,0.0,0.0,0.0,0.0,0.0,0.0,0.0,0.0,0.0,0.0,0.0,0.0,0.0,0.0,0.0,0.0,0.0,-0.6574,-0.6926,-0.6935,0.0,-0.6388,0.0,0.0,0.0,0.0,0.0,0.0,0.0,0.0,0.0,0.0,0.0,0.0,0.0,0.0,0.0,0.0,0.0,0.0,0.0,0.0,0.0,0.0,0.0,0.0,0.0,0.0,0.0,0.0,0.0,0.0,0.0,0.0,0.0,0.0,0.0,0.0,0.0,0.0,0.0,0.0,0.0,0.0,0.0,0.0,0.0,0.0,0.0,0.0,0.0,0.0,0.0,0.0,0.0,0.0,0.0,0.0,0.0,0.0,0.0,0.0,0.0,0.0,0.0,0.0,0.0,0.0,0.0,0.0,0.0,0.0,0.0,0.0,0.0,0.0,0.0,0.0,0.0,0.0,0.0,0.0,0.0,0.0,0.0,0.0,0.0,0.0,0.0,0.0,0.0,0.0,0.0,0.0,0.0,0.0,0.0,0.0,0.0,0.0,0.0,0.0,0.0,0.0,0.0,0.0,0.0,0.0,0.0,0.0,0.0,0.0,-0.6841,-0.6984,-0.678,-0.6513,0.0,0.0,0.0,0.0,0.0,0.0,0.0,0.0,0.0,0.0,0.0,0.0,0.0,0.0,0.0,0.0,0.0,0.0,0.0,0.0,0.0,0.0,0.0,0.0,0.0,0.0,0.0,0.0,0.0,0.0,0.0,0.0,0.0,0.0,0.0,0.0,0.0,0.0,0.0,0.0,0.0,0.0,0.0,0.0,0.0,0.0,0.0,0.0,0.0,0.0,0.0,0.0,0.0,0.0,0.0,0.0,0.0,0.0,0.0,0.0,0.0,0.0,0.0,0.0,0.0,0.0,0.0,0.0,0.0,0.0,0.0,0.0,0.0,0.0,0.0,0.0,0.0,0.0,0.0,0.0,0.0,0.0,0.0,0.0,0.0,0.0,0.0,0.0,0.0,0.0,0.0,0.0,0.0,0.0,0.0,0.0,0.0,0.0,0.0,0.0,0.0,0.0,0.0,0.0,0.0,0.0,0.0,0.0,0.0,0.0,-0.6798,-0.6959,-0.7049,-0.6773,-0.6461,-0.615,0.0,0.0,0.0,0.0,0.0,0.0,0.0,0.0,0.0,0.0,0.0,0.0,0.0,0.0,0.0,0.0,0.0,0.0,0.0,0.0,0.0,0.0,0.0,0.0,0.0,0.0,0.0,0.0,0.0,0.0,0.0,0.0,0.0,0.0,0.0,0.0,0.0,0.0,0.0,0.0,0.0,0.0,0.0,0.0,0.0,0.0,0.0,0.0,0.0,0.0,0.0,0.0,0.0,0.0,0.0,0.0,0.0,0.0,0.0,0.0,0.0,0.0,0.0,0.0,0.0,0.0,0.0,0.0,0.0,0.0,0.0,0.0,0.0,0.0,0.0,0.0,0.0,0.0,0.0,0.0,0.0,0.0,0.0,0.0,0.0,0.0,0.0,0.0,0.0,0.0,0.0,0.0,0.0,0.0,0.0,0.0,0.0,0.0,0.0,0.0,0.0,0.0,0.0,0.0,0.0,0.0,0.0,0.0,0.0,-0.6855,-0.6859,-0.7171,-0.7159,-0.6786,0.0,0.0,0.0,0.0,0.0,0.0,0.0,0.0,0.0,0.0,0.0,0.0,0.0,0.0,0.0,0.0,0.0,0.0,0.0,0.0,0.0,0.0,0.0,0.0,0.0,0.0,0.0,0.0,0.0,0.0,0.0,0.0,0.0,0.0,0.0,0.0,0.0,0.0,0.0,0.0,0.0,0.0,0.0,0.0,0.0,0.0,0.0,0.0,0.0,0.0,0.0,0.0,0.0,0.0,0.0,0.0,0.0,0.0,0.0,0.0,0.0,0.0,0.0,0.0,0.0,0.0,0.0,0.0,0.0,0.0,0.0,0.0,0.0,0.0,0.0,0.0,0.0,0.0,0.0,0.0,0.0,0.0,0.0,0.0,0.0,0.0,0.0,0.0,0.0,0.0,0.0,0.0,0.0,0.0,0.0,0.0,0.0,0.0,0.0,0.0,0.0,0.0,0.0,0.0,0.0,0.0,0.0,0.0,0.0,-0.6351,-0.6457,-0.6899,-0.7623,-0.6855,-0.6323,0.0,0.0,0.0,0.0,0.0,0.0,0.0,0.0,0.0,0.0,0.0,0.0,0.0,0.0,0.0,0.0,0.0,0.0,0.0,0.0,0.0,0.0,0.0,0.0,0.0,0.0,0.0,0.0,0.0,0.0,0.0,0.0,0.0,0.0,0.0,0.0,0.0,0.0,0.0,0.0,0.0,0.0,0.0,0.0,0.0,0.0,0.0,0.0,0.0,0.0,0.0,0.0,0.0,0.0,0.0,0.0,0.0,0.0,0.0,0.0,0.0,0.0,0.0,0.0,0.0,0.0,0.0,0.0,0.0,0.0,0.0,0.0,0.0,0.0,0.0,0.0,0.0,0.0,0.0,0.0,0.0,0.0,0.0,0.0,0.0,0.0,0.0,0.0,0.0,0.0,0.0,0.0,0.0,0.0,0.0,0.0,0.0,0.0,0.0,0.0,0.0,0.0,0.0,0.0,0.0,0.0,0.0,0.0,0.0,-0.6257,0.0,-0.7119,-0.7598,-0.6718,-0.6071,0.0,0.0,0.0,0.0,0.0,0.0,0.0,0.0,0.0,0.0,0.0,0.0,0.0,0.0,0.0,0.0,0.0,0.0,0.0,0.0,0.0,0.0,0.0,0.0,0.0,0.0,0.0,0.0,0.0,0.0,0.0,0.0,0.0,0.0,0.0,0.0,0.0,0.0,0.0,0.0,0.0,0.0,0.0,0.0,0.0,0.0,0.0,0.0,0.0,0.0,0.0,0.0,0.0,0.0,0.0,0.0,0.0,0.0,0.0,0.0,0.0,0.0,0.0,0.0,0.0,0.0,0.0,0.0,0.0,0.0,0.0,0.0,0.0,0.0,0.0,0.0,0.0,0.0,0.0,0.0,0.0,0.0,0.0,0.0,0.0,0.0,0.0,0.0,0.0,0.0,0.0,0.0,0.0,0.0,0.0,0.0,0.0,0.0,0.0,0.0,0.0,0.0,0.0,0.0,0.0,0.0,0.0,0.0,-0.5862,-0.6935,-0.7473,-0.7506,-0.7064,-0.6808,-0.6095,0.0,0.0,0.0,0.0,0.0,0.0,0.0,0.0,0.0,0.0,0.0,0.0,0.0,0.0,0.0,0.0,0.0,0.0,0.0,0.0,0.0,0.0,0.0,0.0,0.0,0.0,0.0,0.0,0.0,0.0,0.0,0.0,0.0,0.0,0.0,0.0,0.0,0.0,0.0,0.0,0.0,0.0,0.0,0.0,0.0,0.0,0.0,0.0,0.0,0.0,0.0,0.0,0.0,0.0,0.0,0.0,0.0,0.0,0.0,0.0,0.0,0.0,0.0,0.0,0.0,0.0,0.0,0.0,0.0,0.0,0.0,0.0,0.0,0.0,0.0,0.0,0.0,0.0,0.0,0.0,0.0,0.0,0.0,0.0,0.0,0.0,0.0,0.0,0.0,0.0,0.0,0.0,0.0,0.0,0.0,0.0,0.0,0.0,0.0,0.0,0.0,0.0,0.0,0.0,0.0,0.0,0.0,0.0,0.0,-0.6583,-0.7029,-0.74,-0.7634,-0.671,-0.6132,0.0,0.0,0.0,0.0,0.0,0.0,0.0,0.0,0.0,0.0,0.0,0.0,0.0,0.0,0.0,0.0,0.0,0.0,0.0,0.0,0.0,0.0,0.0,0.0,0.0,0.0,0.0,0.0,0.0,0.0,0.0,0.0,0.0,0.0,0.0,0.0,0.0,0.0,0.0,0.0,0.0,0.0,0.0,0.0,0.0,0.0,0.0,0.0,0.0,0.0,0.0,0.0,0.0,0.0,0.0,0.0,0.0,0.0,0.0,0.0,0.0,0.0,0.0,0.0,0.0,0.0,0.0,0.0,0.0,0.0,0.0,0.0,0.0,0.0,0.0,0.0,0.0,0.0,0.0,0.0,0.0,0.0,0.0,0.0,0.0,0.0,0.0,0.0,0.0,0.0,0.0,0.0,0.0,0.0,0.0,0.0,0.0,0.0,0.0,0.0,0.0,0.0,0.0,0.0,0.0,0.0,0.0,0.0,0.0,-0.7029,-0.7431,-0.7764,-0.8004,-0.7103,-0.6634,-0.6713,0.0,0.0,0.0,0.0,0.0,0.0,0.0,0.0,0.0,0.0,0.0,0.0,0.0,0.0,0.0,0.0,0.0,0.0,0.0,0.0,0.0,0.0,0.0,0.0,0.0,0.0,0.0,0.0,0.0,0.0,0.0,0.0,0.0,0.0,0.0,0.0,0.0,0.0,0.0,0.0,0.0,0.0,0.0,0.0,0.0,0.0,0.0,0.0,0.0,0.0,0.0,0.0,0.0,0.0,0.0,0.0,0.0,0.0,0.0,0.0,0.0,0.0,0.0,0.0,0.0,0.0,0.0,0.0,0.0,0.0,0.0,0.0,0.0,0.0,0.0,0.0,0.0,0.0,0.0,0.0,0.0,0.0,0.0,0.0,0.0,0.0,0.0,0.0,0.0,0.0,0.0,0.0,0.0,0.0,0.0,0.0,0.0,0.0,0.0,0.0,0.0,0.0,0.0,0.0,0.0,0.0,0.0,0.0,-0.8048,-0.8593,-0.8625,-0.8109,-0.7912,-0.7516,0.0,0.0,0.0,0.0,0.0,0.0,0.0,0.0,0.0,0.0,0.0,0.0,0.0,0.0,0.0,0.0,0.0,0.0,0.0,0.0,0.0,0.0,0.0,0.0,0.0,0.0,0.0,0.0,0.0,0.0,0.0,0.0,0.0,0.0,0.0,0.0,0.0,0.0,0.0,0.0,0.0,0.0,0.0,0.0,0.0,0.0,0.0,0.0,0.0,0.0,0.0,0.0,0.0,0.0,0.0,0.0,0.0,0.0,0.0,0.0,0.0,0.0,0.0,0.0,0.0,0.0,0.0,0.0,0.0,0.0,0.0,0.0,0.0,0.0,0.0,0.0,0.0,0.0,0.0,0.0,0.0,0.0,0.0,0.0,0.0,0.0,0.0,0.0,0.0,0.0,0.0,0.0,0.0,0.0,0.0,0.0,0.0,0.0,0.0,0.0,0.0,0.0,0.0,0.0,0.0,0.0,0.0,0.0,0.0,-0.8597,-0.9263,-0.9413,-0.9049,-0.8712,-0.8295,0.0,0.0,0.0,0.0,0.0,0.0,0.0,0.0,0.0,0.0,0.0,0.0,0.0,0.0,0.0,0.0,0.0,0.0,0.0,0.0,0.0,0.0,0.0,0.0,0.0,0.0,0.0,0.0,0.0,0.0,0.0,0.0,0.0,0.0,0.0,0.0,0.0,0.0,0.0,0.0,0.0,0.0,0.0,0.0,0.0,0.0,0.0,0.0,0.0,0.0,0.0,0.0,0.0,0.0,0.0,0.0,0.0,0.0,0.0,0.0,0.0,0.0,0.0,0.0,0.0,0.0,0.0,0.0,0.0,0.0,0.0,0.0,0.0,0.0,0.0,0.0,0.0,0.0,0.0,0.0,0.0,0.0,0.0,0.0,0.0,0.0,0.0,0.0,0.0,0.0,0.0,0.0,0.0,0.0,0.0,0.0,0.0,0.0,0.0,0.0,0.0,0.0,0.0,0.0,0.0,0.0,0.0,0.0,-0.825,-0.9098,-0.9786,-1.0018,-0.9811,-0.9313,-0.8843,0.0,0.0,0.0,0.0,0.0,0.0,0.0,0.0,0.0,0.0,0.0,0.0,0.0,0.0,0.0,0.0,0.0,0.0,0.0,0.0,0.0,0.0,0.0,0.0,0.0,0.0,0.0,0.0,0.0,0.0,0.0,0.0,0.0,0.0,0.0,0.0,0.0,0.0,0.0,0.0,0.0,0.0,0.0,0.0,0.0,0.0,0.0,0.0,0.0,0.0,0.0,0.0,0.0,0.0,0.0,0.0,0.0,0.0,0.0,0.0,0.0,0.0,0.0,0.0,0.0,0.0,0.0,0.0,0.0,0.0,0.0,0.0,0.0,0.0,0.0,0.0,0.0,0.0,0.0,0.0,0.0,0.0,0.0,0.0,0.0,0.0,0.0,0.0,0.0,0.0,0.0,0.0,0.0,0.0,0.0,0.0,0.0,0.0,0.0,0.0,0.0,0.0,0.0,0.0,0.0,0.0,0.0,0.0,-0.848,-0.9632,-1.0164,-1.0383,-1.04,-0.9811,-0.9308,0.0,0.0,0.0,0.0,0.0,0.0,0.0,0.0,0.0,0.0,0.0,0.0,0.0,0.0,0.0,0.0,0.0,0.0,0.0,0.0,0.0,0.0,0.0,0.0,0.0,0.0,0.0,0.0,0.0,0.0,0.0,0.0,0.0,0.0,0.0,0.0,0.0,0.0,0.0,0.0,0.0,0.0,0.0,0.0,0.0,0.0,0.0,0.0,0.0,0.0,0.0,0.0,0.0,0.0,0.0,0.0,0.0,0.0,0.0,0.0,0.0,0.0,0.0,0.0,0.0,0.0,0.0,0.0,0.0,0.0,0.0,0.0,0.0,0.0,0.0,0.0,0.0,0.0,0.0,0.0,0.0,0.0,0.0,0.0,0.0,0.0,0.0,0.0,0.0,0.0,0.0,0.0,0.0,0.0,0.0,0.0,0.0,0.0,0.0,0.0,0.0,0.0,0.0,0.0,0.0,0.0,0.0,0.0,-0.8985,-0.9811,-1.0225,-1.0383,-1.0432,-1.0114,-0.9811,0.0,0.0,0.0,0.0,0.0,0.0,0.0,0.0,0.0,0.0,0.0,0.0,0.0,0.0,0.0,0.0,0.0,0.0,0.0,0.0,0.0,0.0,0.0,0.0,0.0,0.0,0.0,0.0,0.0,0.0,0.0,0.0,0.0,0.0,0.0,0.0,0.0,0.0,0.0,0.0,0.0,0.0,0.0,0.0,0.0,0.0,0.0,0.0,-1.0689,0.0,0.0,0.0,0.0,0.0,0.0,0.0,0.0,0.0,0.0,0.0,0.0,0.0,0.0,0.0,0.0,0.0,0.0,0.0,0.0,0.0,0.0,0.0,0.0,0.0,0.0,0.0,0.0,0.0,0.0,0.0,0.0,0.0,0.0,0.0,0.0,0.0,0.0,0.0,0.0,0.0,0.0,0.0,0.0,0.0,0.0,0.0,0.0,0.0,0.0,0.0,0.0,0.0,0.0,0.0,0.0,0.0,0.0,0.0,-0.9155,-0.9868,-1.0245,-1.0396,-1.029,-1.0511,-1.0308,0.0,0.0,0.0,0.0,0.0,0.0,0.0,0.0,0.0,0.0,0.0,0.0,0.0,0.0,0.0,0.0,0.0,0.0,0.0,0.0,0.0,0.0,0.0,0.0,0.0,0.0,0.0,0.0,0.0,0.0,0.0,0.0,0.0,0.0,0.0,0.0,0.0,0.0,0.0,0.0,0.0,0.0,0.0,0.0,0.0,0.0,0.0,0.0,0.0,0.0,0.0,0.0,0.0,0.0,0.0,0.0,0.0,0.0,0.0,0.0,0.0,0.0,0.0,0.0,0.0,0.0,0.0,0.0,0.0,0.0,0.0,0.0,0.0,0.0,0.0,0.0,0.0,0.0,0.0,0.0,0.0,0.0,0.0,0.0,0.0,0.0,0.0,0.0,0.0,0.0,0.0,0.0,0.0,0.0,0.0,0.0,0.0,0.0,0.0,0.0,0.0,0.0,0.0,0.0,0.0,0.0,0.0,-0.8162,-0.9148,-0.9864,-1.0188,-1.0274,-1.0171,-1.0753,-1.07,-0.9771,0.0,0.0,0.0,0.0,0.0,0.0,0.0,0.0,0.0,0.0,0.0,0.0,0.0,0.0,0.0,0.0,0.0,0.0,0.0,0.0,0.0,0.0,0.0,0.0,0.0,0.0,0.0,0.0,0.0,0.0,0.0,0.0,0.0,0.0,0.0,0.0,0.0,0.0,-0.9581,-1.0991,0.0,0.0,0.0,0.0,0.0,0.0,0.0,0.0,-1.1496,0.0,0.0,0.0,0.0,0.0,0.0,0.0,0.0,0.0,0.0,0.0,0.0,0.0,0.0,0.0,0.0,0.0,0.0,0.0,0.0,0.0,0.0,0.0,0.0,0.0,0.0,0.0,0.0,0.0,0.0,0.0,0.0,0.0,0.0,0.0,0.0,0.0,0.0,0.0,0.0,0.0,0.0,0.0,0.0,0.0,0.0,0.0,0.0,0.0,0.0,0.0,0.0,0.0,0.0,0.0,0.0,-0.7834,-0.8364,-0.9051,-0.986,-0.9945,-0.9961,-0.9971,-1.0498,-1.0572,-1.006,0.0,0.0,0.0,0.0,0.0,0.0,0.0,0.0,0.0,0.0,0.0,0.0,0.0,0.0,0.0,0.0,0.0,0.0,0.0,0.0,0.0,0.0,0.0,0.0,0.0,0.0,0.0,0.0,0.0,0.0,0.0,0.0,0.0,0.0,0.0,0.0,0.0,0.0,0.0,-1.2451,-1.3062,0.0,0.0,0.0,0.0,0.0,0.0,0.0,0.0,-1.3309,0.0,0.0,0.0,0.0,0.0,0.0,0.0,0.0,0.0,0.0,0.0,0.0,0.0,0.0,0.0,0.0,0.0,0.0,0.0,0.0,0.0,0.0,0.0,0.0,0.0,0.0,0.0,0.0,0.0,0.0,0.0,0.0,0.0,0.0,0.0,0.0,0.0,0.0,0.0,0.0,0.0,0.0,0.0,0.0,0.0,0.0,0.0,0.0,0.0,0.0,0.0,0.0,0.0,0.0,0.0,-0.7519,-0.8471,-0.918,-0.9738,-0.9839,-0.9843,-0.9792,-1.0486,-1.0556,0.0,0.0,0.0,0.0,0.0,0.0,0.0,0.0,0.0,0.0,0.0,0.0,0.0,0.0,0.0,0.0,0.0,0.0,0.0,0.0,0.0,0.0,0.0,0.0,0.0,0.0,0.0,0.0,0.0,0.0,0.0,0.0,0.0,0.0,0.0,0.0,0.0,0.0,0.0,0.0,-1.2973,-1.3585,-1.418,0.0,0.0,0.0,0.0,0.0,0.0,-1.4052,-1.3867,0.0,0.0,0.0,0.0,0.0,0.0,0.0,0.0,0.0,0.0,0.0,0.0,0.0,0.0,0.0,0.0,0.0,0.0,0.0,0.0,0.0,0.0,0.0,0.0,0.0,0.0,0.0,0.0,0.0,0.0,0.0,0.0,0.0,0.0,0.0,0.0,0.0,0.0,0.0,0.0,0.0,0.0,0.0,0.0,0.0,0.0,0.0,0.0,0.0,0.0,0.0,0.0,0.0,0.0,0.0,-0.7038,-0.8305,-0.9194,-0.9575,-0.9795,-0.9803,-0.9624,-1.0461,-1.0478,0.0,0.0,0.0,0.0,0.0,0.0,0.0,0.0,0.0,0.0,0.0,0.0,0.0,0.0,0.0,0.0,0.0,0.0,0.0,0.0,0.0,0.0,0.0,0.0,0.0,0.0,0.0,0.0,0.0,0.0,0.0,0.0,0.0,0.0,0.0,0.0,0.0,0.0,0.0,0.0,0.0,-1.4745,-1.5958,-1.4816,0.0,0.0,0.0,0.0,-1.542,-1.541,0.0,0.0,0.0,0.0,0.0,0.0,0.0,0.0,0.0,0.0,0.0,0.0,0.0,0.0,0.0,0.0,0.0,0.0,0.0,0.0,0.0,0.0,0.0,0.0,0.0,0.0,0.0,0.0,0.0,0.0,0.0,0.0,0.0,0.0,0.0,0.0,0.0,0.0,0.0,0.0,0.0,0.0,0.0,0.0,0.0,0.0,0.0,0.0,0.0,0.0,0.0,0.0,0.0,0.0,0.0,0.0,-0.6965,-0.7885,-0.8756,-0.9546,-0.9795,-0.9803,-0.9632,-1.0222,-1.0149,0.0,0.0,0.0,0.0,0.0,0.0,0.0,0.0,0.0,0.0,0.0,0.0,0.0,0.0,0.0,0.0,0.0,0.0,0.0,0.0,0.0,0.0,0.0,0.0,0.0,0.0,0.0,0.0,0.0,0.0,0.0,0.0,0.0,0.0,0.0,0.0,0.0,0.0,0.0,0.0,0.0,-1.7541,-1.5437,-1.5894,-1.6281,0.0,0.0,-1.7663,-1.7808,-1.9038,0.0,0.0,0.0,0.0,0.0,0.0,0.0,0.0,0.0,0.0,0.0,0.0,0.0,0.0,0.0,0.0,0.0,0.0,0.0,0.0,0.0,0.0,0.0,0.0,0.0,0.0,0.0,0.0,0.0,0.0,0.0,0.0,0.0,0.0,0.0,0.0,0.0,0.0,0.0,0.0,0.0,0.0,0.0,0.0,0.0,0.0,0.0,0.0,0.0,0.0,0.0,0.0,0.0,0.0,0.0,-0.6013,-0.6889,-0.8145,-0.912,-0.9758,-0.9847,-0.9851,-0.9774,-0.9556,-0.9329,0.0,0.0,0.0,0.0,0.0,0.0,0.0,0.0,0.0,0.0,0.0,0.0,0.0,0.0,0.0,0.0,0.0,0.0,0.0,0.0,0.0,0.0,0.0,0.0,0.0,0.0,0.0,0.0,0.0,0.0,0.0,0.0,0.0,0.0,0.0,0.0,0.0,0.0,0.0,0.0,0.0,0.0,-1.7912,-1.765,0.0,0.0,0.0,-1.8772,-1.9269,0.0,0.0,0.0,0.0,0.0,0.0,0.0,0.0,0.0,0.0,0.0,0.0,0.0,0.0,0.0,0.0,0.0,0.0,0.0,0.0,0.0,0.0,0.0,0.0,0.0,0.0,0.0,0.0,0.0,0.0,0.0,0.0,0.0,0.0,0.0,0.0,0.0,0.0,0.0,0.0,0.0,0.0,0.0,0.0,0.0,0.0,0.0,0.0,0.0,0.0,0.0,0.0,0.0,0.0,0.0,0.0,0.0,-0.6708,-0.8178,-0.9153,-0.9609,-0.9705,-0.974,-0.9638,-0.8926,0.0,0.0,0.0,0.0,0.0,0.0,0.0,0.0,0.0,0.0,0.0,0.0,0.0,0.0,0.0,0.0,0.0,0.0,0.0,0.0,0.0,0.0,0.0,0.0,0.0,0.0,0.0,-0.7793,0.0,0.0,0.0,0.0,0.0,0.0,0.0,0.0,0.0,0.0,0.0,0.0,0.0,0.0,-1.7676,-1.9723,-1.9274,-1.9296,0.0,0.0,-1.9838,-2.0502,-2.0611,-1.9949,0.0,0.0,0.0,0.0,0.0,0.0,0.0,0.0,0.0,0.0,0.0,0.0,0.0,0.0,0.0,0.0,0.0,0.0,0.0,0.0,0.0,0.0,0.0,0.0,0.0,0.0,0.0,0.0,0.0,0.0,0.0,0.0,0.0,0.0,0.0,0.0,0.0,0.0,0.0,0.0,0.0,0.0,0.0,0.0,0.0,0.0,0.0,0.0,0.0,0.0,0.0,0.0,0.0,0.0,0.0,-0.6421,-0.7626,-0.8496,-0.884,-0.92,-0.9242,-0.9067,-0.8652,-0.8187,0.0,0.0,0.0,0.0,0.0,0.0,0.0,0.0,0.0,0.0,0.0,0.0,0.0,0.0,0.0,0.0,0.0,0.0,0.0,0.0,0.0,0.0,0.0,0.0,0.0,0.0,0.0,0.0,0.0,0.0,0.0,0.0,0.0,0.0,0.0,0.0,0.0,0.0,0.0,0.0,0.0,-2.0009,-1.9369,-2.0551,-2.1717,0.0,0.0,-2.1638,-2.1676,-2.276,-2.2263,-1.8339,0.0,0.0,0.0,0.0,0.0,0.0,0.0,0.0,0.0,0.0,0.0,0.0,0.0,0.0,0.0,0.0,0.0,0.0,0.0,0.0,0.0,0.0,0.0,0.0,0.0,0.0,0.0,0.0,0.0,0.0,0.0,0.0,0.0,0.0,0.0,0.0,0.0,0.0,0.0,0.0,0.0,0.0,0.0,0.0,0.0,0.0,0.0,0.0,0.0,0.0,0.0,0.0,0.0,-0.5762,-0.6403,-0.7745,-0.8623,-0.8974,-0.9104,-0.9084,-0.8939,-0.8363,-0.7915,0.0,0.0,0.0,0.0,0.0,0.0,0.0,0.0,0.0,0.0,0.0,0.0,0.0,0.0,0.0,0.0,0.0,0.0,0.0,0.0,0.0,0.0,0.0,0.0,0.0,0.0,0.0,0.0,-0.8866,-0.932,-0.9576,0.0,0.0,0.0,0.0,0.0,0.0,0.0,0.0,0.0,0.0,-1.976,-2.0893,-2.1829,0.0,0.0,-2.2956,-2.2553,-2.2273,-2.2201,-2.1259,-1.8568,-1.7305,0.0,0.0,0.0,0.0,0.0,0.0,0.0,0.0,0.0,0.0,0.0,0.0,0.0,0.0,0.0,0.0,0.0,0.0,0.0,0.0,0.0,0.0,0.0,0.0,0.0,0.0,0.0,0.0,0.0,0.0,0.0,0.0,0.0,0.0,0.0,0.0,0.0,0.0,0.0,0.0,0.0,0.0,0.0,0.0,0.0,0.0,0.0,0.0,0.0,0.0,0.0,0.0,-0.5752,-0.6288,-0.7652,-0.8479,-0.8747,-0.8853,-0.8754,-0.8582,-0.805,-0.7662,0.0,0.0,0.0,0.0,0.0,0.0,0.0,0.0,0.0,0.0,0.0,0.0,0.0,0.0,0.0,0.0,0.0,0.0,0.0,0.0,0.0,0.0,0.0,0.0,0.0,0.0,0.0,0.0,-0.9079,-0.9598,-0.9739,0.0,0.0,0.0,0.0,0.0,0.0,0.0,0.0,0.0,0.0,-1.9829,-2.1527,-2.2205,-2.2673,-2.3215,-2.2863,-2.2408,-2.1942,-2.1445,-2.0452,-1.8495,0.0,0.0,0.0,0.0,0.0,0.0,0.0,0.0,0.0,0.0,0.0,0.0,0.0,0.0,0.0,0.0,0.0,0.0,0.0,0.0,0.0,0.0,0.0,0.0,0.0,0.0,0.0,0.0,0.0,0.0,0.0,0.0,0.0,0.0,0.0,0.0,0.0,0.0,0.0,0.0,0.0,0.0,0.0,0.0,0.0,0.0,0.0,0.0,0.0,0.0,0.0,0.0,0.0,-0.5614,-0.604,-0.7207,-0.7889,-0.8045,-0.8191,-0.8208,-0.7958,-0.7767,-0.7444,-0.6887,0.0,0.0,0.0,0.0,0.0,0.0,0.0,0.0,0.0,0.0,0.0,0.0,0.0,0.0,0.0,0.0,0.0,0.0,0.0,0.0,0.0,0.0,0.0,0.0,0.0,0.0,-0.782,-0.884,-0.9709,0.0,0.0,0.0,0.0,0.0,0.0,0.0,0.0,0.0,0.0,-1.9048,-2.0602,-2.0822,-2.1398,-2.1862,-2.1911,-2.1507,-2.0994,-2.0581,-2.0798,-2.0348,0.0,0.0,0.0,0.0,0.0,0.0,0.0,0.0,0.0,0.0,0.0,0.0,0.0,0.0,0.0,0.0,0.0,0.0,0.0,0.0,0.0,0.0,0.0,0.0,0.0,0.0,0.0,0.0,0.0,0.0,0.0,0.0,0.0,0.0,0.0,0.0,0.0,0.0,0.0,0.0,-0.1286,-0.1646,0.0,0.0,0.0,0.0,0.0,0.0,0.0,0.0,0.0,0.0,0.0,0.0,-0.5716,-0.6332,-0.7214,-0.779,-0.7982,-0.8039,-0.7994,-0.7839,-0.7688,-0.7465,-0.7074,0.0,0.0,0.0,0.0,0.0,0.0,0.0,0.0,0.0,0.0,0.0,0.0,0.0,0.0,0.0,0.0,0.0,0.0,0.0,0.0,0.0,0.0,0.0,0.0,0.0,-0.8268,0.0,0.0,0.0,0.0,0.0,0.0,0.0,0.0,0.0,0.0,0.0,-1.5487,-1.7338,-1.8688,-1.9847,-2.0847,-2.1576,-2.2171,0.0,0.0,0.0,0.0,0.0,0.0,0.0,0.0,0.0,0.0,0.0,0.0,0.0,0.0,-1.8548,-1.5956,-1.5977,-1.659,-1.7098,0.0,0.0,0.0,0.0,0.0,0.0,0.0,0.0,0.0,0.0,0.0,0.0,0.0,0.0,0.0638,0.0,0.0177,0.0,0.0,0.0,0.0,0.0,0.0,0.0,0.0,-0.079,-0.0968,-0.1227,-0.1353,-0.16,0.0,-0.1915,-0.2101,0.0,0.0,0.0,0.0,0.0,0.0,0.0,0.0,-0.5815,-0.6468,-0.7217,-0.7743,-0.7975,-0.7988,-0.7894,-0.7743,-0.7495,-0.7253,-0.7042,-0.6531,-0.6476,0.0,0.0,0.0,0.0,0.0,0.0,0.0,0.0,0.0,0.0,0.0,0.0,0.0,0.0,0.0,0.0,0.0,0.0,0.0,0.0,0.0,0.0,0.0,-0.8416,0.0,0.0,0.0,0.0,0.0,0.0,0.0,0.0,0.0,-1.4124,-1.5068,-1.6303,-1.7939,-1.8839,-1.9603,-2.0318,0.0,0.0,0.0,0.0,0.0,0.0,0.0,-1.9658,-1.9168,-1.9261,-1.953,-1.9955,-2.0514,-2.0855,-2.0653,0.0,0.0,-1.8255,-1.8489,-1.927,-1.9778,-2.0502,-2.1176,-2.159,-2.259,-2.3364,0.0,0.0,0.0,0.0,0.0,0.0,0.0,0.0,0.2369,0.1881,0.0,0.0623,0.0,0.0,0.0,0.0,0.0,-0.0078,0.0,0.0,-0.0869,-0.1052,-0.1576,-0.1546,-0.1516,-0.1489,-0.1483,-0.1651,-0.1944,-0.3065,0.0,0.0,0.0,0.0,0.0,0.0,-0.5905,-0.6542,-0.7227,-0.774,-0.7968,-0.7975,-0.7837,-0.7594,-0.7125,-0.6846,-0.6732,-0.6931,-0.6914,-0.6542,-0.6477,0.0,0.0,0.0,0.0,0.0,0.0,0.0,0.0,0.0,0.0,0.0,0.0,0.0,0.0,0.0,0.0,0.0,0.0,0.0,0.0,-0.8231,0.0,0.0,0.0,0.0,0.0,0.0,0.0,0.0,0.0,0.0,-1.5488,-1.6582,-1.7686,-1.8471,0.0,0.0,0.0,0.0,-2.0579,-2.0048,-2.0234,-2.0389,-2.0031,-2.0576,-2.0917,-2.0488,0.0,0.0,-2.1932,-2.1859,-2.1714,-2.13,-2.1998,-2.2394,-2.1748,-2.1857,-2.2358,-2.2966,-2.324,-2.3643,-2.4646,-2.5537,-2.636,0.6488,0.0,0.0,0.0,0.0,0.4627,0.437,0.4514,0.3535,0.3053,0.3023,0.1816,0.0,0.0,0.0,0.0,0.0,0.0,-0.0176,-0.056,-0.0799,-0.1042,-0.1379,-0.1563,-0.1649,-0.1638,-0.1576,-0.1614,-0.1695,-0.2558,-0.3118,-0.3366,0.0,0.0,0.0,0.0,-0.6461,-0.6943,-0.738,-0.7692,-0.7826,-0.7777,-0.7631,-0.7487,-0.7207,-0.7025,-0.6925,-0.6894,-0.697,-0.7168,-0.689,0.0,0.0,0.0,0.0,0.0,0.0,0.0,0.0,0.0,0.0,0.0,0.0,0.0,0.0,0.0,0.0,0.0,0.0,0.0,-0.8494,-0.8758,-0.9111,0.0,0.0,0.0,0.0,0.0,0.0,0.0,0.0,0.0,-1.7535,-1.751,-1.7762,0.0,0.0,-1.8924,-1.9178,-2.0159,-2.1019,-2.1435,-2.1741,0.0,0.0,-2.1311,-2.0767,-2.1321,-2.2025,-2.2666,-2.3194,-2.3008,-2.2853,-2.3069,-2.3467,-2.3738,-2.3613,-2.4138,-2.4827,-2.5613,-2.6245,-2.6744,-2.7107,-2.7774,-2.8443,0.7182,0.6695,0.6317,0.6238,0.6309,0.5748,0.5665,0.5808,0.4765,0.4305,0.4233,0.3035,0.2521,0.244,0.1247,0.0,0.0,0.0,-0.0143,-0.0404,-0.0731,-0.1022,-0.1322,-0.1562,-0.1704,-0.1701,-0.1626,-0.1583,-0.162,-0.2044,-0.2498,-0.3058,0.0,0.0,-0.5732,-0.6278,-0.6787,-0.7217,-0.7475,-0.7665,-0.7804,-0.7614,-0.7465,-0.7415,-0.7166,-0.6985,-0.6871,-0.6748,-0.6812,-0.7134,-0.6738,-0.6487,0.0,0.0,0.0,0.0,0.0,0.0,0.0,0.0,0.0,0.0,0.0,-0.6687,-0.6032,0.0,0.0,0.0,-0.7923,-0.849,-0.9204,-0.9424,0.0,0.0,0.0,0.0,0.0,0.0,0.0,-1.5469,-1.6658,-1.774,-1.849,-1.8496,-1.8609,-1.9206,-1.9094,-1.9142,-1.968,0.0,-2.1545,-2.2222,-2.2577,-2.2801,-2.2884,-2.2139,-2.1714,-2.2252,-2.2739,-2.3194,-2.3732,-2.3681,-2.3753,-2.4449,-2.4796,-2.5106,-2.5825,-2.6389,-2.6694,-2.686,-2.7693,-2.8386,-2.8423,-2.9012,-2.9593,0.7712,0.7652,0.7092,0.6853,0.6844,0.6834,0.6953,0.7085,0.5994,0.5568,0.5468,0.4266,0.3655,0.3374,0.2298,0.0,0.0,0.0,-0.0157,-0.0384,-0.0767,-0.105,-0.1288,-0.157,-0.1704,-0.1703,-0.1645,-0.1603,-0.1575,-0.1547,-0.1813,-0.2365,-0.3942,-0.5221,-0.6201,-0.6559,-0.6959,-0.7409,-0.7509,-0.7638,-0.775,-0.7495,-0.7395,-0.7374,-0.7071,-0.6851,-0.6685,-0.659,-0.6531,-0.6563,-0.6292,-0.6074,-0.5914,0.0,0.0,0.0,0.0,0.0,0.0,0.0,0.0,0.0,0.0,0.0,0.0,0.0,0.0,0.0,-0.9151,0.0,-1.0192,-1.0214,0.0,0.0,0.0,-1.2286,-1.3117,-1.4943,-1.6298,-1.6789,0.0,0.0,-1.8744,-1.9446,-1.999,-2.0059,-1.998,-2.0082,-2.0477,-2.1245,-2.1987,-2.2402,-2.2884,-2.3039,-2.2718,-2.2894,-2.308,-2.3029,-2.3546,-2.3867,-2.4033,-2.4033,-2.4513,-2.5679,-2.5902,-2.6337,-2.8091,-2.8219,-2.8189,-2.715,-2.8024,-2.8963,-2.9013,-2.9542,-2.9986,0.7782,0.7682,0.7448,0.7293,0.7201,0.7111,0.7158,0.7207,0.6903,0.6793,0.6697,0.5525,0.3962,0.2201,0.1916,0.1148,0.0,0.0,-0.0109,-0.039,-0.0725,-0.1061,-0.1288,-0.157,-0.1704,-0.1701,-0.1645,-0.1563,-0.1606,-0.1599,-0.1999,-0.2803,-0.3232,-0.408,-0.5391,-0.6613,-0.7265,-0.737,-0.7453,-0.7387,-0.7299,-0.7183,-0.7098,-0.7037,-0.6923,-0.68,-0.6579,-0.6659,-0.6613,-0.641,-0.6432,-0.6394,-0.614,-0.5547,0.0,0.0,0.0,0.0,0.0,0.0,0.0,0.0,0.0,-0.7976,-0.6787,0.0,-0.8396,0.0,-0.9913,-1.0858,-1.121,-1.1239,0.0,0.0,-1.3268,-1.4318,-1.5,-1.6791,-1.8012,-1.8149,-1.874,-1.9385,-2.0019,-2.0321,-2.0693,-2.1289,-2.0537,-1.9987,-2.0279,-2.0897,-2.1583,-2.2195,-2.2814,-2.3143,-2.307,-2.3412,-2.3453,-2.277,-2.3339,-2.4106,-2.4775,-2.4886,-2.5295,-2.6494,-2.6771,-2.6976,-2.7435,-2.8011,-2.839,-2.8228,-2.8887,-2.9591,-2.9591,-2.9742,-2.9946,0.7834,0.7769,0.7649,0.75,0.7269,0.7206,0.721,0.721,0.721,0.721,0.7149,0.6476,0.5154,0.3425,0.2827,0.1915,0.0774,0.0221,-0.0056,-0.0224,-0.0504,-0.0782,-0.0887,-0.1188,-0.1327,-0.1315,-0.1382,-0.1415,-0.1415,-0.1516,-0.1849,-0.2397,-0.2859,-0.3427,-0.4192,-0.5818,-0.6892,-0.737,-0.7302,-0.7179,-0.7102,-0.7095,-0.6997,-0.6837,-0.6759,-0.6583,-0.6288,-0.6263,-0.6226,-0.6122,-0.6144,-0.6099,-0.5958,-0.554,-0.5369,0.0,0.0,0.0,0.0,0.0,0.0,0.0,0.0,0.0,0.0,0.0,-0.9173,-0.9653,-1.0804,-1.1653,-1.2043,-1.2302,-1.2628,-1.3119,-1.4581,-1.5782,-1.645,-1.8091,-1.9309,-1.9709,-1.9972,-2.04,-2.1104,-2.1359,-2.1533,-2.1846,-2.1416,-2.1075,-2.1105,-2.151,-2.1948,-2.2461,-2.2898,-2.3194,-2.3194,-2.3401,-2.3442,-2.3027,-2.3747,-2.4662,-2.5131,-2.5536,-2.6205,-2.74,-2.7718,-2.7891,-2.8211,-2.8685,-2.9079,-2.9157,-2.9456,-2.9753,-2.9779,-2.9779,-2.983,0.7933,0.7861,0.7747,0.757,0.735,0.723,0.7207,0.7166,0.7166,0.7172,0.7191,0.7204,0.6541,0.5316,0.414,0.2966,0.1735,0.056,0.0,0.0,-0.028,-0.0388,-0.0383,-0.0752,-0.0896,-0.0882,-0.107,-0.1162,-0.1212,-0.1415,-0.1562,-0.1655,-0.2511,-0.2994,-0.307,-0.4542,-0.5927,-0.7128,-0.7091,-0.7068,-0.7068,-0.7048,-0.69,-0.6658,-0.6555,-0.6295,-0.5949,-0.5745,-0.57,-0.5823,-0.5716,-0.5687,-0.5708,-0.5544,-0.5418,0.0,-0.5253,0.0,0.0,0.0,0.0,0.0,0.0,0.0,0.0,-1.007,-1.0309,-1.0985,-1.1748,-1.2423,-1.287,-1.3375,-1.3748,-1.4138,-1.5538,-1.6767,-1.7359,-1.8951,-2.0294,-2.0983,-2.1199,-2.1475,-2.1894,-2.2295,-2.2363,-2.2178,-2.2334,-2.2347,-2.2251,-2.2238,-2.2362,-2.2798,-2.3011,-2.3039,-2.307,-2.3143,-2.3205,-2.3306,-2.4182,-2.5104,-2.5171,-2.5844,-2.6828,-2.8104,-2.8422,-2.8752,-2.9624,-2.974,-2.974,-2.974,-2.9753,-2.9779,-2.9779,-2.9779,-2.9779,0.7933,0.7858,0.775,0.7616,0.7475,0.7353,0.7138,0.6869,0.6866,0.6923,0.7078,0.7169,0.6541,0.5371,0.4139,0.291,0.1735,0.056,0.0,0.0,-0.0277,-0.0384,-0.0437,-0.0742,-0.0886,-0.0882,-0.0866,-0.101,-0.1212,-0.1263,-0.1343,-0.1544,-0.1728,-0.2211,-0.2858,0.0,0.0,0.0,-0.6634,-0.6927,-0.6963,-0.6848,-0.6644,-0.6395,-0.6358,0.0,-0.5701,-0.5728,-0.5647,-0.5524,-0.5835,0.0,0.0,0.0,0.0,0.0,0.0,0.0,0.0,0.0,0.0,0.0,-1.0637,-1.0742,-1.0553,-1.1208,-1.1874,-1.2451,-1.2996,-1.3529,-1.4081,-1.4245,-1.4406,-1.4761,-1.6257,-1.7203,-1.6992,-1.9248,-2.0776,-2.0195,-2.1106,-2.1914,-2.2305,-2.2471,-2.2617,-2.2779,-2.2925,-2.2852,-2.2494,-2.2073,-2.2,-2.2656,-2.2755,-2.2656,-2.2625,-2.2977,-2.3236,-2.3318,-2.3971,-2.4776,-2.5221,-2.5664,-2.6583,-2.8171,-2.8502,-2.8791,-2.9624,-2.9779,-2.9779,-2.9779,-2.9779,-2.9779,-2.9779,-2.9779,-2.9779,0.7933,0.0,0.7809,0.7682,0.0,0.7331,0.7165,0.6896,0.695,0.7065,0.7073,0.7185,0.6877,0.6202,0.4989,0.3756,0.2595,0.1371,0.0495,0.0,-0.0163,-0.0216,-0.0216,-0.0368,-0.0465,-0.0461,-0.0558,-0.0657,-0.0808,-0.1051,-0.1233,-0.1354,-0.1471,-0.172,-0.2185,-0.2585,-0.3678,-0.558,-0.6015,-0.6482,-0.698,-0.6913,-0.6776,-0.6532,0.0,0.0,0.0,0.0,0.0,0.0,0.0,0.0,0.0,0.0,0.0,-0.6708,-0.6855,-0.7333,-0.8283,-0.9257,-1.022,-1.1105,-1.1948,-1.2211,-1.1511,-1.2177,-1.2872,-1.3397,-1.3765,-1.418,-1.4735,-1.486,-1.5006,-1.5201,-1.6323,-1.6992,-1.696,-1.8816,-2.0129,-2.0111,-2.11,-2.2041,-2.2451,-2.2715,-2.2847,-2.3062,-2.3091,-2.3013,-2.2812,-2.2443,-2.2358,-2.2737,-2.2847,-2.2925,-2.3153,-2.3339,-2.3619,-2.3898,-2.4556,-2.5334,-2.6047,-2.6694,-2.7585,-2.8831,-2.917,-2.9339,-2.9663,-2.9779,-2.9779,-2.9779,-2.9779,-2.9779,-2.9779,-2.9779,-2.9779,0.7933,0.7933,0.7933,0.7747,0.7543,0.7442,0.7266,0.7051,0.0,0.0,0.0,0.7202,0.721,0.7091,0.5841,0.4766,0.3829,0.2316,0.1134,0.0329,0.0107,0.0,0.0,0.0,0.0,0.0,-0.0252,-0.0353,-0.0402,-0.0841,-0.1125,-0.1212,-0.1364,-0.1432,-0.1518,-0.226,-0.3416,-0.4966,-0.5332,-0.5933,-0.6784,-0.6943,-0.6889,-0.6668,-0.6539,-0.6361,-0.5963,-0.5783,-0.5644,-0.5627,-0.5664,-0.578,-0.5911,-0.6142,-0.6405,-0.6756,-0.7001,-0.7583,-0.857,-0.9601,-1.0715,-1.1873,-1.3044,-1.3387,-1.2554,-1.3046,-1.3575,-1.4015,-1.4233,-1.4509,-1.497,-1.5173,-1.5298,-1.534,-1.6105,-1.6617,-1.6583,-1.8106,-1.9317,-1.9748,-2.0803,-2.1864,-2.2418,-2.274,-2.3023,-2.3081,-2.3101,-2.3101,-2.3096,-2.2985,-2.2814,-2.2705,-2.29,-2.332,-2.3618,-2.3753,-2.4011,-2.4342,-2.5031,-2.5872,-2.6741,-2.7516,-2.8383,-2.9221,-2.9546,-2.9585,-2.974,-2.9779,-2.9779,-2.9779,-2.9779,-2.9779,-2.9779,-2.9779,-2.9779,0.7933,0.7933,0.7933,0.7796,0.7674,0.7657,0.751,0.7217,0.7092,0.701,0.7016,0.7169,0.721,0.7154,0.5915,0.5295,0.5012,0.2793,0.1702,0.0,0.0479,0.0,0.0,0.0,0.0,0.0,0.0,-0.015,-0.0395,-0.0492,-0.0724,-0.1077,-0.116,-0.1238,-0.1399,-0.1527,-0.2148,-0.3252,-0.4718,-0.5588,-0.5731,-0.6398,-0.6681,-0.6555,-0.6532,-0.6268,-0.5854,-0.5922,-0.5814,-0.561,-0.5867,-0.6033,-0.6072,-0.652,-0.6888,-0.7105,-0.7471,-0.7885,-0.8355,-0.9234,-1.059,-1.2391,-1.3484,-1.3861,-1.3467,-1.3768,-1.41,-1.4337,-1.4358,-1.4476,-1.4734,-1.4824,-1.4915,-1.5173,-1.5906,-1.6237,-1.5756,-1.74,-1.8698,-1.885,-1.9946,-2.1273,-2.2227,-2.2549,-2.2764,-2.2994,-2.3071,-2.3101,-2.3135,-2.327,-2.3067,-2.2556,-2.2823,-2.318,-2.3385,-2.3449,-2.3747,-2.4168,-2.4497,-2.5052,-2.5889,-2.6254,-2.6953,-2.8398,-2.8727,-2.904,-2.9611,-2.9779,-2.9779,-2.9779,-2.9779,-2.9779,-2.9741,-2.9729,-2.9754,0.7933,0.7933,0.7933,0.7903,0.7785,0.7657,0.7444,0.7269,0.7152,0.7133,0.7136,0.7188,0.721,0.7149,0.6536,0.5959,0.5349,0.4172,0.297,0.1792,0.1211,0.0625,0.0,0.0,0.0,0.0,0.0,-0.005,-0.0196,-0.034,-0.0524,-0.0741,-0.0961,-0.1222,-0.1391,-0.1391,-0.1614,-0.2107,-0.3413,-0.4583,-0.5591,-0.5976,-0.6346,-0.6792,-0.6763,-0.6627,-0.638,-0.6318,-0.6244,-0.6193,-0.6252,-0.6395,-0.6599,-0.6984,-0.7256,-0.7457,-0.7825,-0.8117,-0.8276,-0.9231,-1.0653,-1.2522,-1.3094,-1.3516,-1.3853,-1.4001,-1.4208,-1.4356,-1.4398,-1.4482,-1.4692,-1.4692,-1.4741,-1.4866,-1.5367,-1.5582,-1.5472,-1.6586,-1.7746,-1.828,-1.9415,-2.0619,-2.1663,-2.2217,-2.2559,-2.2793,-2.2925,-2.3081,-2.3091,-2.3222,-2.3201,-2.3008,-2.3238,-2.3476,-2.3539,-2.3582,-2.3811,-2.4143,-2.4292,-2.4628,-2.5319,-2.5611,-2.6419,-2.7747,-2.8285,-2.8858,-2.9611,-2.9779,-2.9779,-2.9779,-2.9779,-2.9704,-2.944,-2.9315,-2.9428,0.7933,0.7933,0.7933,0.7933,0.7847,0.7619,0.7464,0.7366,0.7276,0.721,0.721,0.721,0.721,0.7202,0.7117,0.6582,0.585,0.5363,0.4257,0.2665,0.224,0.1497,0.0466,0.0357,0.0252,0.0,0.0,0.0,0.0,-0.0287,-0.0469,-0.0597,-0.0949,-0.1256,-0.1391,-0.1391,-0.1391,-0.1436,-0.2152,-0.3358,-0.5006,-0.5275,-0.5852,-0.6691,-0.6686,-0.6701,-0.6876,-0.6702,-0.6614,-0.6688,-0.6586,-0.6658,-0.6929,-0.7154,-0.7417,-0.767,-0.8042,-0.8266,-0.84,-0.9338,-1.0636,-1.2229,-1.2571,-1.3088,-1.3962,-1.4088,-1.4166,-1.4279,-1.4321,-1.4405,-1.4531,-1.4573,-1.4573,-1.465,-1.4866,-1.5041,-1.5166,-1.5891,-1.6739,-1.7627,-1.8742,-1.9828,-2.0774,-2.1673,-2.2217,-2.2383,-2.2656,-2.2818,-2.2925,-2.2955,-2.3061,-2.3343,-2.3537,-2.3594,-2.3657,-2.3691,-2.3737,-2.3922,-2.399,-2.4304,-2.4807,-2.5273,-2.5909,-2.7015,-2.7675,-2.8237,-2.9102,-2.942,-2.9521,-2.9663,-2.9779,-2.9616,-2.9063,-2.9139,-2.9252,0.7933,0.7933,0.7933,0.7933,0.7845,0.7622,0.7513,0.7467,0.7258,0.721,0.721,0.721,0.721,0.7207,0.7196,0.7077,0.6893,0.5768,0.5087,0.4694,0.3618,0.2497,0.1499,0.1424,0.0958,0.0,0.0,0.0,0.0,-0.0281,-0.0597,-0.0991,-0.1257,-0.1391,-0.1391,-0.1391,-0.1391,-0.1391,-0.148,-0.2061,-0.3135,-0.3978,-0.487,-0.5808,-0.5844,-0.6136,-0.6814,-0.6859,-0.6827,-0.6715,-0.6692,-0.6688,-0.6743,-0.6909,-0.7215,-0.7565,-0.7816,-0.8103,-0.8563,-0.9419,-1.0332,-1.137,-1.2186,-1.3045,-1.3955,-1.4088,-1.4088,-1.4124,-1.4124,-1.4166,-1.4166,-1.4166,-1.4243,-1.444,-1.4608,-1.4831,-1.5082,-1.534,-1.5865,-1.6747,-1.7693,-1.8623,-1.9878,-2.0852,-2.1522,-2.1973,-2.209,-2.2246,-2.251,-2.2568,-2.2685,-2.2988,-2.3159,-2.3149,-2.3183,-2.3363,-2.3338,-2.3145,-2.3342,-2.3732,-2.4134,-2.4454,-2.4943,-2.5862,-2.6375,-2.6964,-2.7771,-2.8336,-2.8836,-2.922,-2.9464,-2.9553,-2.9101,-2.9202,-2.9515,0.7999,0.7933,0.7933,0.7933,0.7906,0.7695,0.7584,0.75,0.7336,0.7222,0.7215,0.721,0.721,0.721,0.721,0.721,0.7141,0.6547,0.5868,0.5196,0.4516,0.3627,0.2597,0.1872,0.1361,0.0908,0.0301,0.0,0.0,-0.0277,-0.0543,-0.0853,-0.1076,-0.1301,-0.1391,-0.1391,-0.1391,-0.1391,-0.1391,-0.1614,-0.2061,-0.2999,-0.3933,-0.4825,-0.5406,-0.5833,-0.6174,-0.6628,-0.6896,-0.6906,-0.6839,-0.6829,-0.6956,-0.7178,-0.7422,-0.7744,-0.8103,-0.84,-0.8604,-0.8955,-0.9515,-1.0419,-1.1322,-1.2272,-1.3179,-1.3743,-1.4088,-1.4088,-1.4088,-1.4088,-1.4088,-1.4088,-1.413,-1.4237,-1.4405,-1.4608,-1.4824,-1.5082,-1.5582,-1.6542,-1.7017,-1.7838,-1.9281,-2.0495,-2.1325,-2.1777,-2.1885,-2.1934,-2.2119,-2.2139,-2.2207,-2.2353,-2.2402,-2.2519,-2.2705,-2.2816,-2.2748,-2.2611,-2.2597,-2.2879,-2.3296,-2.3486,-2.3876,-2.4809,-2.5105,-2.5633,-2.6461,-2.6732,-2.7177,-2.793,-2.86,-2.8699,-2.8486,-2.8624,-2.8775,0.808,0.7939,0.7933,0.7933,0.7861,0.775,0.763,0.7508,0.7331,0.7269,0.7215,0.721,0.721,0.721,0.721,0.7196,0.715,0.6989,0.644,0.5636,0.5433,0.4788,0.3627,0.2871,0.2167,0.1562,0.0802,0.0,-0.0047,-0.032,-0.0493,-0.0718,-0.0942,-0.1166,-0.1301,-0.1391,-0.1391,-0.1391,-0.1391,-0.1391,-0.1524,-0.2107,-0.2955,-0.389,-0.4559,-0.5184,-0.5672,-0.6253,-0.6726,-0.7085,-0.6997,-0.6987,-0.7088,-0.7279,-0.7547,-0.79,-0.8252,-0.8524,-0.8616,-0.8616,-0.8955,-0.9816,-1.0549,-1.1456,-1.2528,-1.3349,-1.3822,-1.4088,-1.4088,-1.4088,-1.4088,-1.4088,-1.4088,-1.413,-1.4286,-1.4482,-1.4692,-1.4957,-1.5416,-1.6221,-1.6821,-1.7706,-1.9329,-2.0445,-2.1152,-2.1437,-2.1535,-2.1602,-2.168,-2.1709,-2.1748,-2.1855,-2.1904,-2.2021,-2.2285,-2.2344,-2.2232,-2.202,-2.1976,-2.2099,-2.2342,-2.2372,-2.2522,-2.3253,-2.3638,-2.4213,-2.5052,-2.5333,-2.5712,-2.6463,-2.7162,-2.7668,-2.7483,-2.7765,-2.791,0.8186,0.7933,0.7933,0.7933,0.7861,0.7755,0.7633,0.751,0.7394,0.7271,0.7218,0.721,0.721,0.721,0.721,0.7095,0.6989,0.6877,0.6702,0.6426,0.6356,0.5741,0.4784,0.4634,0.3577,0.1963,0.1639,0.0918,-0.0232,-0.0408,-0.0493,-0.0673,-0.0942,-0.1076,-0.1166,-0.1301,-0.1391,-0.1391,-0.1391,-0.1391,-0.1391,-0.148,-0.2016,-0.2867,-0.3045,-0.3937,-0.5364,-0.5714,-0.6157,-0.7051,-0.7037,-0.7041,-0.7095,-0.7139,-0.7367,-0.7852,-0.8072,-0.834,-0.8524,-0.8616,-0.8955,-0.9685,-0.9946,-1.0722,-1.2235,-1.2747,-1.3222,-1.3997,-1.4046,-1.4088,-1.4088,-1.4088,-1.4088,-1.413,-1.4286,-1.4482,-1.465,-1.4873,-1.5173,-1.5665,-1.687,-1.831,-2.0128,-2.0576,-2.0693,-2.0752,-2.0723,-2.086,-2.1172,-2.122,-2.1406,-2.166,-2.1787,-2.1916,-2.1904,-2.1914,-2.1719,-2.1497,-2.1421,-2.1511,-2.1213,-2.1149,-2.146,-2.1755,-2.2276,-2.2931,-2.3683,-2.4288,-2.4819,-2.5501,-2.6283,-2.6622,-2.6542,-2.742,-2.7576,0.8248,0.7933,0.7933,0.7933,0.7867,0.7826,0.7701,0.7521,0.7472,0.7339,0.7232,0.721,0.721,0.721,0.721,0.7147,0.6978,0.6858,0.6736,0.6613,0.6443,0.6184,0.5784,0.5135,0.4481,0.3673,0.2951,0.2055,0.0895,0.0046,-0.0448,-0.0538,-0.0762,-0.0942,-0.1076,-0.1166,-0.1256,-0.1391,-0.1391,-0.1391,-0.1391,-0.1391,-0.1615,-0.1973,-0.2553,-0.3224,-0.3892,-0.4467,-0.5225,-0.6163,-0.6207,-0.6473,-0.7051,-0.7279,-0.7459,-0.7639,-0.7984,-0.8248,-0.834,-0.8524,-0.8696,-0.9043,-0.9602,-1.0115,-1.0939,-1.1972,-1.2833,-1.3222,-1.3828,-1.4088,-1.4088,-1.4088,-1.4088,-1.413,-1.4166,-1.4286,-1.4482,-1.4699,-1.4957,-1.5416,-1.6829,-1.8278,-1.9036,-1.9883,-2.0566,-2.0615,-2.0615,-2.0693,-2.0752,-2.081,-2.0918,-2.1036,-2.1075,-2.1085,-2.1075,-2.1309,-2.1328,-2.1045,-2.0928,-2.1214,-2.1154,-2.0995,-2.1198,-2.17,-2.1892,-2.1935,-2.2758,-2.3275,-2.3793,-2.4049,-2.4875,-2.5554,-2.5577,-2.6396,-2.6669,0.8438,0.8244,0.8116,0.8058,0.8058,0.7933,0.7739,0.7532,0.7516,0.7383,0.724,0.721,0.721,0.721,0.721,0.7122,0.6931,0.6836,0.6714,0.6562,0.6422,0.6387,0.6287,0.5636,0.5135,0.4676,0.3701,0.265,0.1618,0.069,0.009,-0.0269,-0.0493,-0.0673,-0.0852,-0.1031,-0.1166,-0.1301,-0.1346,-0.1391,-0.1391,-0.1391,-0.1391,-0.148,-0.2062,-0.2598,-0.2867,-0.3535,-0.4423,-0.5497,-0.5722,-0.6118,-0.701,-0.7279,-0.7415,-0.7547,-0.79,-0.8157,-0.8204,-0.8432,-0.8612,-0.8608,-0.913,-0.9559,-0.9946,-1.1327,-1.2229,-1.279,-1.3525,-1.4088,-1.4088,-1.4088,-1.4088,-1.4088,-1.4088,-1.4201,-1.4398,-1.4524,-1.4908,-1.5616,-1.6665,-1.7674,-1.8407,-1.949,-2.0177,-2.0527,-2.0615,-2.0615,-2.0615,-2.0615,-2.0615,-2.0615,-2.0664,-2.0693,-2.0732,-2.0918,-2.1025,-2.0791,-2.0693,-2.0958,-2.1085,-2.0918,-2.1024,-2.1507,-2.1681,-2.1566,-2.1769,-2.2252,-2.2526,-2.2687,-2.3449,-2.4312,-2.4687,-2.5277,-2.5718,0.8918,0.8793,0.8552,0.8369,0.8305,0.8044,0.7731,0.754,0.7508,0.7369,0.7224,0.721,0.721,0.721,0.7196,0.7078,0.6844,0.6793,0.6665,0.6414,0.6392,0.6387,0.6387,0.6287,0.5787,0.4929,0.3755,0.2768,0.1907,0.1537,0.0959,0.0135,-0.0225,-0.0404,-0.0448,-0.0852,-0.1076,-0.1166,-0.1301,-0.1391,-0.1391,-0.1391,-0.1391,-0.1391,-0.148,-0.1928,-0.2777,-0.2867,-0.3669,-0.5272,-0.5586,-0.6118,-0.6918,-0.7139,-0.7231,-0.7459,-0.772,-0.7984,-0.8157,-0.8432,-0.8568,-0.8612,-0.8612,-0.9043,-0.9728,-1.0679,-1.1628,-1.2485,-1.3349,-1.4046,-1.4088,-1.4088,-1.4088,-1.4088,-1.4088,-1.4166,-1.4314,-1.4391,-1.4852,-1.594,-1.6583,-1.7423,-1.8647,-1.9341,-1.9696,-2.0255,-2.0527,-2.0615,-2.0615,-2.0615,-2.0615,-2.0615,-2.0615,-2.0615,-2.0615,-2.0625,-2.0635,-2.0615,-2.0625,-2.0732,-2.0752,-2.0702,-2.079,-2.1221,-2.1425,-2.1359,-2.154,-2.1959,-2.1997,-2.2235,-2.2816,-2.3349,-2.405,-2.4716,-2.5266,0.9937,0.8915,0.8793,0.8613,0.8419,0.8213,0.7898,0.7516,0.7377,0.7301,0.7229,0.721,0.721,0.7191,0.713,0.695,0.6801,0.6717,0.6535,0.6408,0.6387,0.6387,0.6387,0.6387,0.6234,0.5765,0.479,0.4148,0.357,0.2347,0.138,0.1006,0.0271,-0.0224,-0.0404,-0.0673,-0.0897,-0.1121,-0.1301,-0.1391,-0.1391,-0.1391,-0.1391,-0.1391,-0.1391,-0.1569,-0.1838,-0.1883,-0.2509,-0.3758,-0.4425,-0.5445,-0.6738,-0.7095,-0.7139,-0.7231,-0.7459,-0.7724,-0.7984,-0.8201,-0.8432,-0.8568,-0.8616,-0.8696,-0.9043,-0.9859,-1.0766,-1.1671,-1.2571,-1.3349,-1.3913,-1.4088,-1.4088,-1.4088,-1.4088,-1.413,-1.4208,-1.4314,-1.4608,-1.5186,-1.5974,-1.6706,-1.7399,-1.8207,-1.9253,-1.9696,-2.0167,-2.0527,-2.0566,-2.0566,-2.0615,-2.0615,-2.0615,-2.0674,-2.0732,-2.081,-2.0908,-2.0801,-2.0713,-2.0644,-2.0635,-2.0605,-2.0702,-2.0858,-2.1061,-2.1254,-2.1436,-2.1578,-2.1693,-2.1769,-2.2208,-2.2863,-2.3596,-2.4204,-2.4779,1.0838,0.9883,0.9278,0.8915,0.8717,0.8468,0.8101,0.7682,0.756,0.7379,0.7226,0.721,0.7182,0.7139,0.7016,0.6891,0.6736,0.6651,0.6503,0.64,0.6387,0.6387,0.6387,0.6387,0.6387,0.6326,0.5716,0.5172,0.4742,0.3488,0.2389,0.1569,0.0913,0.0316,-0.018,-0.0448,-0.0718,-0.0852,-0.1122,-0.1301,-0.1301,-0.1346,-0.1391,-0.1391,-0.1391,-0.1391,-0.1391,-0.1391,-0.1883,-0.2911,-0.4113,-0.5403,-0.6517,-0.6874,-0.7095,-0.7143,-0.7367,-0.7595,-0.7768,-0.7984,-0.8204,-0.8384,-0.8476,-0.8524,-0.874,-0.9384,-1.0202,-1.0761,-1.1972,-1.2918,-1.3483,-1.3955,-1.4088,-1.4088,-1.4088,-1.4088,-1.4124,-1.4279,-1.444,-1.4776,-1.536,-1.5948,-1.6673,-1.7318,-1.8487,-1.8807,-1.9569,-2.0128,-2.0206,-2.0401,-2.0489,-2.0635,-2.0781,-2.084,-2.0869,-2.1025,-2.123,-2.1084,-2.0898,-2.0742,-2.0674,-2.0625,-2.0644,-2.0731,-2.0935,-2.1138,-2.132,-2.1512,-2.1655,-2.1693,-2.1807,-2.2203,-2.2883,-2.3756,-2.4409,1.1808,1.1511,1.0061,0.9396,0.9195,0.8812,0.8378,0.8029,0.7826,0.7534,0.7282,0.721,0.7095,0.7008,0.697,0.6836,0.6651,0.66,0.6489,0.6408,0.6387,0.6387,0.6387,0.6387,0.6387,0.6384,0.6329,0.583,0.5067,0.4637,0.3796,0.2193,0.1665,0.1099,0.0316,-0.018,-0.0448,-0.0538,-0.0852,-0.1076,-0.1122,-0.1256,-0.1391,-0.1391,-0.1391,-0.1391,-0.1391,-0.1436,-0.1883,-0.2956,-0.4383,-0.5317,-0.5805,-0.6564,-0.6918,-0.7051,-0.7323,-0.7459,-0.7547,-0.7724,-0.7988,-0.816,-0.8248,-0.8292,-0.8608,-0.9209,-0.9772,-1.0115,-1.1408,-1.24,-1.2705,-1.3398,-1.387,-1.4088,-1.4088,-1.4088,-1.413,-1.4237,-1.4363,-1.444,-1.4824,-1.5333,-1.6064,-1.6542,-1.7155,-1.7804,-1.8647,-1.9143,-1.9332,-1.9648,-2.0284,-2.0478,-2.0495,-2.0712,-2.0653,-2.1338,-2.1465,-2.1035,-2.0957,-2.0967,-2.0742,-2.0635,-2.0605,-2.0693,-2.0819,-2.0984,-2.1215,-2.1436,-2.1617,-2.1731,-2.1807,-2.1797,-2.2344,-2.3316,-2.3975,1.3421,1.1692,1.1209,1.0365,0.9357,0.8962,0.8598,0.8238,0.7859,0.7642,0.744,0.7268,0.7147,0.6983,0.6891,0.6763,0.6632,0.6481,0.6427,0.6392,0.6387,0.6387,0.6387,0.6387,0.6387,0.6387,0.6387,0.6221,0.5936,0.5225,0.4479,0.3948,0.2388,0.1522,0.1099,0.0136,-0.0359,-0.0448,-0.0673,-0.0897,-0.1076,-0.1166,-0.1256,-0.1391,-0.1391,-0.1391,-0.1391,-0.1391,-0.1883,-0.2822,-0.3314,-0.434,-0.545,-0.5941,-0.6384,-0.6918,-0.7143,-0.7323,-0.7462,-0.7551,-0.7724,-0.794,-0.8069,-0.8248,-0.8288,-0.8692,-0.9257,-0.9772,-1.0458,-1.0977,-1.1623,-1.2528,-1.3307,-1.3955,-1.4088,-1.4088,-1.4124,-1.4124,-1.4166,-1.4208,-1.4454,-1.4776,-1.5103,-1.5801,-1.6468,-1.6919,-1.7642,-1.8327,-1.8439,-1.8678,-1.9155,-1.9539,-1.9741,-2.0164,-2.0642,-2.1393,-2.1562,-2.1016,-2.0986,-2.124,-2.0938,-2.0615,-2.0605,-2.0654,-2.0741,-2.0906,-2.1138,-2.1359,-2.155,-2.1655,-2.1769,-2.1807,-2.2392,-2.3202,-2.3596,1.4381,1.247,1.1933,1.0808,0.9466,0.9189,0.8881,0.8498,0.8143,0.7829,0.7607,0.7438,0.726,0.698,0.6912,0.6779,0.6624,0.6495,0.6441,0.6389,0.6387,0.6387,0.6387,0.6387,0.6387,0.6387,0.6387,0.6387,0.6276,0.577,0.5281,0.4635,0.359,0.2536,0.1522,0.0914,0.0181,-0.018,-0.0449,-0.0673,-0.0807,-0.1031,-0.1166,-0.1301,-0.1346,-0.1391,-0.1391,-0.1391,-0.1704,-0.224,-0.2688,-0.3403,-0.4427,-0.5364,-0.5941,-0.6517,-0.6871,-0.7187,-0.7279,-0.7323,-0.7459,-0.768,-0.7856,-0.7981,-0.8157,-0.8384,-0.8771,-0.9209,-0.9646,-1.0159,-1.0766,-1.1886,-1.2833,-1.3398,-1.387,-1.4088,-1.4088,-1.4088,-1.4088,-1.4166,-1.4286,-1.4398,-1.4398,-1.5318,-1.5692,-1.6064,-1.678,-1.7229,-1.7472,-1.7755,-1.8078,-1.8527,-1.9052,-1.9522,-2.0151,-2.0926,-2.1498,-2.1064,-2.0898,-2.1211,-2.0997,-2.0615,-2.0615,-2.0615,-2.0702,-2.0867,-2.1051,-2.1205,-2.1282,-2.1397,-2.154,-2.1807,-2.2252,-2.274,-2.3128,1.5035,1.3789,1.247,1.1175,1.0073,0.9562,0.9239,0.8974,0.8605,0.8156,0.7773,0.7662,0.737,0.704,0.7018,0.685,0.6622,0.6551,0.6532,0.6469,0.6387,0.6387,0.6387,0.6387,0.6387,0.6387,0.6387,0.6387,0.6384,0.6329,0.5882,0.5174,0.4846,0.3796,0.2443,0.1764,0.1055,0.0317,-0.0181,-0.0405,-0.0539,-0.0807,-0.0987,-0.1166,-0.1346,-0.1391,-0.1391,-0.1391,-0.148,-0.1436,-0.2285,-0.2732,-0.3135,-0.465,-0.5497,-0.5852,-0.6428,-0.6874,-0.7095,-0.7143,-0.7187,-0.7415,-0.7503,-0.768,-0.7984,-0.816,-0.838,-0.8648,-0.9297,-0.9728,-1.0207,-1.1542,-1.2443,-1.2918,-1.3568,-1.4039,-1.4088,-1.4088,-1.4088,-1.4088,-1.4286,-1.4363,-1.4489,-1.4706,-1.5048,-1.5235,-1.5884,-1.6296,-1.6542,-1.6788,-1.7229,-1.7755,-1.829,-1.8901,-1.9602,-2.0365,-2.0888,-2.106,-2.0917,-2.0967,-2.085,-2.0615,-2.0615,-2.0615,-2.0693,-2.078,-2.0906,-2.1022,-2.1051,-2.1205,-2.1397,-2.1474,-2.1617,-2.2138,-2.2617,1.6343,1.5095,1.378,1.2953,1.2231,1.0368,0.9803,1.031,0.904,0.854,0.8211,0.7826,0.7535,0.7311,0.7086,0.6853,0.6646,0.6613,0.65,0.64,0.6387,0.6387,0.6387,0.6387,0.6387,0.6387,0.6387,0.6387,0.6387,0.6384,0.6326,0.5993,0.5228,0.4582,0.3959,0.2469,0.1545,0.1106,0.0413,-0.0137,-0.0361,-0.0494,-0.0763,-0.1076,-0.1301,-0.1391,-0.1391,-0.1391,-0.1391,-0.148,-0.1659,-0.2152,-0.2778,-0.3314,-0.4206,-0.5319,-0.5808,-0.634,-0.6918,-0.7051,-0.7095,-0.7231,-0.737,-0.7551,-0.7635,-0.7984,-0.8204,-0.834,-0.8692,-0.917,-0.9816,-1.0852,-1.1843,-1.2577,-1.3483,-1.4088,-1.4088,-1.4088,-1.4088,-1.4124,-1.4124,-1.4166,-1.4201,-1.4405,-1.4573,-1.465,-1.4943,-1.5367,-1.5658,-1.594,-1.6345,-1.687,-1.7351,-1.8017,-1.9147,-1.9996,-2.0778,-2.1099,-2.1014,-2.0937,-2.0771,-2.0693,-2.0684,-2.0674,-2.0615,-2.0693,-2.0819,-2.0867,-2.0935,-2.1089,-2.1205,-2.1244,-2.1397,-2.1807,-2.2035,1.6762,1.5558,1.4744,1.3927,1.2961,1.1564,1.1153,1.1266,1.0173,0.9416,0.9144,0.8429,0.7895,0.7658,0.7328,0.7088,0.6862,0.6626,0.655,0.6545,0.6489,0.6387,0.6387,0.6387,0.6387,0.6387,0.6387,0.6387,0.6387,0.6387,0.6387,0.6384,0.5773,0.5279,0.485,0.3586,0.2626,0.1645,0.1078,0.0466,-0.0092,-0.0366,-0.0633,-0.1033,-0.1211,-0.1301,-0.1391,-0.1391,-0.1391,-0.1391,-0.1436,-0.1615,-0.2196,-0.2644,-0.3448,-0.4204,-0.5364,-0.5808,-0.634,-0.6827,-0.7095,-0.7095,-0.7231,-0.737,-0.7462,-0.7768,-0.794,-0.8072,-0.8296,-0.8692,-0.9301,-1.0636,-1.1499,-1.21,-1.3264,-1.4039,-1.4088,-1.4088,-1.4088,-1.4088,-1.4088,-1.413,-1.4166,-1.4286,-1.4356,-1.4524,-1.465,-1.5075,-1.5117,-1.536,-1.5492,-1.594,-1.6353,-1.7163,-1.8518,-1.9663,-2.0777,-2.1093,-2.1161,-2.1064,-2.1006,-2.0908,-2.082,-2.0713,-2.0615,-2.0605,-2.0693,-2.078,-2.078,-2.0848,-2.0925,-2.1012,-2.1205,-2.1502,-2.1655,1.6885,1.5849,1.5374,1.4567,1.3534,1.2824,1.257,1.2495,1.1522,1.0708,1.0245,0.9323,0.8937,0.8097,0.7943,0.76,0.7151,0.6763,0.6595,0.6745,0.6489,0.6437,0.6387,0.6387,0.6387,0.6387,0.6387,0.6387,0.6387,0.6387,0.6387,0.6384,0.6384,0.5936,0.5225,0.4765,0.3895,0.2538,0.2055,0.1333,0.0474,0.014,-0.0231,-0.0868,-0.1086,-0.1176,-0.131,-0.135,-0.1391,-0.1391,-0.1391,-0.1391,-0.1614,-0.2106,-0.2823,-0.2956,-0.4516,-0.5453,-0.5941,-0.6561,-0.7095,-0.7095,-0.7095,-0.7187,-0.737,-0.7507,-0.7635,-0.7812,-0.8032,-0.8292,-0.8652,-0.9898,-1.0804,-1.1408,-1.2747,-1.3743,-1.3913,-1.3997,-1.4088,-1.4088,-1.4088,-1.4088,-1.4124,-1.4243,-1.4321,-1.4398,-1.4573,-1.4657,-1.4741,-1.4866,-1.5075,-1.5492,-1.6031,-1.6837,-1.8144,-1.9303,-2.041,-2.0707,-2.091,-2.1121,-2.1072,-2.1034,-2.0928,-2.0684,-2.0605,-2.0605,-2.0605,-2.0654,-2.0654,-2.0644,-2.0683,-2.0809,-2.1012,-2.1167,-2.1272,1.7361,1.7044,1.5787,1.5497,1.5654,1.3659,1.3212,1.3681,1.2853,1.1742,1.0861,1.1304,1.0253,0.9005,0.9036,0.8543,0.7473,0.6956,0.6792,0.6792,0.6589,0.6437,0.6439,0.6437,0.6437,0.6387,0.6387,0.6387,0.6387,0.6387,0.6387,0.6387,0.6387,0.6161,0.5854,0.5354,0.4709,0.386,0.3263,0.2422,0.1582,0.1094,0.0472,-0.0469,-0.088,-0.1058,-0.119,-0.1313,-0.1391,-0.1391,-0.1391,-0.1391,-0.1439,-0.1663,-0.211,-0.2867,-0.3935,-0.4959,-0.5539,-0.6517,-0.7007,-0.7095,-0.7095,-0.7095,-0.7231,-0.7367,-0.7503,-0.7635,-0.7812,-0.8028,-0.8288,-0.9414,-0.9889,-1.0544,-1.1671,-1.2918,-1.3052,-1.3483,-1.3913,-1.3913,-1.3955,-1.4088,-1.4124,-1.4166,-1.4201,-1.4286,-1.437,-1.4447,-1.4489,-1.4657,-1.4866,-1.5325,-1.5858,-1.6837,-1.7925,-1.8945,-1.9913,-2.0077,-2.0372,-2.091,-2.0962,-2.1072,-2.1006,-2.0713,-2.0615,-2.0605,-2.0605,-2.0615,-2.0605,-2.0605,-2.0654,-2.0654,-2.0809,-2.0974,-2.1089,1.7485,1.7384,1.6419,1.6249,1.6354,1.5032,1.4597,1.4891,1.4,1.3173,1.2599,1.224,1.1553,1.0342,0.9504,0.8745,0.7715,0.7181,0.7092,0.7092,0.6842,0.6592,0.6589,0.6489,0.6437,0.6387,0.6387,0.6387,0.6387,0.6387,0.6387,0.6387,0.6387,0.6387,0.6337,0.5929,0.5309,0.4868,0.4267,0.351,0.2447,0.1993,0.0916,-0.0095,-0.0567,-0.0795,-0.0924,-0.1148,-0.1231,-0.1277,-0.1368,-0.1459,-0.1459,-0.1503,-0.1632,-0.2295,-0.3446,-0.4423,-0.5181,-0.616,-0.7095,-0.7095,-0.7095,-0.7095,-0.7139,-0.7231,-0.7367,-0.7503,-0.7591,-0.7768,-0.8072,-0.8938,-0.954,-0.9932,-1.1063,-1.1843,-1.2186,-1.2833,-1.3173,-1.3434,-1.3786,-1.3955,-1.4088,-1.413,-1.4088,-1.4124,-1.4208,-1.4243,-1.4279,-1.4405,-1.4615,-1.5026,-1.5526,-1.6304,-1.7237,-1.8151,-1.8979,-1.9232,-1.9701,-2.0279,-2.0671,-2.0692,-2.0739,-2.0693,-2.0625,-2.0615,-2.0615,-2.0615,-2.0615,-2.0615,-2.0615,-2.0654,-2.0654,-2.078,-2.0896,1.7449,1.7364,1.6893,1.667,1.6543,1.6103,1.5838,1.5731,1.499,1.4445,1.4089,1.3283,1.2573,1.1583,1.0258,0.889,0.7939,0.7587,0.7394,0.7447,0.7095,0.6895,0.6792,0.6642,0.6489,0.6539,0.6437,0.6387,0.6387,0.6387,0.6387,0.6387,0.6387,0.6387,0.6337,0.6287,0.5734,0.5434,0.5085,0.458,0.3512,0.2235,0.1126,0.0048,-0.024,-0.0524,-0.066,-0.0887,-0.1025,-0.1164,-0.1303,-0.1443,-0.1489,-0.1489,-0.1478,-0.173,-0.3103,-0.3898,-0.4717,-0.5764,-0.6802,-0.7118,-0.7112,-0.7098,-0.7095,-0.7143,-0.7187,-0.737,-0.7415,-0.7547,-0.7852,-0.8636,-0.9148,-0.9497,-1.0241,-1.1068,-1.1278,-1.1709,-1.2266,-1.2741,-1.3355,-1.3786,-1.3913,-1.4088,-1.4088,-1.4088,-1.4166,-1.4166,-1.4159,-1.4243,-1.4447,-1.4734,-1.5186,-1.5816,-1.6501,-1.7147,-1.7802,-1.8091,-1.8775,-1.9521,-1.9896,-2.0171,-2.0226,-2.0283,-2.0625,-2.0615,-2.0615,-2.0576,-2.0615,-2.0615,-2.0615,-2.0615,-2.0654,-2.0693,-2.0819,1.7346,1.7117,1.6827,1.6561,1.632,1.6024,1.5885,1.5916,1.5886,1.5332,1.4352,1.4832,1.3883,1.199,1.0406,0.9591,0.9023,0.8233,0.769,0.7646,0.7291,0.7141,0.7089,0.6892,0.6756,0.6706,0.6498,0.6437,0.6398,0.64,0.6387,0.6387,0.6387,0.6387,0.6387,0.6387,0.6337,0.6187,0.6137,0.5634,0.4429,0.2711,0.1801,0.1046,0.0345,-0.0292,-0.0435,-0.067,-0.0808,-0.1045,-0.1093,-0.1283,-0.1473,-0.1473,-0.1473,-0.1781,-0.2485,-0.3474,-0.4292,-0.5448,-0.6382,-0.6934,-0.7158,-0.7119,-0.7139,-0.7129,-0.7166,-0.7139,-0.7143,-0.7279,-0.7547,-0.7896,-0.8201,-0.8723,-0.9423,-0.9946,-1.0246,-1.0847,-1.1365,-1.1752,-1.232,-1.3222,-1.3737,-1.3955,-1.4088,-1.4088,-1.4088,-1.4088,-1.413,-1.4159,-1.4279,-1.4566,-1.4734,-1.5311,-1.5692,-1.6329,-1.6656,-1.6998,-1.7763,-1.8605,-1.9051,-1.9371,-1.9635,-1.9788,-2.0156,-2.0411,-2.0333,-2.0372,-2.0527,-2.0615,-2.0615,-2.0615,-2.0615,-2.0654,-2.0741,1.728,1.7274,1.6869,1.6634,1.6471,1.6072,1.5885,1.591,1.6,1.5642,1.5083,1.5239,1.4265,1.2423,1.1565,1.0685,0.9702,0.897,0.8336,0.7846,0.759,0.7441,0.7344,0.7147,0.7015,0.6911,0.674,0.6595,0.6544,0.6416,0.6387,0.6387,0.6387,0.6387,0.6387,0.6387,0.6387,0.6387,0.6287,0.5834,0.4832,0.3879,0.2822,0.1714,0.105,0.0496,0.0,-0.0439,-0.0582,-0.0727,-0.0824,-0.1067,-0.1261,-0.1356,-0.1352,-0.1523,-0.1832,-0.2567,-0.3608,-0.5018,-0.5907,-0.6574,-0.7014,-0.7417,-0.7383,-0.7316,-0.7272,-0.7272,-0.7142,-0.7194,-0.7367,-0.768,-0.7852,-0.8248,-0.8775,-0.8995,-0.9428,-1.0033,-1.0593,-1.0939,-1.1327,-1.2186,-1.3052,-1.3525,-1.3786,-1.4088,-1.4088,-1.4088,-1.4088,-1.4124,-1.4243,-1.4398,-1.4566,-1.4776,-1.5068,-1.5484,-1.5692,-1.6035,-1.6754,-1.754,-1.8117,-1.8486,-1.8763,-1.9212,-1.9615,-1.9814,-1.9971,-2.0284,-2.0566,-2.0615,-2.0615,-2.0615,-2.0615,-2.0615,-2.0654,1.7207,1.7334,1.6815,1.6555,1.6471,1.6054,1.5885,1.5885,1.5891,1.5789,1.5547,1.5224,1.4369,1.3262,1.2689,1.1755,1.0489,0.985,0.9167,0.8482,0.7939,0.7693,0.7593,0.7447,0.724,0.7148,0.6885,0.6734,0.6606,0.6488,0.6387,0.6387,0.6387,0.6387,0.6387,0.6387,0.6387,0.6387,0.6387,0.5987,0.5334,0.4885,0.3828,0.2871,0.2113,0.1603,0.0892,0.0346,0.0148,0.0,-0.0494,-0.0791,-0.1038,-0.1087,-0.1181,-0.1365,-0.1549,-0.184,-0.2844,-0.397,-0.5149,-0.5863,-0.6555,-0.7126,-0.756,-0.7482,-0.739,-0.736,-0.7278,-0.7156,-0.7197,-0.7544,-0.7724,-0.7944,-0.8248,-0.8388,-0.8608,-0.9257,-0.9685,-0.9859,-1.0337,-1.1025,-1.1886,-1.2747,-1.3349,-1.3955,-1.4088,-1.4088,-1.4088,-1.4088,-1.4166,-1.4321,-1.444,-1.4524,-1.465,-1.4866,-1.4957,-1.52,-1.5884,-1.6378,-1.6919,-1.7529,-1.7991,-1.8465,-1.8975,-1.9657,-2.0089,-2.0372,-2.0615,-2.0615,-2.0615,-2.0615,-2.0615,-2.0615,-2.0615,1.7105,1.7074,1.6537,1.6187,1.5982,1.591,1.5885,1.5885,1.5885,1.5855,1.5686,1.5312,1.4725,1.4062,1.3264,1.2684,1.229,1.0435,0.9801,0.9266,0.8581,0.8187,0.8038,0.7892,0.7616,0.7507,0.7334,0.7127,0.6723,0.6606,0.6509,0.6387,0.6387,0.6387,0.6387,0.6387,0.6387,0.6387,0.6387,0.6387,0.5937,0.5436,0.4734,0.4331,0.3575,0.302,0.2916,0.1957,0.1204,0.0953,0.0251,-0.0502,-0.0702,-0.0803,-0.095,-0.1148,-0.1246,-0.1495,-0.2134,-0.2975,-0.3764,-0.4636,-0.5545,-0.646,-0.7,-0.7432,-0.7479,-0.7336,-0.723,-0.7275,-0.7248,-0.7323,-0.7547,-0.7724,-0.7988,-0.8204,-0.834,-0.852,-0.8867,-0.8911,-0.9388,-1.012,-1.0679,-1.1537,-1.2443,-1.3003,-1.3695,-1.3695,-1.4046,-1.4088,-1.4088,-1.4208,-1.4321,-1.4405,-1.444,-1.4573,-1.4699,-1.4824,-1.5269,-1.5436,-1.565,-1.6296,-1.7025,-1.7755,-1.8327,-1.9292,-2.0098,-2.0089,-2.0206,-2.0489,-2.0615,-2.0615,-2.0615,-2.0615,-2.0615,1.6851,1.6797,1.6266,1.6072,1.6121,1.5958,1.5885,1.5885,1.5885,1.5686,1.5403,1.5022,1.4654,1.4232,1.3956,1.327,1.2684,1.1999,1.1165,1.0386,0.9608,0.9069,0.8924,0.8812,0.8517,0.8129,0.8119,0.7773,0.7079,0.6944,0.6648,0.6517,0.645,0.6387,0.6387,0.6387,0.6387,0.6387,0.6387,0.6387,0.6287,0.6087,0.5486,0.4734,0.4533,0.3778,0.3272,0.282,0.2166,0.1562,0.1059,0.0353,-0.0353,-0.0455,-0.0707,-0.0909,-0.1061,-0.1212,-0.1515,-0.2435,-0.3564,-0.4506,-0.5087,-0.5498,-0.6114,-0.6375,-0.6664,-0.6765,-0.7151,-0.723,-0.7351,-0.7433,-0.7551,-0.7595,-0.7775,-0.8,-0.816,-0.8252,-0.8476,-0.8648,-0.8867,-0.9345,-0.9816,-1.0289,-1.1192,-1.2057,-1.2747,-1.3349,-1.361,-1.3913,-1.387,-1.3955,-1.4117,-1.4243,-1.4286,-1.4405,-1.4524,-1.4608,-1.4699,-1.4943,-1.511,-1.5249,-1.5982,-1.6747,-1.7513,-1.8198,-1.8877,-1.9441,-1.9883,-2.0411,-2.0566,-2.0615,-2.0615,-2.0615,-2.0615,1.6652,1.6519,1.6079,1.5994,1.6127,1.5964,1.5885,1.5885,1.5885,1.5596,1.5107,1.4902,1.4624,1.4389,1.425,1.3956,1.327,1.2727,1.2242,1.1463,1.0681,1.0145,1.0113,1.0082,0.9907,0.9289,0.9061,0.884,0.8174,0.7541,0.7132,0.6842,0.6642,0.6586,0.6387,0.6387,0.6387,0.6387,0.6387,0.6387,0.6387,0.6337,0.6137,0.5436,0.5286,0.5033,0.4429,0.3977,0.3374,0.267,0.1965,0.116,0.0454,-0.0101,-0.0404,-0.0657,-0.0859,-0.101,-0.1363,-0.2017,-0.3172,-0.4014,-0.4216,-0.4462,-0.4908,-0.5407,-0.5801,-0.6321,-0.6756,-0.7145,-0.7286,-0.7465,-0.7447,-0.744,-0.7688,-0.7912,-0.7923,-0.8032,-0.8252,-0.8428,-0.8648,-0.878,-0.9043,-0.9559,-1.0419,-1.1235,-1.188,-1.24,-1.2613,-1.3003,-1.344,-1.361,-1.387,-1.3997,-1.413,-1.4243,-1.4321,-1.4363,-1.4489,-1.4768,-1.4943,-1.4999,-1.5374,-1.6386,-1.6992,-1.7188,-1.7917,-1.8926,-1.9726,-2.044,-2.0566,-2.0615,-2.0615,-2.0615,-2.0615,1.6537,1.632,1.6006,1.5897,1.5922,1.5897,1.5885,1.5885,1.5879,1.5596,1.5143,1.5065,1.4769,1.4395,1.4298,1.4154,1.3908,1.3221,1.278,1.249,1.1658,1.1224,1.1222,1.1267,1.1184,1.1166,1.0775,1.0207,0.9489,0.8542,0.7874,0.734,0.7023,0.678,0.6445,0.6387,0.6387,0.6387,0.6387,0.6387,0.6387,0.6387,0.6237,0.6187,0.6087,0.5884,0.5634,0.5083,0.4531,0.4028,0.2821,0.1966,0.1312,0.0505,0.005,-0.0404,-0.0455,-0.0606,-0.0859,-0.1364,-0.222,-0.3024,-0.3224,-0.3524,-0.4373,-0.4858,-0.5034,-0.5417,-0.6171,-0.6679,-0.7079,-0.7514,-0.7409,-0.7413,-0.7622,-0.7726,-0.7789,-0.7819,-0.8053,-0.8224,-0.8248,-0.8292,-0.852,-0.8915,-0.9689,-1.0463,-1.1063,-1.1494,-1.1752,-1.2186,-1.2705,-1.3179,-1.3483,-1.3828,-1.3955,-1.4088,-1.4124,-1.4166,-1.4286,-1.4524,-1.4734,-1.4831,-1.5367,-1.6147,-1.6427,-1.6624,-1.7594,-1.8647,-1.9332,-1.9971,-2.0489,-2.0615,-2.0615,-2.0615,-2.0615,1.6368,1.626,1.6,1.5885,1.5885,1.5885,1.5885,1.5885,1.5855,1.5596,1.5185,1.5113,1.4805,1.4437,1.4298,1.4298,1.4202,1.4148,1.3763,1.3565,1.2635,1.229,1.2234,1.2263,1.2178,1.1943,1.1681,1.115,0.9951,0.9299,0.8462,0.7801,0.7202,0.6734,0.6498,0.6387,0.6387,0.6387,0.6387,0.6387,0.6387,0.6387,0.6387,0.6387,0.6387,0.6387,0.6387,0.5834,0.5534,0.4985,0.3726,0.3022,0.2066,0.116,0.0706,0.0101,-0.0252,-0.0505,-0.0808,-0.1212,-0.1566,-0.2019,-0.227,-0.2421,-0.2671,-0.3423,-0.3857,-0.448,-0.5415,-0.5967,-0.6556,-0.7274,-0.7426,-0.7506,-0.7641,-0.7661,-0.7685,-0.7726,-0.7829,-0.7993,-0.8072,-0.8252,-0.8432,-0.8524,-0.9126,-0.9515,-1.0072,-1.0766,-1.1111,-1.1499,-1.1929,-1.2577,-1.3052,-1.3476,-1.3822,-1.3997,-1.4088,-1.4124,-1.4124,-1.4208,-1.4419,-1.4622,-1.4866,-1.5394,-1.5733,-1.6147,-1.7074,-1.7965,-1.8736,-1.9381,-1.9814,-2.0372,-2.0615,-2.0615,-2.0615,1.6284,1.6295,1.6017,1.5885,1.5885,1.5885,1.5885,1.5885,1.5873,1.5638,1.5294,1.5155,1.4877,1.4521,1.4346,1.4298,1.4298,1.4298,1.4298,1.4202,1.3661,1.3318,1.3286,1.3316,1.3287,1.2994,1.2931,1.2516,1.1539,1.056,0.9341,0.8079,0.7443,0.719,0.6878,0.6628,0.6464,0.6425,0.6433,0.6387,0.6387,0.6387,0.6387,0.6387,0.6387,0.6387,0.6387,0.6287,0.6087,0.5434,0.4832,0.418,0.3022,0.2217,0.1664,0.0807,0.0,-0.0303,-0.0606,-0.0758,-0.1111,-0.1515,-0.1516,-0.1566,-0.1667,-0.2321,-0.2873,-0.3607,-0.4565,-0.517,-0.5713,-0.6503,-0.7082,-0.7165,-0.7493,-0.7516,-0.7621,-0.7668,-0.766,-0.7826,-0.7863,-0.8128,-0.834,-0.8384,-0.86,-0.8819,-0.9082,-0.9728,-1.0419,-1.0722,-1.1154,-1.1843,-1.2577,-1.3179,-1.3652,-1.4039,-1.4088,-1.4088,-1.4088,-1.4088,-1.4208,-1.4412,-1.4531,-1.4608,-1.5068,-1.5609,-1.6427,-1.7237,-1.7885,-1.8527,-1.9045,-1.9687,-2.0411,-2.0527,-2.0489,1.6301,1.6283,1.5992,1.5945,1.5945,1.5885,1.5885,1.5885,1.5885,1.5728,1.5451,1.5179,1.4902,1.4654,1.4407,1.4304,1.4298,1.4298,1.4298,1.4298,1.4052,1.4118,1.4207,1.4283,1.422,1.4225,1.3993,1.3553,1.3383,1.151,0.9761,0.8637,0.8232,0.7833,0.7382,0.6908,0.6656,0.6633,0.6521,0.6486,0.6483,0.6398,0.6389,0.6387,0.6387,0.6387,0.6387,0.6337,0.6337,0.5987,0.5434,0.4983,0.4431,0.3776,0.2771,0.1613,0.0555,0.0151,-0.0353,-0.0455,-0.0707,-0.1061,-0.1364,-0.1516,-0.1617,-0.1818,-0.222,-0.2723,-0.3506,-0.4021,-0.4524,-0.5417,-0.6263,-0.6666,-0.7157,-0.7365,-0.756,-0.7612,-0.7552,-0.7583,-0.7608,-0.7742,-0.7988,-0.8116,-0.8208,-0.8336,-0.8556,-0.8732,-0.934,-0.9689,-1.0207,-1.1063,-1.1837,-1.279,-1.3307,-1.3652,-1.3997,-1.3997,-1.4088,-1.413,-1.4208,-1.4286,-1.4405,-1.4524,-1.4608,-1.5061,-1.5767,-1.6337,-1.6903,-1.7553,-1.8198,-1.9125,-1.9883,-2.0216,-2.0255,1.6599,1.6577,1.6324,1.6164,1.6158,1.5945,1.5885,1.5885,1.5879,1.5656,1.5209,1.5149,1.4902,1.4425,1.4328,1.4316,1.4298,1.4298,1.4298,1.4298,1.4304,1.4431,1.4485,1.4527,1.4787,1.4855,1.4579,1.4038,1.3459,1.1879,1.0591,0.9531,0.9054,0.8514,0.7801,0.7211,0.7014,0.6842,0.6677,0.6556,0.6526,0.6438,0.6414,0.6392,0.6387,0.6387,0.6387,0.6387,0.6387,0.6237,0.6087,0.5737,0.4732,0.4381,0.3677,0.1815,0.1211,0.0858,0.005,-0.0252,-0.0455,-0.0657,-0.0909,-0.1263,-0.1465,-0.1616,-0.1768,-0.222,-0.2723,-0.3249,-0.3685,-0.4438,-0.5289,-0.5911,-0.6366,-0.6757,-0.6957,-0.7073,-0.7062,-0.7218,-0.7207,-0.7517,-0.7764,-0.79,-0.7988,-0.8072,-0.8116,-0.8252,-0.8472,-0.8911,-0.9515,-1.0376,-1.089,-1.1757,-1.2534,-1.2966,-1.3525,-1.387,-1.387,-1.3955,-1.4166,-1.4243,-1.4363,-1.444,-1.4531,-1.4692,-1.4985,-1.556,-1.609,-1.6788,-1.7472,-1.8439,-1.9283,-1.9687,-2.0137,1.6789,1.6849,1.6583,1.6371,1.6271,1.5998,1.5885,1.5885,1.5885,1.5686,1.5427,1.5318,1.5028,1.4684,1.4539,1.4419,1.4298,1.4298,1.4298,1.4298,1.4298,1.4383,1.4425,1.4431,1.4564,1.4775,1.4736,1.4336,1.3807,1.2941,1.1686,0.9962,0.9697,0.9031,0.8211,0.769,0.7519,0.7279,0.7067,0.6784,0.6646,0.6551,0.6452,0.64,0.6392,0.6392,0.6387,0.6387,0.6387,0.6387,0.6387,0.6187,0.5334,0.5033,0.4583,0.2972,0.2418,0.1765,0.0958,0.0605,0.0151,-0.0252,-0.0556,-0.0859,-0.1162,-0.1364,-0.1515,-0.1768,-0.222,-0.262,-0.3021,-0.3473,-0.4225,-0.5024,-0.5501,-0.5973,-0.6166,-0.6337,-0.652,-0.6717,-0.6946,-0.7296,-0.7544,-0.768,-0.7768,-0.7812,-0.794,-0.8116,-0.8296,-0.8608,-0.9213,-1.0033,-1.0246,-1.0631,-1.1413,-1.2229,-1.2662,-1.3088,-1.3307,-1.3476,-1.3864,-1.4166,-1.4243,-1.4321,-1.4447,-1.4573,-1.4692,-1.4824,-1.5276,-1.5933,-1.646,-1.7115,-1.8238,-1.949,-1.9971,1.7054,1.7226,1.6895,1.6577,1.6324,1.6099,1.5992,1.5992,1.5992,1.5914,1.5818,1.5642,1.5363,1.4974,1.4769,1.4558,1.4419,1.4346,1.4298,1.4298,1.4298,1.4364,1.4407,1.4334,1.4545,1.4437,1.4334,1.4369,1.4447,1.3707,1.2394,1.0418,1.0412,0.9852,0.8686,0.8117,0.7907,0.774,0.7412,0.7125,0.6788,0.6638,0.6578,0.6433,0.6461,0.6456,0.6392,0.6387,0.6387,0.6387,0.6387,0.6337,0.6034,0.5584,0.5033,0.4433,0.3676,0.2569,0.1714,0.1261,0.0605,0.0101,-0.0404,-0.0556,-0.0808,-0.1162,-0.1364,-0.1465,-0.1868,-0.2019,-0.2321,-0.2671,-0.3274,-0.3925,-0.4466,-0.4993,-0.5436,-0.5595,-0.5707,-0.5983,-0.6427,-0.6786,-0.7275,-0.7411,-0.7499,-0.7503,-0.768,-0.7896,-0.8072,-0.83,-0.8867,-0.9559,-0.9602,-0.9859,-1.0587,-1.1322,-1.1714,-1.21,-1.2443,-1.3003,-1.3392,-1.3779,-1.4088,-1.4208,-1.4286,-1.4321,-1.444,-1.4573,-1.4741,-1.4985,-1.5436,-1.5733,-1.6911,-1.8559,-1.9529,1.8192,1.7483,1.7219,1.6908,1.663,1.6524,1.6518,1.6518,1.6524,1.62,1.5712,1.5732,1.5509,1.5139,1.4859,1.4666,1.4564,1.4358,1.431,1.4298,1.4298,1.4383,1.4503,1.4383,1.4594,1.4841,1.4745,1.434,1.4339,1.4036,1.3561,1.2098,1.1606,1.058,0.9237,0.871,0.8346,0.8078,0.812,0.7699,0.7278,0.6884,0.6703,0.6611,0.6564,0.6505,0.6478,0.6387,0.6387,0.6387,0.6387,0.6387,0.6337,0.6084,0.5584,0.4933,0.4582,0.3525,0.2469,0.1865,0.1311,0.0454,-0.005,-0.0252,-0.0556,-0.096,-0.1212,-0.1313,-0.1415,-0.1516,-0.1667,-0.1969,-0.232,-0.2871,-0.3371,-0.4005,-0.4581,-0.4728,-0.4855,-0.5264,-0.5749,-0.6296,-0.6782,-0.7051,-0.7187,-0.7323,-0.7459,-0.7635,-0.7812,-0.7988,-0.834,-0.8863,-0.8915,-0.9218,-0.9903,-1.0376,-1.0766,-1.1198,-1.158,-1.2186,-1.2875,-1.3392,-1.3779,-1.3997,-1.4166,-1.4201,-1.4279,-1.4363,-1.4489,-1.4566,-1.4901,-1.5401,-1.6098,-1.7513,-1.8519,1.8864,1.8258,1.7483,1.712,1.6948,1.6789,1.667,1.673,1.6842,1.6601,1.6048,1.6011,1.578,1.5302,1.4994,1.469,1.4576,1.4377,1.4316,1.4298,1.4316,1.4377,1.4401,1.4389,1.4497,1.4727,1.4558,1.431,1.4322,1.4453,1.4097,1.304,1.2297,1.1496,1.0163,0.9354,0.8845,0.8368,0.883,0.8649,0.8011,0.755,0.7095,0.6946,0.681,0.6703,0.648,0.6387,0.6387,0.6387,0.6387,0.6387,0.6387,0.6337,0.6084,0.5734,0.5331,0.478,0.3525,0.272,0.2167,0.1261,0.0707,0.0656,-0.0202,-0.0606,-0.0859,-0.101,-0.1263,-0.1364,-0.1415,-0.1666,-0.1868,-0.227,-0.2416,-0.2708,-0.3198,-0.344,-0.3645,-0.3959,-0.4615,-0.5447,-0.5938,-0.6296,-0.6517,-0.7139,-0.7279,-0.737,-0.7503,-0.7724,-0.8032,-0.834,-0.8432,-0.8612,-0.9126,-0.9471,-0.9733,-1.0164,-1.0679,-1.1241,-1.1929,-1.2833,-1.3434,-1.3568,-1.3786,-1.413,-1.4166,-1.4243,-1.4243,-1.4286,-1.4734,-1.5228,-1.5884,-1.646,-1.7229,1.9487,1.902,1.7793,1.7232,1.7226,1.6948,1.6836,1.6889,1.7113,1.706,1.6817,1.6558,1.6093,1.5595,1.5279,1.4782,1.4479,1.4358,1.4316,1.4298,1.4298,1.434,1.4334,1.4322,1.4407,1.4443,1.4383,1.4328,1.4304,1.4527,1.4325,1.3518,1.3092,1.2687,1.1157,1.0364,1.0044,0.9811,0.99,0.9754,0.9108,0.8291,0.7812,0.747,0.7104,0.6887,0.6656,0.6495,0.6495,0.6387,0.6387,0.6387,0.6387,0.6387,0.6387,0.6187,0.6137,0.5534,0.4784,0.4331,0.3324,0.2369,0.1916,0.1261,0.0404,-0.0151,-0.0404,-0.0657,-0.0909,-0.1162,-0.1212,-0.1364,-0.1516,-0.1616,-0.1662,-0.1706,-0.2102,-0.2385,-0.2637,-0.2925,-0.3653,-0.4542,-0.5053,-0.5453,-0.5894,-0.6561,-0.6962,-0.7098,-0.7234,-0.7459,-0.7771,-0.8076,-0.8252,-0.8428,-0.8652,-0.8872,-0.9174,-0.9301,-0.9816,-1.0337,-1.0939,-1.1886,-1.2571,-1.296,-1.3222,-1.3695,-1.4039,-1.4166,-1.4124,-1.4124,-1.437,-1.4776,-1.5019,-1.556,-1.6008,2.0826,1.9117,1.7996,1.7536,1.7529,1.7477,1.7424,1.7424,1.7477,1.7477,1.7318,1.7094,1.6604,1.5822,1.5529,1.5109,1.4588,1.4389,1.4316,1.4298,1.4298,1.4298,1.4298,1.4298,1.4298,1.4352,1.4425,1.4473,1.4364,1.4443,1.4527,1.433,1.3172,1.2957,1.2967,1.2156,1.1456,1.1309,1.1451,1.1553,1.1129,1.0159,0.8699,0.8086,0.7503,0.7266,0.7018,0.6796,0.6606,0.6489,0.6387,0.6387,0.6387,0.6387,0.6387,0.6387,0.6387,0.5937,0.5334,0.5083,0.4078,0.3173,0.262,0.1916,0.111,0.0404,0.0151,-0.0101,-0.0404,-0.0808,-0.096,-0.1162,-0.1313,-0.1414,-0.1463,-0.155,-0.182,-0.1942,-0.2113,-0.2497,-0.3001,-0.373,-0.4352,-0.4569,-0.4648,-0.527,-0.5805,-0.5985,-0.6163,-0.6745,-0.7418,-0.768,-0.7896,-0.8344,-0.8568,-0.8612,-0.8828,-0.8872,-0.8999,-0.9519,-1.0164,-1.0982,-1.1623,-1.2229,-1.2833,-1.3349,-1.3652,-1.4088,-1.4088,-1.4124,-1.4088,-1.4292,-1.4489,-1.4734,-1.5269]}]]